[[{"header":{"parameterUnit":"m.s-1","parameterCategory":1,"la1":30.6,"la2":28.766,"lo1":-90.7593,"lo2":-88.6598,"dy":0.0162,"dx":0.0183,"nx":116,"ny":114,"refTime":"2024-06-21T06:00:00:Z","depth":0,"parameterNumber":2,"parameterNumberName":"U-component_of_WINDS"},"data":[0.0,0.0,0.0,0.0,0.0,0.0,0.0,0.0,0.0,0.0,0.0,0.0,0.0,0.0,0.0,0.0,0.0,0.0,0.0,0.0,0.0,0.0,0.0,0.0,0.0,0.0,0.0,0.0,0.0,0.0,0.0,0.0,0.0,0.0,0.0,0.0,0.0,0.0,0.0,0.0,0.0,0.0,0.0,0.0,0.0,0.0,0.0,0.0,0.0,0.0,0.0,0.0,0.0,0.0,0.0,0.0,0.0,0.0,0.0,0.0,0.0,0.0,0.0,0.0,0.0,0.0,0.0,0.0,0.0,0.0,0.0,0.0,0.0,0.0,0.0,0.0,0.0,0.0,0.0,0.0,0.0,0.0,0.0,0.0,0.0,0.0,0.0,0.0,0.0,0.0,0.0,0.0,0.0,0.0,0.0,0.0,0.0,0.0,0.0,0.0,0.0,0.0,0.0,0.0,0.0,0.0,0.0,0.0,0.0,0.0,0.0,0.0,0.0,0.0,0.0,0.0,0.0,0.0,0.0,0.0,0.0,0.0,0.0,0.0,0.0,0.0,0.0,0.0,0.0,0.0,0.0,0.0,0.0,0.0,0.0,0.0,0.0,0.0,0.0,0.0,0.0,0.0,0.0,0.0,0.0,0.0,0.0,0.0,0.0,0.0,0.0,0.0,0.0,0.0,0.0,0.0,0.0,0.0,0.0,0.0,0.0,0.0,0.0,0.0,0.0,0.0,0.0,0.0,0.0,0.0,0.0,0.0,0.0,0.0,0.0,0.0,0.0,0.0,0.0,0.0,0.0,0.0,0.0,0.0,0.0,0.0,0.0,0.0,0.0,0.0,0.0,0.0,0.0,0.0,0.0,0.0,0.0,0.0,0.0,0.0,0.0,0.0,0.0,0.0,0.0,0.0,0.0,0.0,0.0,0.0,0.0,0.0,0.0,0.0,0.0,0.0,0.0,0.0,0.0,0.0,0.0,0.0,0.0,0.0,0.0,0.0,0.0,0.0,0.0,0.0,0.0,0.0,0.0,0.0,0.0,0.0,0.0,0.0,0.0,0.0,0.0,0.0,0.0,0.0,0.0,0.0,0.0,0.0,0.0,0.0,0.0,0.0,0.0,0.0,0.0,0.0,0.0,0.0,0.0,0.0,0.0,0.0,0.0,0.0,0.0,0.0,0.0,0.0,0.0,0.0,0.0,0.0,0.0,0.0,0.0,0.0,0.0,0.0,0.0,0.0,0.0,0.0,0.0,0.0,0.0,0.0,0.0,0.0,0.0,0.0,0.0,0.0,0.0,0.0,0.0,0.0,0.0,0.0,0.0,0.0,0.0,0.0,0.0,0.0,0.0,0.0,0.0,0.0,0.0,0.0,0.0,0.0,0.0,0.0,0.0,0.0,0.0,0.0,0.0,0.0,0.0,0.0,0.0,0.0,0.0,0.0,0.0,0.0,0.0,0.0,0.0,0.0,0.0,0.0,0.0,0.0,0.0,0.0,0.0,0.0,0.0,0.0,0.0,0.0,0.0,0.0,0.0,0.0,0.0,0.0,0.0,0.0,0.0,0.0,0.0,0.0,0.0,0.0,0.0,0.0,0.0,0.0,0.0,0.0,0.0,0.0,0.0,0.0,0.0,0.0,0.0,0.0,0.0,0.0,0.0,0.0,0.0,0.0,0.0,0.0,0.0,0.0,0.0,0.0,0.0,0.0,0.0,0.0,0.0,0.0,0.0,0.0,0.0,0.0,0.0,0.0,0.0,0.0,0.0,0.0,0.0,0.0,0.0,0.0,0.0,0.0,0.0,0.0,0.0,0.0,0.0,0.0,0.0,0.0,0.0,0.0,0.0,0.0,0.0,0.0,0.0,0.0,0.0,0.0,0.0,0.0,0.0,0.0,0.0,0.0,0.0,0.0,0.0,0.0,0.0,0.0,0.0,0.0,0.0,0.0,0.0,0.0,0.0,0.0,0.0,0.0,0.0,0.0,0.0,0.0,0.0,0.0,0.0,0.0,0.0,0.0,0.0,0.0,0.0,0.0,0.0,0.0,0.0,0.0,0.0,0.0,0.0,0.0,0.0,0.0,0.0,0.0,0.0,0.0,0.0,0.0,0.0,0.0,0.0,0.0,0.0,0.0,0.0,0.0,0.0,0.0,0.0,0.0,0.0,0.0,0.0,0.0,0.0,0.0,0.0,0.0,0.0,0.0,0.0,0.0,0.0,0.0,0.0,0.0,0.0,0.0,0.0,0.0,0.0,0.0,0.0,0.0,0.0,0.0,0.0,0.0,0.0,0.0,0.0,0.0,0.0,0.0,0.0,0.0,0.0,0.0,0.0,0.0,0.0,0.0,0.0,0.0,0.0,0.0,0.0,0.0,0.0,0.0,0.0,0.0,0.0,0.0,0.0,0.0,0.0,0.0,0.0,0.0,0.0,0.0,0.0,0.0,0.0,0.0,0.0,0.0,0.0,0.0,0.0,0.0,0.0,0.0,0.0,0.0,0.0,0.0,0.0,0.0,0.0,0.0,0.0,0.0,0.0,0.0,0.0,0.0,0.0,0.0,0.0,0.0,0.0,0.0,0.0,0.0,0.0,0.0,0.0,0.0,0.0,0.0,0.0,0.0,0.0,0.0,0.0,0.0,0.0,0.0,0.0,0.0,0.0,0.0,0.0,0.0,0.0,0.0,0.0,0.0,0.0,0.0,0.0,0.0,0.0,0.0,0.0,0.0,0.0,0.0,0.0,0.0,0.0,0.0,0.0,0.0,0.0,0.0,0.0,0.0,0.0,0.0,0.0,0.0,0.0,0.0,0.0,0.0,0.0,0.0,0.0,0.0,0.0,0.0,0.0,0.0,0.0,0.0,0.0,0.0,0.0,0.0,0.0,0.0,0.0,0.0,0.0,0.0,0.0,0.0,0.0,0.0,0.0,0.0,0.0,0.0,0.0,0.0,0.0,0.0,0.0,0.0,0.0,0.0,0.0,0.0,0.0,0.0,0.0,0.0,0.0,0.0,0.0,0.0,0.0,0.0,0.0,0.0,0.0,0.0,0.0,0.0,0.0,0.0,0.0,0.0,0.0,0.0,0.0,0.0,0.0,0.0,0.0,0.0,0.0,0.0,0.0,0.0,0.0,0.0,0.0,0.0,0.0,0.0,0.0,0.0,0.0,0.0,0.0,0.0,0.0,0.0,0.0,0.0,0.0,0.0,0.0,0.0,0.0,0.0,0.0,0.0,0.0,0.0,0.0,0.0,0.0,0.0,0.0,0.0,0.0,0.0,0.0,0.0,0.0,0.0,0.0,0.0,0.0,0.0,0.0,0.0,0.0,0.0,0.0,0.0,0.0,0.0,0.0,0.0,0.0,0.0,0.0,0.0,0.0,0.0,0.0,0.0,0.0,0.0,0.0,0.0,0.0,0.0,0.0,0.0,0.0,0.0,0.0,0.0,0.0,0.0,0.0,0.0,0.0,0.0,0.0,0.0,0.0,0.0,0.0,0.0,0.0,0.0,0.0,0.0,0.0,0.0,0.0,0.0,0.0,0.0,0.0,0.0,0.0,0.0,0.0,0.0,0.0,0.0,0.0,0.0,0.0,0.0,0.0,0.0,0.0,0.0,0.0,0.0,0.0,0.0,0.0,0.0,0.0,0.0,0.0,0.0,0.0,0.0,0.0,0.0,0.0,0.0,0.0,0.0,0.0,0.0,0.0,0.0,0.0,0.0,0.0,0.0,0.0,0.0,0.0,0.0,0.0,0.0,0.0,0.0,0.0,0.0,0.0,0.0,0.0,0.0,0.0,0.0,0.0,0.0,0.0,0.0,0.0,0.0,0.0,0.0,0.0,0.0,0.0,0.0,0.0,0.0,0.0,0.0,0.0,0.0,0.0,0.0,0.0,0.0,0.0,0.0,0.0,0.0,0.0,0.0,0.0,0.0,0.0,0.0,0.0,0.0,0.0,0.0,0.0,0.0,0.0,0.0,0.0,0.0,0.0,0.0,0.0,0.0,0.0,0.0,0.0,0.0,0.0,0.0,0.0,0.0,0.0,0.0,0.0,0.0,0.0,0.0,0.0,0.0,0.0,0.0,0.0,0.0,0.0,0.0,0.0,0.0,0.0,0.0,0.0,0.0,0.0,0.0,0.0,0.0,0.0,0.0,0.0,0.0,0.0,0.0,0.0,0.0,0.0,0.0,0.0,0.0,0.0,0.0,0.0,0.0,0.0,0.0,0.0,0.0,0.0,0.0,0.0,0.0,0.0,0.0,0.0,0.0,0.0,0.0,0.0,0.0,0.0,0.0,0.0,0.0,0.0,0.0,0.0,0.0,0.0,0.0,0.0,0.0,0.0,0.0,0.0,0.0,0.0,0.0,0.0,0.0,0.0,0.0,0.0,0.0,0.0,0.0,0.0,0.0,0.0,0.0,0.0,0.0,0.0,0.0,0.0,0.0,0.0,0.0,0.0,0.0,0.0,0.0,0.0,0.0,0.0,0.0,0.0,0.0,0.0,0.0,0.0,0.0,0.0,0.0,0.0,0.0,0.0,0.0,0.0,0.0,0.0,0.0,0.0,0.0,0.0,0.0,0.0,0.0,0.0,0.0,0.0,0.0,0.0,0.0,0.0,0.0,0.0,0.0,0.0,0.0,0.0,0.0,0.0,0.0,0.0,0.0,0.0,0.0,0.0,0.0,0.0,0.0,0.0,0.0,0.0,0.0,0.0,0.0,0.0,0.0,0.0,0.0,0.0,0.0,0.0,0.0,0.0,0.0,0.0,0.0,0.0,0.0,0.0,0.0,0.0,0.0,0.0,0.0,0.0,0.0,0.0,0.0,0.0,0.0,0.0,0.0,0.0,0.0,0.0,0.0,0.0,0.0,0.0,0.0,0.0,0.0,0.0,0.0,0.0,0.0,0.0,0.0,0.0,0.0,0.0,0.0,0.0,0.0,0.0,0.0,0.0,0.0,0.0,0.0,0.0,0.0,0.0,0.0,0.0,0.0,0.0,0.0,0.0,0.0,0.0,0.0,0.0,0.0,0.0,0.0,0.0,0.0,0.0,0.0,0.0,0.0,0.0,0.0,0.0,0.0,0.0,0.0,0.0,0.0,0.0,0.0,0.0,0.0,0.0,0.0,0.0,0.0,0.0,0.0,0.0,0.0,0.0,0.0,0.0,0.0,0.0,0.0,0.0,0.0,0.0,0.0,0.0,0.0,0.0,0.0,0.0,0.0,0.0,0.0,0.0,0.0,0.0,0.0,0.0,0.0,0.0,0.0,0.0,0.0,0.0,0.0,0.0,0.0,0.0,0.0,0.0,0.0,0.0,0.0,0.0,0.0,0.0,0.0,0.0,0.0,0.0,0.0,0.0,0.0,0.0,0.0,0.0,0.0,0.0,0.0,0.0,0.0,0.0,0.0,0.0,0.0,0.0,0.0,0.0,0.0,0.0,0.0,0.0,0.0,0.0,0.0,0.0,0.0,0.0,0.0,0.0,0.0,0.0,0.0,0.0,0.0,0.0,0.0,0.0,0.0,0.0,0.0,0.0,0.0,0.0,0.0,0.0,0.0,0.0,0.0,0.0,0.0,0.0,0.0,0.0,0.0,0.0,0.0,0.0,0.0,0.0,0.0,0.0,0.0,0.0,0.0,0.0,0.0,0.0,0.0,0.0,0.0,0.0,0.0,0.0,0.0,0.0,0.0,0.0,0.0,0.0,0.0,0.0,0.0,0.0,0.0,0.0,0.0,0.0,0.0,0.0,0.0,0.0,0.0,0.0,0.0,0.0,0.0,0.0,0.0,0.0,0.0,0.0,0.0,0.0,0.0,0.0,0.0,0.0,0.0,0.0,0.0,0.0,0.0,0.0,0.0,0.0,0.0,0.0,0.0,0.0,0.0,0.0,0.0,0.0,0.0,0.0,0.0,0.0,0.0,0.0,0.0,0.0,0.0,0.0,0.0,0.0,0.0,0.0,0.0,0.0,0.0,0.0,0.0,0.0,0.0,0.0,0.0,0.0,0.0,0.0,0.0,0.0,0.0,0.0,0.0,0.0,0.0,0.0,0.0,0.0,0.0,0.0,0.0,0.0,0.0,0.0,0.0,0.0,0.0,0.0,0.0,-2.3594,0.0,0.0,0.0,0.0,0.0,0.0,0.0,0.0,0.0,0.0,0.0,0.0,0.0,0.0,0.0,0.0,0.0,0.0,0.0,0.0,0.0,0.0,0.0,0.0,-1.584,-1.6783,-1.6784,-1.6896,-1.6924,-1.6798,0.0,0.0,0.0,-1.6171,-1.5983,-1.6085,-1.6101,-1.6246,-1.6575,-1.7271,-1.795,-1.8566,-1.825,-1.7555,-1.656,0.0,0.0,0.0,0.0,0.0,0.0,0.0,0.0,0.0,0.0,0.0,0.0,0.0,0.0,0.0,0.0,0.0,0.0,0.0,0.0,0.0,0.0,0.0,0.0,0.0,0.0,0.0,0.0,0.0,0.0,0.0,0.0,0.0,0.0,0.0,0.0,0.0,0.0,0.0,0.0,0.0,0.0,0.0,0.0,0.0,0.0,0.0,0.0,0.0,0.0,0.0,0.0,0.0,0.0,0.0,0.0,0.0,0.0,0.0,0.0,0.0,0.0,0.0,0.0,0.0,0.0,0.0,0.0,0.0,0.0,0.0,-2.5263,0.0,0.0,0.0,0.0,0.0,0.0,0.0,0.0,0.0,0.0,0.0,0.0,0.0,0.0,0.0,0.0,0.0,0.0,0.0,0.0,0.0,-1.4376,-1.4893,-1.632,-1.7297,-1.7406,-1.7628,-1.7643,-1.7347,-1.6788,-1.6556,-1.6719,-1.661,-1.6624,-1.6799,-1.7509,-1.8204,-1.8898,-1.9862,-2.1093,-2.253,-2.2596,-2.1742,-2.0099,-1.8946,0.0,0.0,0.0,0.0,0.0,0.0,0.0,0.0,0.0,0.0,0.0,0.0,0.0,0.0,0.0,0.0,0.0,0.0,0.0,0.0,0.0,0.0,0.0,0.0,0.0,0.0,0.0,0.0,0.0,0.0,0.0,0.0,0.0,0.0,0.0,0.0,0.0,0.0,0.0,0.0,0.0,0.0,0.0,0.0,0.0,0.0,0.0,0.0,0.0,0.0,0.0,0.0,0.0,0.0,0.0,0.0,0.0,0.0,0.0,0.0,0.0,0.0,0.0,0.0,-3.1951,-3.2793,-3.2793,-3.3156,-3.3522,-3.0025,-2.9062,-2.9774,0.0,0.0,0.0,0.0,0.0,0.0,0.0,0.0,0.0,0.0,0.0,0.0,0.0,0.0,0.0,0.0,0.0,0.0,0.0,0.0,-1.4621,-1.6176,-1.6754,-1.7273,-1.7868,-1.7945,-1.7819,-1.7499,-1.7288,-1.7172,-1.7201,-1.7416,-1.7529,-1.7543,-1.822,-1.893,-1.9657,-2.1553,-2.3515,-2.5456,-2.5456,-2.5645,-2.5866,-2.2688,-2.1615,-2.2044,0.0,0.0,0.0,0.0,0.0,0.0,0.0,0.0,0.0,0.0,0.0,0.0,0.0,0.0,0.0,0.0,0.0,0.0,0.0,0.0,0.0,0.0,0.0,0.0,0.0,0.0,0.0,0.0,0.0,0.0,0.0,0.0,0.0,0.0,0.0,0.0,0.0,0.0,0.0,0.0,0.0,-2.1391,-2.2732,0.0,0.0,0.0,0.0,0.0,0.0,0.0,0.0,0.0,0.0,0.0,0.0,0.0,0.0,-3.2137,-3.3295,-3.3935,-3.4097,-3.5248,-3.5601,-3.5248,-3.5248,-3.5574,-3.6103,-3.5547,0.0,-3.1784,-3.0839,0.0,0.0,0.0,0.0,0.0,0.0,0.0,0.0,0.0,0.0,0.0,0.0,0.0,0.0,0.0,0.0,0.0,0.0,0.0,0.0,0.0,-1.7762,-1.8725,-1.8824,-1.9291,-1.9371,-1.8886,-1.8585,-1.8315,-1.8092,-1.8193,-1.8252,-1.8252,-1.9341,-2.1,-2.3291,-2.4982,-2.6672,-2.8347,-2.8347,-2.8726,-2.9327,-2.7383,-2.5598,-2.391,-2.1505,0.0,0.0,0.0,0.0,0.0,0.0,0.0,0.0,0.0,0.0,0.0,0.0,0.0,0.0,0.0,0.0,0.0,0.0,0.0,0.0,0.0,0.0,0.0,0.0,0.0,0.0,0.0,0.0,0.0,0.0,0.0,0.0,0.0,0.0,0.0,0.0,0.0,0.0,0.0,-2.0763,-2.2742,-2.3729,-2.4103,-2.3979,0.0,0.0,0.0,0.0,0.0,0.0,0.0,0.0,0.0,-3.1522,-3.3091,-3.4434,-3.556,-3.6754,-3.7514,-3.7853,-3.8369,-3.8667,-3.8705,-3.8705,-3.8898,-3.9142,-3.9142,-3.8016,-3.6035,-3.4082,-3.2277,-3.0602,0.0,0.0,0.0,0.0,0.0,-2.9034,0.0,0.0,0.0,0.0,0.0,0.0,0.0,0.0,0.0,0.0,0.0,0.0,-1.7159,-1.9061,-2.0201,-2.0031,-2.0764,-2.0955,-2.0357,-1.9687,-1.9262,-1.9138,-1.9042,-1.8977,-1.8977,-2.0873,-2.3401,-2.6546,-2.7936,-2.9366,-3.0742,-3.0742,-3.1081,-3.1713,-3.1042,-2.9192,-2.644,-2.4176,-2.2517,-2.1172,0.0,0.0,0.0,0.0,0.0,0.0,0.0,0.0,0.0,0.0,0.0,0.0,0.0,0.0,0.0,0.0,0.0,0.0,0.0,0.0,0.0,0.0,0.0,0.0,0.0,0.0,0.0,0.0,0.0,0.0,0.0,0.0,0.0,0.0,0.0,0.0,0.0,-2.2446,-2.4076,-2.5128,-2.6054,-2.6235,0.0,0.0,0.0,0.0,0.0,0.0,-3.0975,-3.2223,-3.3634,-3.5222,-3.6741,-3.7813,-3.8407,-3.9332,-3.9983,-4.0431,-4.0431,-4.0675,-4.1123,-4.1123,-4.1123,-4.1123,-4.1123,-4.0608,-3.9563,-3.6863,-3.5045,-3.3862,-3.2345,-3.1775,-3.1816,-3.2264,-3.2426,-3.2616,0.0,0.0,0.0,0.0,0.0,0.0,0.0,0.0,0.0,0.0,0.0,-1.6774,-1.9765,-2.0661,-2.1137,-2.1391,-2.2014,-2.2129,-2.1451,-2.0091,-1.96,-2.027,-1.9955,-1.9736,-1.9736,-2.3056,-2.5839,-2.7984,-2.9413,-3.0821,-3.2181,-3.2181,-3.256,-3.3166,-3.2497,-3.1722,-3.0693,-2.8,-2.6404,-2.5456,-2.2657,0.0,0.0,0.0,0.0,0.0,0.0,0.0,0.0,0.0,0.0,0.0,0.0,0.0,0.0,0.0,0.0,0.0,0.0,0.0,0.0,0.0,0.0,0.0,0.0,0.0,0.0,0.0,0.0,0.0,0.0,0.0,0.0,0.0,0.0,0.0,0.0,0.0,0.0,-2.8153,-2.8918,0.0,0.0,0.0,0.0,-3.0839,-3.211,-3.3563,-3.5303,-3.651,-3.7729,-3.8993,-3.9671,-4.0309,-4.0887,-4.1001,-4.1042,-4.1069,-4.1069,-4.1096,-4.1123,-4.1123,-4.1123,-4.1123,-4.1123,-4.1082,-4.0879,-3.9007,-3.7514,-3.6361,-3.5696,-3.5452,-3.5452,-3.5479,-3.5493,-3.5506,0.0,0.0,0.0,-1.263,-1.2559,-1.2483,-1.2333,-1.3344,-1.4241,-1.4529,-1.6553,-1.8275,-1.9047,-2.1199,-2.2461,-2.2159,-2.2901,-2.3127,-2.243,-2.1504,-2.1375,-2.2294,-2.1996,-2.2643,-2.446,-2.6156,-2.8,-3.0101,-3.1074,-3.2038,-3.2929,-3.2929,-3.3293,-3.3909,-3.323,-3.304,-3.2977,-2.9746,-2.7725,-2.6514,-2.4109,-2.2041,0.0,0.0,0.0,0.0,0.0,0.0,0.0,0.0,0.0,0.0,0.0,0.0,0.0,0.0,0.0,0.0,0.0,0.0,0.0,0.0,0.0,0.0,0.0,0.0,0.0,0.0,0.0,0.0,0.0,0.0,0.0,0.0,0.0,0.0,0.0,0.0,0.0,-3.067,-3.1762,0.0,-3.2024,-3.2349,-3.3037,-3.4054,-3.5262,-3.6551,-3.7948,-3.879,-3.9617,-4.0445,-4.1042,-4.1462,-4.1693,-4.2059,-4.2263,-4.2263,-4.2263,-4.2263,-4.2263,-4.2263,-4.2263,-4.2263,-4.2263,-4.2046,-4.1639,-4.0987,-4.0011,-3.8844,-3.826,-3.7786,-3.7406,-3.6984,-3.6848,-3.6848,-1.2933,-1.285,0.0,-1.262,-1.2536,-1.2528,-1.2614,-1.3678,-1.4619,-1.5064,-1.7395,-1.9197,-1.9633,-2.2019,-2.3402,-2.2863,-2.3694,-2.4003,-2.3324,-2.2622,-2.2636,-2.3534,-2.3592,-2.4812,-2.7383,-2.8331,-2.9706,-3.1571,-3.2307,-3.2987,-3.364,-3.364,-3.4004,-3.4636,-3.4209,-3.4257,-3.451,-3.2218,-3.0156,-2.8316,-2.6182,-2.465,-2.3401,0.0,0.0,0.0,0.0,0.0,0.0,0.0,0.0,0.0,0.0,0.0,0.0,0.0,0.0,0.0,0.0,0.0,0.0,0.0,0.0,0.0,0.0,0.0,0.0,0.0,0.0,0.0,0.0,0.0,0.0,0.0,0.0,0.0,0.0,0.0,-3.054,-3.2585,-3.4,-3.4802,-3.4802,-3.5358,-3.6117,-3.7148,-3.7975,-3.8952,-4.0146,-4.058,-4.1082,-4.1693,-4.21,-4.2304,-4.2304,-4.2697,-4.2887,-4.2887,-4.2887,-4.2887,-4.2887,-4.2887,-4.2887,-4.2887,-4.2887,-4.2656,-4.2304,-4.2304,-4.1829,-4.1015,-4.0228,-3.9671,-3.9234,-3.8841,-3.857,-3.8396,-1.2933,-1.285,-1.2757,-1.262,-1.2536,-1.2736,-1.3399,-1.3898,-1.4933,-1.7003,-1.801,-1.943,-2.1732,-2.3183,-2.3846,-2.3471,-2.4369,-2.4701,-2.4067,-2.3312,-2.3212,-2.392,-2.4732,-2.6124,-2.8173,-2.9587,-3.0979,-3.2355,-3.3024,-3.3704,-3.432,-3.432,-3.4715,-3.5426,-3.5394,-3.5394,-3.5426,-3.5394,-3.383,-3.1135,-2.9058,-2.7794,-2.6862,0.0,0.0,0.0,0.0,0.0,0.0,0.0,0.0,0.0,0.0,0.0,0.0,0.0,0.0,0.0,0.0,0.0,0.0,0.0,0.0,0.0,0.0,0.0,0.0,0.0,0.0,0.0,0.0,0.0,0.0,0.0,0.0,0.0,-2.9488,-3.1145,-3.2725,-3.3959,-3.5628,-3.6687,-3.6714,-3.7284,-3.8369,-4.0106,-4.0241,-4.077,-4.1964,-4.2032,-4.2304,-4.2873,-4.2887,-4.2887,-4.2887,-4.2887,-4.2887,-4.2887,-4.2887,-4.2887,-4.2887,-4.2887,-4.2887,-4.2887,-4.2887,-4.2887,-4.2887,-4.2887,-4.2887,-4.2765,-4.1598,-4.115,-4.115,-4.1123,-4.073,-4.0133,-1.2933,-1.285,-1.2757,-1.262,-1.2536,-1.2736,-1.3399,-1.3898,-1.4776,-1.6365,-1.8324,-2.0007,-2.1147,-2.3092,-2.4265,-2.4202,-2.4429,-2.4505,-2.4364,-2.3212,-2.3408,-2.5341,-2.7557,-2.9524,-3.1105,-3.1997,-3.2866,-3.3762,-3.4462,-3.4905,-3.5094,-3.5094,-3.5473,-3.6093,-3.5616,-3.5679,-3.6105,-3.5616,-3.4936,-3.4051,-3.1991,-3.0101,-2.8356,0.0,0.0,0.0,0.0,0.0,0.0,0.0,0.0,0.0,0.0,0.0,0.0,0.0,0.0,0.0,0.0,0.0,0.0,0.0,0.0,0.0,0.0,0.0,0.0,0.0,0.0,0.0,0.0,0.0,0.0,0.0,0.0,-3.0608,-3.0771,-3.2698,-3.4719,-3.632,-3.7745,-3.8722,-3.9156,-3.9766,-4.0513,-4.1435,-4.1503,-4.1842,-4.2602,-4.2643,-4.2724,-4.2873,-4.2887,-4.2887,-4.2887,-4.2887,-4.2887,-4.2887,-4.2887,-4.2887,-4.2887,-4.2887,-4.2887,-4.2887,-4.2887,-4.2887,-4.2887,-4.2887,-4.2887,-4.2806,-4.2059,-4.1761,-4.1707,-4.1272,-4.1015,-4.077,-1.3004,-1.2906,-1.2813,-1.2703,-1.2614,-1.2865,-1.3821,-1.4031,-1.4763,-1.672,-1.8653,-2.0249,-2.1303,-2.295,-2.4009,-2.4039,-2.4122,-2.4034,-2.3652,-2.3791,-2.4923,-2.7204,-2.9437,-3.127,-3.2703,-3.3372,-3.4051,-3.4747,-3.5189,-3.5537,-3.5821,-3.5821,-3.62,-3.6848,-3.6437,-3.6485,-3.6848,-3.6437,-3.609,-3.571,-3.4494,-3.2914,-3.1081,-2.9121,-2.8126,-2.751,-2.5729,-2.495,-2.4646,-2.3875,0.0,0.0,0.0,0.0,0.0,0.0,0.0,0.0,0.0,0.0,0.0,0.0,0.0,0.0,0.0,0.0,0.0,0.0,0.0,0.0,0.0,0.0,0.0,0.0,-3.1422,-3.3322,-3.3837,-3.5046,-3.6496,-3.8084,-3.9102,-4.0011,-4.0865,-4.1272,-4.1734,-4.2331,-4.2371,-4.2521,-4.2873,-4.2887,-4.2887,-4.2887,-4.2887,-4.2887,-4.2887,-4.2887,-4.2887,-4.2887,-4.2887,-4.2887,-4.2887,-4.2887,-4.2887,0.0,-4.2887,-4.2887,-4.2887,-4.2887,-4.2887,0.0,0.0,0.0,0.0,0.0,-4.1489,-4.1408,-1.3093,-1.2979,-1.2871,-1.2804,-1.2693,-1.3057,-1.4402,-1.4211,-1.4909,-1.7638,-1.8927,-2.0192,-2.1805,-2.2767,-2.3336,-2.3452,-2.3697,-2.3516,-2.2735,-2.4916,-2.7077,-2.9019,-3.0519,-3.1981,-3.3388,-3.4067,-3.4778,-3.5505,-3.5584,-3.5932,-3.6519,-3.6519,-3.688,-3.751,-3.751,-3.751,-3.751,-3.751,-3.7117,-3.6503,-3.6424,-3.5568,-3.402,-3.1516,-3.0504,-3.0251,-2.8821,-2.7573,-2.6562,-2.6404,0.0,0.0,0.0,0.0,0.0,0.0,0.0,0.0,0.0,0.0,0.0,0.0,0.0,0.0,0.0,0.0,0.0,0.0,0.0,0.0,0.0,0.0,0.0,0.0,-3.4027,-3.6306,-3.7512,-3.7743,-3.822,-3.9278,-3.9983,-4.0811,-4.1896,-4.2059,-4.2317,-4.2846,-4.2887,-4.2887,-4.2887,0.0,0.0,0.0,0.0,-4.2887,-4.2887,-4.2887,-4.2887,-4.2887,-4.2887,-4.2887,-4.2887,-4.2887,-4.2887,-4.2887,-4.2887,-4.2887,-4.2887,-4.2887,-4.2887,-4.2887,-4.2887,-4.2887,-4.2833,-4.2304,-4.21,0.0,-1.3093,-1.2979,-1.2871,-1.2804,-1.2693,-1.3057,-1.4402,-1.4331,-1.5193,-1.8169,-1.9059,-2.0065,-2.1741,-2.231,-2.2913,-2.3727,-2.3604,-2.3772,-2.4461,-2.6509,-2.811,-2.9067,-3.1018,-3.2734,-3.4067,-3.481,-3.5521,-3.6203,-3.6785,-3.7178,-3.7304,-3.7304,-3.7368,-3.751,-3.751,-3.751,-3.751,-3.751,-3.7431,-3.7227,-3.6658,-3.5568,-3.4178,-3.3103,-3.2345,-3.1706,-3.0299,-2.9959,-3.0014,-2.8877,-2.7946,-2.7162,-2.6498,-2.4918,0.0,0.0,0.0,0.0,0.0,0.0,0.0,0.0,0.0,0.0,0.0,0.0,0.0,0.0,0.0,0.0,0.0,0.0,0.0,-3.3189,-3.5507,-3.7553,-3.879,-3.9373,-3.9753,-3.9983,-4.0987,-4.1747,-4.1978,-4.2439,-4.2765,-4.2873,-4.2887,-4.2887,-4.2887,-4.2887,0.0,-4.2887,-4.2887,-4.2887,-4.2887,-4.2887,-4.2887,-4.2887,0.0,0.0,-4.2887,-4.2887,-4.2887,-4.2887,-4.2887,-4.2887,-4.2887,-4.2887,-4.2887,-4.2887,-4.2887,-4.2887,-4.2873,-4.2765,-4.2724,-4.2629,-1.3093,-1.3057,-1.2968,-1.2813,-1.3019,-1.3513,-1.4449,-1.4678,-1.5648,-1.8171,-1.903,-1.9963,-2.1487,-2.1938,-2.2352,-2.2862,-2.3048,-2.399,-2.5914,-2.7652,-2.9232,-3.0638,-3.2386,-3.3794,-3.4826,-3.5537,-3.6263,-3.6959,-3.7306,-3.751,-3.751,-3.751,-3.751,-3.751,-3.751,-3.751,-3.751,-3.751,-3.751,-3.7478,-3.7085,-3.6105,-3.4762,-3.4067,-3.3372,-3.2718,-3.1997,-3.1507,-3.1135,-3.0812,-3.0006,-2.9027,-2.8309,-2.7125,-2.5641,0.0,0.0,0.0,0.0,0.0,0.0,0.0,0.0,0.0,0.0,0.0,0.0,0.0,0.0,-2.9333,-3.0228,0.0,-3.4339,-3.5507,-3.7201,-3.8735,-3.9617,-4.0526,-4.1096,-4.1096,-4.1625,-4.2127,-4.2412,-4.2711,-4.2887,-4.2887,-4.2887,-4.2887,-4.2887,-4.2887,-4.3023,-4.3321,-4.3335,-4.3484,-4.3796,-4.3796,-4.3633,-4.3335,-4.3335,-4.3172,-4.2887,-4.2887,-4.2887,-4.2887,-4.2887,-4.2887,-4.2887,-4.2887,-4.2887,-4.2887,-4.2887,-4.2887,-4.2887,-4.2887,-4.2887,-4.2846,-1.3093,-1.3093,-1.3048,-1.2841,-1.3365,-1.3999,-1.4531,-1.5036,-1.6031,-1.7942,-1.8703,-1.9528,-2.0741,-2.1134,-2.1379,-2.1663,-2.2693,-2.44,-2.6941,-2.8483,-3.0212,-3.2212,-3.3477,-3.451,-3.5379,-3.5932,-3.6643,-3.751,-3.751,-3.751,-3.751,-3.751,-3.751,-3.751,-3.751,-3.751,-3.751,-3.751,-3.751,-3.751,-3.751,-3.6672,-3.5331,-3.4731,-3.4004,-3.3293,-3.3151,-3.2282,-3.1286,-3.1754,-3.1042,-2.988,-2.9288,-2.8647,-2.7709,-2.5707,-2.4966,0.0,0.0,0.0,0.0,0.0,0.0,0.0,0.0,0.0,-2.8669,-2.9015,-3.073,-3.2481,-3.359,-3.5113,-3.6605,-3.7648,-3.8776,-3.9726,-4.0445,-4.1286,-4.1869,-4.1991,-4.21,-4.2371,-4.2833,-4.2887,-4.2887,-4.2887,-4.2887,-4.2887,-4.2887,-4.2995,-4.328,-4.3805,-4.3891,-4.4189,-4.4705,-4.4705,-4.4461,-4.3945,-4.3886,-4.3525,-4.305,-4.2941,-4.2887,-4.2887,-4.2887,-4.2887,-4.2887,-4.2887,-4.2887,-4.2887,-4.2887,-4.2887,-4.2887,-4.2887,-4.2887,-4.2887,-1.3093,-1.3093,-1.3066,-1.2898,-1.3388,-1.4004,-1.4594,-1.5189,-1.6107,-1.7578,-1.7846,-1.8176,-1.8932,-1.9041,-1.9562,-2.081,-2.3278,-2.5428,-2.7004,-2.8963,-3.0742,-3.2228,-3.2993,-3.4036,-3.5363,-3.5458,-3.6153,-3.751,-3.751,-3.751,-3.751,-3.751,-3.751,-3.751,-3.751,-3.751,-3.751,-3.751,-3.751,-3.751,-3.751,-3.6672,-3.5379,-3.53,-3.4446,-3.323,-3.2639,-3.1887,-3.1103,-3.0615,-2.9896,-2.9209,-2.913,-2.8647,-2.7898,-2.6932,-2.5764,-2.5046,-2.6104,-2.698,-2.7796,-2.8782,-2.8151,-2.8342,0.0,0.0,-3.1515,-3.3593,-3.4665,-3.5425,-3.6076,-3.7243,-3.8328,-3.8993,-3.9658,-4.0485,-4.1639,-4.1462,-4.1408,-4.1951,-4.2466,-4.2819,-4.2873,-4.2887,-4.2887,-4.2887,-4.2887,-4.2887,-4.2887,-4.3389,-4.375,-4.3818,-4.4312,-4.4637,-4.4705,-4.4705,-4.4678,-4.4596,-4.404,-4.3777,-4.371,-4.3118,-4.2887,-4.2887,-4.2887,-4.2887,-4.2887,-4.2887,-4.2887,-4.2887,-4.2887,-4.2887,-4.2887,-4.2887,-4.2887,-4.2887,-1.3093,-1.3093,-1.3216,-1.3583,-1.4098,-1.4637,-1.5243,-1.5812,-1.6546,-1.7573,-1.7699,-1.7967,-1.8629,-1.9073,-1.9736,-2.0699,-2.2975,-2.4966,-2.6372,-2.8805,-3.0837,-3.2228,-3.3335,-3.4352,-3.5363,-3.5789,-3.6485,-3.751,-3.751,-3.751,-3.751,-3.751,-3.751,-3.751,-3.751,-3.751,-3.751,-3.751,-3.751,-3.751,-3.751,-3.6672,-3.5347,-3.4905,-3.364,-3.2045,-3.176,-3.0939,0.0,-2.9635,-2.9351,-2.9035,-2.8647,-2.86,-2.8467,-2.7252,-2.7334,-2.8256,-3.0242,-3.0391,-3.0328,-3.1792,-3.2035,-3.2321,-3.3712,-3.401,-3.4134,-3.4702,-3.5832,-3.6808,-3.7065,-3.8125,-3.9129,0.0,-4.0323,-4.1028,-4.1883,-4.1788,-4.1734,-4.1978,-4.2222,-4.2371,-4.2371,-4.2683,-4.2887,-4.2887,-4.2887,-4.3036,-4.3389,-4.3682,-4.4094,-4.4814,-4.5085,-4.5383,-4.5723,-4.5736,-4.556,-4.5221,-4.4963,-4.4651,-4.4298,-4.3687,-4.3213,-4.2887,-4.2887,-4.2887,-4.2887,-4.2887,-4.2887,-4.2887,-4.2887,-4.2887,-4.2887,-4.2887,-4.2887,-4.2887,-1.3093,-1.3258,-1.3639,-1.4377,-1.4922,-1.5382,-1.5779,-1.632,-1.6839,-1.7336,-1.7559,-1.7967,-1.8629,-1.9372,-2.0004,-2.0478,-2.2422,-2.4223,-2.5629,-2.818,-3.033,-3.1943,-3.3129,-3.4162,-3.5063,-3.5584,-3.6279,-3.7196,-3.7196,-3.7291,-3.751,-3.751,-3.751,-3.751,-3.751,-3.751,-3.751,-3.751,-3.737,-3.7196,-3.7196,-3.6342,-3.5015,-3.4288,-3.2724,-3.0875,-3.0496,-2.943,-2.8214,-2.8025,-2.7984,-2.7921,-2.762,-2.8,-2.8428,-2.7913,-2.936,-3.142,-3.2828,-3.2824,-3.2763,-3.3981,-3.4706,-3.4937,-3.4358,-3.5065,-3.5753,-3.5355,-3.632,-3.7282,-3.7458,-3.8369,-3.9305,-4.0051,-4.0716,-4.1381,-4.2141,-4.1964,-4.1761,-4.1761,-4.1761,-4.1761,-4.1761,-4.2439,-4.2887,-4.2887,-4.2887,-4.3145,-4.3791,-4.3945,-4.4515,-4.556,-4.575,-4.6048,-4.6469,-4.6469,-4.6252,-4.5831,-4.5668,-4.537,-4.4922,-4.4135,-4.3538,-4.3118,-4.2955,-4.2887,-4.2887,-4.2887,-4.2887,-4.2887,-4.2887,-4.2887,-4.2887,-4.2887,-4.2887,-4.2887,-1.3093,-1.3672,-1.441,-1.5143,-1.5764,-1.6121,-1.601,-1.6445,-1.6766,-1.6654,-1.7273,-1.7967,-1.8629,-1.9372,-1.9799,-1.983,-2.1726,-2.3531,-2.4938,-2.701,-2.9074,-3.116,-3.1975,-3.2987,-3.4288,-3.4336,-3.5047,-3.6424,-3.6424,-3.6801,-3.751,-3.751,-3.751,-3.751,-3.751,-3.751,-3.751,-3.751,-3.7085,-3.6424,-3.6424,-3.56,-3.4257,-3.3593,-3.2029,-3.0062,-2.8679,-2.7288,-2.5993,-2.5333,-2.5112,-2.5223,-2.5866,-2.6577,-2.7535,-2.9352,-3.1824,-3.3693,-3.25,-3.3332,-3.4596,-3.4499,-3.4641,-3.4813,-3.4774,-3.5248,-3.5859,-3.6429,-3.6592,-3.6822,-3.7377,-3.7987,-3.883,-3.9997,-4.0716,-4.153,-4.2697,-4.1869,-4.115,-4.115,-4.115,-4.115,0.0,-4.2195,-4.2887,-4.2887,-4.2887,-4.3145,-4.3791,-4.4352,-4.4963,-4.5573,-4.6143,-4.6455,-4.6469,-4.6469,-4.6469,-4.6442,-4.5858,-4.5573,-4.5519,-4.4312,-4.3805,-4.3764,-4.3131,-4.2887,-4.2887,-4.2887,-4.2887,-4.2887,-4.2887,-4.2887,-4.2887,-4.2887,-4.2887,-4.2887,-1.3738,-1.4036,-1.4592,-1.5823,-1.6205,-1.6405,-1.6638,-1.6747,-1.6776,-1.6738,-1.7296,0.0,0.0,0.0,0.0,0.0,-2.1537,-2.2629,-2.3546,-2.6009,-2.7952,-2.909,-3.0701,-3.2218,-3.3609,-3.364,-3.4336,-3.5742,-3.5742,-3.5853,-3.6118,-3.6118,-3.6118,-3.6118,-3.6118,-3.6118,-3.6118,-3.6118,-3.6216,-3.6314,-3.5394,-3.4715,-3.4162,-3.3066,-3.0789,-2.8015,0.0,-2.6119,-2.5159,-2.3989,-2.4226,-2.4954,-2.4697,-2.5735,-2.7683,-3.0677,-3.2499,-3.3748,-3.4636,-3.5495,-3.5922,-3.5309,-3.5348,-3.5496,-3.5396,-3.5788,-3.6004,-3.5506,-3.5952,-3.6305,-3.5818,-3.6551,-3.7731,-3.9332,-4.0106,-4.1055,-4.2656,-4.2209,-4.1707,-4.1707,-4.1707,0.0,0.0,0.0,0.0,-4.2887,-4.2887,-4.3335,-4.4339,-4.4596,-4.5153,-4.6143,-4.636,-4.6469,-4.6469,-4.6469,-4.6469,-4.6469,-4.6265,-4.5967,-4.556,-4.4759,-4.4162,-4.3791,-4.3145,-4.2887,-4.2887,-4.2887,-4.2887,-4.2887,-4.2887,-4.2887,-4.2887,-4.2887,-4.2887,-4.2887,-1.4119,-1.4616,-1.5298,-1.6238,-1.6619,0.0,0.0,0.0,0.0,0.0,0.0,0.0,0.0,0.0,0.0,0.0,0.0,-2.1807,-2.2503,-2.446,-2.6119,-2.7304,-2.8632,-3.0006,-3.1413,-3.1207,-3.1887,-3.3556,-3.3556,-3.3909,-3.4636,-3.4636,-3.4636,-3.4636,-3.4636,-3.4636,-3.4636,-3.4636,-3.4762,-3.4841,-3.3656,-3.304,-3.2703,-3.1327,-2.909,0.0,-2.5614,-2.4808,-2.4021,-2.2629,-2.3246,-2.4574,-2.4349,-2.6609,-2.9706,-3.1706,-3.3493,-3.509,-3.6438,-3.7035,-3.7178,-3.6696,-3.649,-3.635,-3.6189,-3.6079,-3.5857,-3.5184,-3.5231,-3.5187,-3.4582,-3.514,-3.6334,-3.8342,-3.9346,-4.0499,-4.2317,-4.2236,-4.2005,-4.2005,-4.2005,-4.2005,0.0,0.0,0.0,-4.2887,-4.309,-4.3633,-4.4651,-4.4908,-4.5478,-4.6442,-4.6469,-4.6469,-4.6469,-4.6469,-4.6469,-4.6469,-4.6469,-4.6279,-4.5872,-4.5071,-4.4488,-4.4067,-4.324,-4.2887,-4.2887,-4.2887,-4.2887,-4.2887,-4.2887,-4.2887,-4.2887,-4.2887,-4.2887,-4.2887,-1.4251,-1.5414,-1.642,0.0,0.0,0.0,0.0,0.0,0.0,0.0,0.0,0.0,0.0,0.0,0.0,0.0,0.0,0.0,-2.179,-2.2519,-2.3784,-2.5756,-2.5914,-2.6593,-2.7952,-2.7367,-2.8047,-3.0093,-3.0093,-3.1112,-3.3087,-3.3087,-3.3087,-3.3087,-3.3087,-3.3087,-3.3087,-3.3087,-3.2708,-3.207,-3.1302,-3.0638,-2.9951,-2.8568,-2.7162,-2.5787,-2.4472,-2.3528,-2.2708,-2.1412,-2.239,-2.4299,-2.508,-2.8948,-3.3124,-3.2603,-3.4845,-3.7536,-3.7716,-3.8038,-3.8368,-3.848,-3.7898,-3.7243,-3.7013,-3.6178,-3.5449,-3.5363,-3.4436,-3.3624,-3.3655,0.0,-3.4706,-3.697,-3.8464,-3.9929,-4.1747,-4.2032,-4.2059,0.0,0.0,0.0,0.0,0.0,0.0,-4.2928,0.0,-4.404,-4.4678,-4.5261,-4.5858,-4.6455,-4.6469,-4.6469,-4.6469,-4.6469,-4.6469,-4.6469,-4.6469,-4.6469,-4.6428,-4.5248,-4.4705,-4.4637,-4.3416,-4.2887,-4.2887,-4.2887,-4.2887,-4.2887,-4.2887,-4.2887,-4.2887,-4.2887,-4.2887,-4.2887,0.0,0.0,0.0,0.0,0.0,0.0,0.0,0.0,0.0,0.0,0.0,0.0,0.0,0.0,0.0,0.0,0.0,0.0,-2.1063,-2.2234,-2.3135,-2.3673,-2.4701,-2.5665,-2.6514,-2.6372,-2.7051,-2.8654,-2.8654,-2.9169,-3.0172,-3.0172,-3.0172,-3.0172,-3.0172,-3.0172,-3.0172,-3.0172,-3.0061,-2.9809,-2.8632,-2.8347,-2.8537,-2.7683,-2.6467,-2.527,-2.5408,-2.4349,-2.293,-2.307,-2.5183,0.0,0.0,-3.0707,-3.2326,-3.4219,-3.613,-3.7792,-3.848,-3.9559,-4.0196,-3.8895,-3.8175,-3.7506,-3.6466,-3.6292,-3.5732,-3.3584,-3.3445,-3.3037,-3.0683,-3.2146,0.0,-3.5276,-3.765,0.0,-4.1747,-4.2385,0.0,-4.2656,0.0,-4.2656,-4.2656,-4.2806,0.0,0.0,-4.3737,-4.404,-4.4678,-4.5261,-4.5858,-4.6455,-4.6469,-4.6469,-4.6469,-4.6469,-4.6469,-4.6469,-4.6469,-4.6469,-4.6428,-4.5248,-4.4705,-4.4637,-4.3416,-4.2887,-4.2887,-4.2887,-4.2887,-4.2887,-4.2887,-4.2887,-4.2887,-4.2887,-4.2887,-4.2887,0.0,0.0,0.0,0.0,0.0,0.0,0.0,0.0,0.0,0.0,0.0,0.0,0.0,0.0,0.0,0.0,0.0,0.0,0.0,-2.1554,-2.2123,-2.2455,-2.2914,-2.3483,-2.4191,-2.4176,-2.4713,-2.5824,-2.6103,-2.6609,-2.7304,-2.7304,-2.7304,-2.7304,-2.7304,-2.7304,-2.7304,-2.7304,-2.7304,0.0,0.0,-2.6103,-2.663,-2.5629,-2.478,-2.4132,-2.4492,-2.5061,-2.5772,0.0,0.0,-3.0796,-3.2519,-3.3588,-3.4572,-3.6345,0.0,-3.9098,-3.9299,-4.0664,-4.1504,-3.9392,-3.8514,-3.7756,-3.6105,-3.5353,-3.4277,-3.1782,-3.1517,-3.103,-2.8775,-3.0488,0.0,0.0,0.0,0.0,-4.1297,-4.2324,-4.2984,0.0,-4.3032,0.0,-4.2887,-4.3118,-4.3416,0.0,-4.4027,-4.4447,-4.5058,-4.5655,-4.613,-4.6469,-4.6469,-4.6469,-4.6469,-4.6469,-4.6469,-4.6469,-4.6469,-4.6469,-4.6428,-4.5248,-4.4705,-4.4637,0.0,-4.2887,-4.2887,-4.2887,-4.2887,-4.2887,-4.2887,-4.2887,-4.2887,-4.2887,-4.2887,-4.2887,0.0,0.0,0.0,0.0,0.0,0.0,0.0,0.0,0.0,-1.9418,-1.9149,-1.9447,0.0,0.0,0.0,0.0,0.0,0.0,0.0,0.0,-2.1079,-2.1726,-2.1142,-2.1094,-2.1726,-2.1693,-2.2025,-2.2772,-2.3354,-2.4002,-2.4717,-2.4717,-2.4717,-2.4717,-2.4717,-2.4717,-2.4717,-2.4717,-2.4673,-2.4543,-2.3986,-2.4144,-2.461,0.0,-2.3088,-2.3183,-2.3183,-2.5614,-2.9082,-3.0661,-3.1934,-3.3177,-3.5063,-3.6604,-3.7793,-3.8372,-3.9634,-4.0697,-4.0026,-4.1353,-4.2325,-3.9934,-3.9015,-3.8074,-3.5801,-3.3969,-3.2164,-3.0125,-2.9298,-2.8581,-2.7423,-2.8965,-3.0904,-3.2294,0.0,-3.8696,-4.0827,-4.2062,-4.2971,-4.3539,-4.3197,-4.2887,-4.2887,-4.343,-4.381,-4.3891,-4.4474,-4.5044,-4.556,-4.6143,-4.6469,-4.6469,-4.6469,-4.6469,-4.6469,-4.6469,-4.6469,-4.6469,-4.6469,-4.6428,-4.6319,-4.5207,-4.4664,-4.4515,0.0,0.0,-4.2887,-4.2887,-4.2887,-4.2887,-4.2887,-4.2887,-4.2887,-4.2887,-4.2887,-4.2887,0.0,0.0,0.0,0.0,0.0,0.0,0.0,-1.8257,-1.9028,-2.0932,-2.0463,-2.0173,-2.0781,-2.0827,0.0,0.0,0.0,0.0,0.0,0.0,0.0,-2.1,-2.0857,-2.0857,-2.0984,-2.0984,-2.1331,-2.2058,-2.2185,-2.2613,-2.3262,-2.3262,-2.3262,-2.3262,-2.3262,-2.3262,-2.3262,-2.3262,-2.2946,-2.2469,-2.2896,-2.3151,-2.3293,-2.3607,0.0,0.0,-2.4657,-2.5855,-2.7841,-3.0346,-3.3188,-3.5868,-3.6817,-3.7386,-3.7853,-3.8601,-3.9841,-4.0819,-4.0227,-4.1484,-4.2491,-4.0446,-3.9528,-3.8315,-3.525,-3.3521,0.0,0.0,-2.8018,-2.7502,-2.6017,-2.811,-3.064,-3.2323,-3.5214,-3.8282,-4.1252,-4.1967,-4.2522,0.0,-4.3197,-4.2887,-4.2887,-4.343,0.0,0.0,0.0,0.0,-4.5573,-4.6143,-4.6469,-4.6469,-4.6469,-4.6469,-4.6469,-4.6469,-4.6469,-4.6469,-4.6469,-4.6225,-4.5723,-4.5017,-4.442,-4.394,0.0,0.0,-4.2887,-4.2887,-4.2887,-4.2887,-4.2887,-4.2887,-4.2887,-4.2887,-4.2887,-4.2887,0.0,0.0,0.0,0.0,0.0,0.0,0.0,-1.9306,-2.0181,-2.1947,-2.2083,-2.1924,-2.1664,-2.123,-2.0909,0.0,0.0,0.0,0.0,0.0,0.0,0.0,-2.0794,-2.0794,-2.0794,0.0,0.0,0.0,0.0,0.0,0.0,0.0,0.0,0.0,0.0,0.0,-2.1823,-2.1823,-2.1616,-2.1379,-2.2058,-2.2548,0.0,0.0,0.0,0.0,0.0,-2.614,-2.7873,-2.954,-3.2177,-3.5173,-3.7338,-3.8122,-3.8364,-3.9103,-4.0328,-4.1347,-4.1115,-4.2243,-4.3024,-4.1091,-3.9662,-3.7752,-3.424,0.0,0.0,0.0,-2.6216,-2.5886,-2.4807,-2.6903,0.0,-3.097,-3.3384,-3.6473,-4.0575,-4.1068,0.0,-4.4125,-4.3709,-4.3245,0.0,0.0,0.0,0.0,0.0,0.0,-4.6007,-4.6319,-4.6469,-4.6469,-4.6469,-4.6469,-4.6469,-4.6469,-4.6319,-4.6007,-4.6007,-4.5709,-4.5112,-4.4501,-4.4054,-4.3791,0.0,0.0,-4.2887,-4.2887,-4.2887,-4.2887,-4.2887,-4.2887,-4.2887,-4.2887,-4.2887,-4.2887,0.0,0.0,0.0,0.0,0.0,0.0,-1.9366,-2.0224,-2.1255,-2.2767,-2.3441,-2.3489,-2.2768,-2.1859,-2.1214,0.0,0.0,0.0,0.0,0.0,0.0,0.0,0.0,-2.0794,0.0,0.0,0.0,0.0,0.0,0.0,0.0,0.0,0.0,0.0,0.0,0.0,0.0,0.0,-2.0794,0.0,0.0,0.0,0.0,0.0,0.0,0.0,0.0,0.0,-2.7573,-2.8546,-3.037,-3.274,-3.5947,-3.762,-3.854,-3.8963,-4.0195,-4.1335,-4.117,-4.2077,-4.2698,-4.1086,-3.9337,-3.7041,-3.3354,-3.0916,0.0,-2.5517,-2.4621,-2.4331,-2.4138,-2.585,-2.7933,0.0,-3.1834,-3.4778,-3.9613,-4.0224,-4.1339,0.0,-4.4144,0.0,0.0,0.0,0.0,0.0,0.0,0.0,0.0,-4.6225,-4.6225,-4.6102,-4.6225,-4.6225,-4.6102,-4.6089,-4.5858,-4.5397,-4.5397,-4.5085,-4.4488,-4.3999,-4.375,-4.3552,0.0,0.0,0.0,-4.2887,-4.2887,-4.2887,-4.2887,-4.2887,-4.2887,-4.2887,-4.2887,-4.2887,0.0,0.0,0.0,0.0,0.0,0.0,-1.9283,-2.0224,-2.1466,-2.3603,-2.3918,-2.3869,-2.362,-2.2701,-2.1824,0.0,0.0,0.0,0.0,0.0,0.0,0.0,0.0,0.0,0.0,0.0,0.0,0.0,0.0,0.0,0.0,0.0,0.0,0.0,0.0,0.0,0.0,0.0,0.0,0.0,0.0,0.0,0.0,0.0,0.0,0.0,0.0,0.0,0.0,0.0,0.0,-2.8948,-3.1176,-3.4514,-3.7555,-3.7269,0.0,0.0,-3.8781,-3.9445,-4.0275,-3.9566,-3.837,-3.6533,-3.3267,0.0,-2.8028,-2.5454,-2.3925,-2.3409,-2.452,-2.5415,-2.7037,-3.0306,-3.1933,-3.4398,-3.8956,-4.0139,-4.1317,-4.3301,0.0,0.0,0.0,0.0,0.0,0.0,0.0,0.0,0.0,-4.5383,-4.5424,-4.4881,-4.5397,-4.541,-4.4868,-4.4868,-4.4841,-4.4786,-4.4786,-4.4461,-4.385,-4.3845,-4.3484,-4.2968,0.0,0.0,0.0,-4.2887,-4.2887,-4.2887,-4.2887,-4.2887,-4.2887,-4.2887,-4.2887,-4.2887,0.0,0.0,0.0,0.0,0.0,0.0,-1.9926,-2.0519,-2.1497,-2.3719,-2.4398,-2.4464,-2.3935,-2.334,-2.2472,-2.1215,0.0,0.0,0.0,0.0,0.0,0.0,0.0,0.0,0.0,0.0,0.0,0.0,0.0,0.0,0.0,0.0,0.0,0.0,0.0,0.0,0.0,0.0,0.0,0.0,0.0,0.0,0.0,0.0,0.0,0.0,0.0,0.0,0.0,0.0,0.0,0.0,-2.8474,-3.0733,0.0,0.0,-3.7002,-3.8872,-3.9567,-4.0211,-4.0554,-3.9861,-3.8171,-3.5865,-3.2611,-2.9943,-2.749,-2.5328,-2.3824,-2.3186,-2.4085,-2.4471,-2.5727,-2.9059,-2.95,-3.1228,-3.6338,0.0,0.0,0.0,0.0,0.0,0.0,0.0,0.0,0.0,0.0,0.0,0.0,-4.4938,-4.5527,-4.5627,-4.55,-4.5363,-4.5116,-4.4843,-4.4515,-4.4149,-4.4149,-4.3823,-4.324,-4.324,-4.3118,-4.2887,0.0,0.0,0.0,-4.2887,-4.2887,-4.2887,-4.2887,-4.2887,-4.2887,-4.2887,-4.2887,-4.2887,0.0,0.0,0.0,0.0,0.0,-1.7569,-1.971,-2.042,-2.1348,-2.3123,-2.4183,-2.4547,-2.3968,-2.3522,-2.2767,-2.1504,-2.1167,0.0,0.0,0.0,0.0,0.0,0.0,0.0,0.0,0.0,-2.1979,-2.212,0.0,0.0,0.0,0.0,0.0,0.0,0.0,0.0,0.0,0.0,0.0,0.0,0.0,0.0,0.0,0.0,0.0,0.0,0.0,0.0,0.0,0.0,0.0,0.0,0.0,-2.7419,-2.9567,0.0,-3.511,-3.7101,-3.869,-3.9384,-3.9558,-3.9041,-3.7305,-3.4951,-3.1917,-2.9392,-2.7101,-2.5023,-2.3693,-2.3113,-2.3775,-2.4051,-2.5038,-2.7721,-2.8007,-2.9533,-3.4182,-3.5299,0.0,0.0,0.0,0.0,0.0,0.0,0.0,0.0,0.0,0.0,0.0,-4.4767,-4.5448,-4.5655,-4.5484,-4.519,-4.4849,-4.4532,-4.408,-4.356,-4.3694,-4.3511,-4.3115,-4.3115,-4.3211,0.0,0.0,0.0,0.0,-4.3259,-4.3259,-4.3115,-4.3259,-4.3321,-4.3321,-4.3321,-4.3321,-4.3321,0.0,0.0,0.0,0.0,0.0,0.0,-1.8207,-1.976,-2.0967,-2.1729,-2.3106,-2.3935,-2.3735,-2.3096,-2.2541,-2.2128,-2.129,0.0,0.0,0.0,0.0,0.0,0.0,0.0,0.0,0.0,-2.2216,-2.2882,-2.2898,-2.3228,0.0,0.0,0.0,0.0,0.0,0.0,0.0,0.0,0.0,0.0,0.0,0.0,-2.5005,0.0,0.0,0.0,0.0,0.0,0.0,0.0,0.0,0.0,0.0,-2.4864,-2.6677,-3.0428,-3.2621,-3.4045,-3.4907,-3.5722,-3.6344,-3.633,-3.5372,-3.3761,-3.1208,-2.9102,-2.697,-2.4428,-2.336,-2.3113,-2.3775,-2.4375,-2.523,-2.6591,-2.8376,-3.051,-3.3155,-3.5677,0.0,0.0,0.0,0.0,0.0,0.0,0.0,0.0,0.0,0.0,0.0,0.0,-4.4876,-4.4425,-4.4967,-4.4743,-4.3628,-4.3614,-4.3403,-4.2887,-4.3389,-4.36,-4.36,-4.36,0.0,0.0,0.0,0.0,0.0,-4.4162,-4.4054,-4.3648,-4.4162,-4.4364,-4.4364,-4.4364,-4.4364,-4.4364,0.0,0.0,0.0,0.0,0.0,0.0,-1.8257,-1.8902,-1.9449,-2.0194,-2.1135,-2.1687,-2.152,-2.1644,-2.1713,-2.1633,-2.1247,0.0,0.0,0.0,0.0,0.0,0.0,0.0,0.0,-2.1981,-2.2693,-2.2898,-2.3863,-2.4432,-2.4638,-2.3923,0.0,0.0,0.0,0.0,0.0,0.0,0.0,0.0,0.0,-2.403,-2.4255,0.0,0.0,0.0,0.0,0.0,0.0,0.0,0.0,0.0,0.0,0.0,0.0,-2.6653,-2.962,-3.233,-3.3567,-3.4031,-3.3952,-3.293,-3.1898,-3.0582,-2.8463,-2.7157,-2.5923,-2.4263,-2.336,-2.2946,-2.3186,-2.3374,-2.4505,-2.7605,-2.8607,-3.0031,0.0,0.0,0.0,0.0,0.0,0.0,0.0,0.0,0.0,0.0,0.0,0.0,0.0,0.0,-4.5216,-4.5427,-4.5232,-4.5,-4.4648,-4.4289,-4.4068,-4.394,-4.4068,-4.4162,-4.4162,-4.4162,0.0,0.0,0.0,0.0,0.0,-4.4317,-4.4317,-4.4162,-4.4317,-4.4411,-4.4411,-4.4411,-4.4411,-4.4411,0.0,0.0,0.0,0.0,0.0,0.0,-1.7541,-1.8158,-1.8671,-1.9121,-1.9829,-2.0334,-2.0455,-2.0719,-2.0986,-2.123,-2.1103,0.0,0.0,0.0,0.0,0.0,0.0,0.0,-2.0794,-2.1933,-2.2772,-2.3275,-2.4432,-2.5128,-2.5381,-2.4918,-2.4191,-2.3243,0.0,0.0,0.0,0.0,0.0,0.0,-2.3544,-2.3746,-2.3528,0.0,0.0,0.0,0.0,0.0,0.0,0.0,0.0,0.0,0.0,0.0,0.0,0.0,-2.6282,-2.8865,-3.1036,-3.1658,-3.1456,-3.0558,-2.9609,-2.8449,-2.6794,-2.5934,-2.5081,-2.3789,-2.3186,-2.2888,-2.2888,-2.3279,-2.4418,-2.6852,-2.8245,-2.99,0.0,0.0,0.0,0.0,0.0,0.0,0.0,0.0,0.0,0.0,0.0,0.0,0.0,0.0,-4.5549,-4.588,-4.5595,-4.5307,-4.5124,-4.4815,-4.4597,-4.4411,-4.4583,-4.4676,-4.4676,0.0,0.0,0.0,0.0,0.0,0.0,-4.4862,-4.4876,-4.4676,-4.4876,-4.4968,-4.4968,-4.4968,-4.4968,-4.4968,0.0,0.0,0.0,0.0,0.0,0.0,0.0,-1.7508,-1.8373,-1.8422,-1.9035,-1.9632,-2.0137,-2.0139,-2.0312,-2.0799,-2.0829,0.0,0.0,0.0,0.0,0.0,0.0,0.0,-2.0794,-2.1568,-2.258,-2.3825,-2.4669,-2.5397,-2.6009,-2.6056,-2.5313,-2.3872,-2.3243,-2.255,0.0,0.0,0.0,0.0,-2.3322,-2.3433,0.0,0.0,0.0,0.0,0.0,0.0,0.0,0.0,0.0,0.0,0.0,0.0,0.0,0.0,0.0,0.0,0.0,-2.8659,-2.888,-2.8808,-2.8125,-2.7154,-2.5865,-2.5183,0.0,-2.3186,-2.2888,-2.2931,-2.3076,-2.4041,-2.4926,-2.5299,-2.7839,0.0,0.0,0.0,0.0,0.0,0.0,0.0,0.0,0.0,0.0,0.0,0.0,0.0,0.0,0.0,0.0,-4.588,-4.588,-4.564,-4.517,-4.517,-4.4954,-4.4504,-4.4954,-4.517,-4.517,0.0,0.0,0.0,0.0,0.0,0.0,-4.57,-4.5595,-4.5216,-4.57,-4.588,-4.588,-4.588,-4.588,-4.588,0.0,0.0,0.0,0.0,0.0,0.0,0.0,0.0,0.0,0.0,-1.7901,-1.8005,-1.8031,-1.8822,-1.9364,0.0,0.0,0.0,0.0,0.0,0.0,0.0,0.0,0.0,-2.0794,-2.2028,-2.2819,-2.3151,-2.4902,-2.5851,-2.6009,-2.6577,-2.5783,-2.3888,-2.373,-2.269,0.0,0.0,0.0,0.0,-2.2785,-2.2722,0.0,0.0,0.0,0.0,-2.1916,-2.2199,0.0,0.0,0.0,0.0,0.0,0.0,0.0,0.0,-2.144,-2.1635,-2.3207,0.0,-2.5847,-2.4967,-2.4967,-2.4908,0.0,-2.3876,-2.3905,-2.3084,-2.2888,-2.336,-2.4849,-2.4994,-2.5995,-2.9406,-3.0552,-3.1859,0.0,0.0,0.0,0.0,0.0,0.0,0.0,0.0,0.0,0.0,0.0,0.0,0.0,0.0,0.0,-4.588,-4.588,-4.5835,-4.57,-4.57,-4.5654,-4.5564,-4.5654,-4.57,-4.57,0.0,0.0,0.0,0.0,0.0,-4.5745,-4.5835,-4.5835,-4.5745,-4.5835,-4.588,-4.588,-4.588,-4.588,-4.588,0.0,0.0,0.0,0.0,0.0,0.0,0.0,0.0,0.0,0.0,-1.7503,-1.7462,-1.7391,-1.8407,-1.9113,0.0,0.0,0.0,0.0,0.0,0.0,0.0,0.0,-2.0794,-2.0794,-2.1886,-2.274,-2.3354,-2.4808,-2.5866,-2.6514,-2.6577,-2.5993,-2.482,-2.3875,-2.2453,0.0,0.0,0.0,-2.1442,-2.2137,0.0,0.0,0.0,0.0,0.0,-2.1252,-2.1584,0.0,-2.2145,-2.2635,-2.2952,0.0,0.0,0.0,0.0,-2.0342,-2.01,-2.0916,-2.2918,-2.4702,-2.4387,-2.4471,-2.4564,-2.4278,-2.3809,-2.3331,-2.296,-2.3142,-2.3766,-2.5149,-2.5821,-2.7084,-2.9784,-3.1453,0.0,0.0,0.0,0.0,0.0,0.0,0.0,0.0,0.0,0.0,0.0,0.0,0.0,0.0,0.0,0.0,0.0,-4.588,-4.588,-4.588,-4.588,-4.588,-4.588,-4.588,-4.588,-4.588,0.0,0.0,0.0,0.0,0.0,-4.588,-4.588,-4.588,-4.588,-4.588,-4.588,-4.588,-4.588,-4.588,-4.588,0.0,0.0,0.0,0.0,0.0,0.0,0.0,0.0,0.0,0.0,0.0,0.0,0.0,0.0,0.0,0.0,0.0,0.0,0.0,0.0,0.0,0.0,-2.0794,-2.0842,-2.0968,-2.1679,-2.2659,-2.3904,-2.4859,-2.5934,-2.7099,-2.6672,-2.6261,-2.5756,-2.3654,-2.2013,0.0,0.0,-2.1363,-2.0842,-2.1409,0.0,0.0,0.0,0.0,0.0,0.0,0.0,0.0,-2.1644,-2.2351,-2.3037,-2.1903,0.0,0.0,0.0,0.0,0.0,-2.022,-2.2496,-2.4672,-2.4946,-2.5066,-2.5199,-2.5571,-2.436,-2.3178,-2.3192,-2.3746,-2.4471,-2.5444,-2.7012,0.0,0.0,0.0,0.0,0.0,0.0,0.0,0.0,0.0,0.0,0.0,0.0,0.0,0.0,0.0,0.0,0.0,0.0,0.0,0.0,-4.588,-4.588,-4.588,-4.588,-4.588,-4.588,-4.588,-4.588,-4.588,-4.588,0.0,0.0,0.0,0.0,-4.588,-4.588,-4.588,-4.588,-4.588,-4.588,-4.588,-4.588,-4.588,-4.588,0.0,0.0,0.0,0.0,0.0,0.0,0.0,0.0,0.0,0.0,0.0,0.0,0.0,0.0,0.0,0.0,0.0,0.0,0.0,0.0,0.0,-2.0794,-2.0794,-2.1079,-2.1711,-2.2408,-2.3117,-2.3904,-2.5835,-2.6893,-2.713,-2.8151,-2.7383,-2.5065,-2.2927,-2.152,-2.081,-2.0921,-2.0905,-2.081,0.0,0.0,0.0,0.0,0.0,0.0,0.0,0.0,0.0,-2.0441,-2.1299,-2.2243,-2.0437,0.0,0.0,0.0,0.0,0.0,-2.151,-2.3772,-2.5199,-2.3685,-2.4705,-2.5889,-2.513,-2.4723,-2.452,-2.4588,-2.5081,-2.6184,-2.8449,-2.9581,-3.0872,0.0,0.0,0.0,0.0,0.0,0.0,0.0,0.0,0.0,0.0,0.0,0.0,0.0,0.0,0.0,0.0,0.0,0.0,0.0,0.0,-4.588,-4.588,-4.588,-4.588,-4.588,-4.588,-4.588,-4.588,-4.588,-4.588,0.0,0.0,-4.588,-4.588,-4.588,-4.588,-4.588,-4.588,-4.588,-4.588,-4.588,-4.588,-4.588,0.0,0.0,0.0,0.0,0.0,0.0,0.0,0.0,0.0,0.0,0.0,0.0,0.0,0.0,0.0,0.0,0.0,0.0,0.0,0.0,-2.0968,-2.1379,-2.1379,-2.1553,-2.1884,-2.2912,-2.3781,-2.4476,-2.6246,-2.7288,-2.7636,-2.7488,-2.6151,-2.3799,-2.242,-2.1425,-2.0794,-2.0794,-2.0794,-2.0794,0.0,0.0,0.0,0.0,0.0,0.0,0.0,0.0,0.0,0.0,-2.0971,-2.1405,-2.0374,0.0,0.0,0.0,0.0,0.0,-2.0333,-2.2651,-2.4655,-2.4123,-2.6327,-2.851,-2.8026,-2.7403,-2.6924,-2.6939,-2.7432,-2.8332,0.0,0.0,-3.3126,0.0,0.0,0.0,0.0,0.0,0.0,0.0,0.0,0.0,0.0,0.0,0.0,0.0,0.0,0.0,0.0,0.0,0.0,0.0,0.0,0.0,-4.588,-4.588,-4.588,-4.588,-4.588,-4.588,-4.588,-4.588,-4.588,-4.588,0.0,-4.588,-4.588,-4.588,-4.588,-4.588,-4.588,-4.588,-4.588,-4.588,-4.588,-4.588,0.0,0.0,0.0,0.0,0.0,0.0,0.0,0.0,0.0,0.0,0.0,0.0,0.0,0.0,0.0,0.0,0.0,0.0,0.0,-2.0432,-2.0889,-2.16,-2.1805,-2.2122,-2.2629,-2.3638,-2.4586,-2.5492,-2.672,-2.7604,-2.8063,-2.6498,-2.4808,-2.3104,-2.2214,-2.1441,-2.0794,-2.0794,-2.0794,-2.0794,0.0,0.0,0.0,0.0,0.0,0.0,0.0,0.0,0.0,0.0,0.0,0.0,0.0,0.0,0.0,-1.9538,-1.9254,-1.9203,-1.9653,-2.1801,-2.408,-2.4907,-2.752,-3.0089,-3.0655,-2.9813,-2.9029,-2.9493,-2.9972,0.0,0.0,0.0,0.0,0.0,0.0,0.0,0.0,0.0,0.0,0.0,0.0,0.0,0.0,0.0,0.0,0.0,0.0,0.0,0.0,0.0,0.0,0.0,0.0,0.0,-4.588,-4.588,-4.588,-4.588,-4.588,-4.588,-4.588,-4.588,-4.588,-4.588,-4.588,-4.588,-4.588,-4.588,-4.588,-4.588,-4.588,-4.588,-4.588,-4.588,-4.588,-4.588,0.0,0.0,0.0,0.0,0.0,0.0,0.0,0.0,0.0,0.0,0.0,0.0,0.0,0.0,0.0,0.0,0.0,0.0,0.0,-2.0002,-2.0178,-2.0842,-2.1521,-2.2803,-2.4717,-2.4859,-2.5586,-2.6957,-2.7668,-2.8047,-2.8047,-2.6013,-2.4638,-2.3762,-2.2469,-2.1489,-2.0794,-2.0794,-2.0794,-2.0794,-2.0794,0.0,0.0,0.0,0.0,0.0,0.0,0.0,0.0,0.0,0.0,0.0,0.0,0.0,-1.9972,-1.9323,-1.912,-1.9493,-2.1293,-2.2817,-2.4205,-2.544,-2.6837,-2.8522,-3.0916,-3.0436,-3.003,-3.1828,-3.2249,-3.2513,0.0,0.0,0.0,0.0,0.0,0.0,0.0,0.0,0.0,0.0,0.0,0.0,0.0,0.0,0.0,0.0,0.0,0.0,0.0,0.0,0.0,0.0,0.0,0.0,-4.588,-4.588,-4.588,-4.588,-4.588,-4.588,-4.588,-4.588,-4.588,-4.588,-4.588,-4.588,-4.588,-4.588,-4.588,-4.588,-4.588,-4.588,-4.588,-4.588,-4.588,-4.588,0.0,0.0,0.0,0.0,0.0,0.0,0.0,0.0,0.0,0.0,0.0,0.0,0.0,0.0,0.0,0.0,0.0,0.0,0.0,-1.9461,-2.0099,-2.0763,-2.1522,-2.2659,-2.4286,-2.5171,-2.5882,-2.6419,-2.713,-2.7241,-2.6751,-2.5092,-2.3939,-2.3212,-2.1821,-2.1047,-2.0794,-2.0794,-2.0794,-2.0794,-2.0794,-2.0696,0.0,0.0,0.0,0.0,0.0,0.0,0.0,0.0,-1.9909,-1.9916,-1.9305,-1.9275,-1.9435,-1.9174,-1.9101,-1.9261,-2.0001,-2.2309,-2.4742,-2.56,-2.7665,-2.9856,-3.1176,-3.2046,-3.3035,-3.4559,-3.4864,-3.4951,0.0,0.0,0.0,0.0,0.0,0.0,0.0,0.0,0.0,0.0,0.0,0.0,0.0,0.0,0.0,0.0,0.0,0.0,0.0,0.0,0.0,0.0,0.0,0.0,0.0,-4.5082,-4.5082,-4.4719,-4.5503,-4.588,-4.588,-4.588,-4.588,-4.588,-4.588,-4.588,-4.588,-4.588,-4.588,-4.588,-4.588,-4.588,-4.588,-4.588,-4.588,-4.588,0.0,0.0,0.0,0.0,0.0,0.0,0.0,0.0,0.0,0.0,0.0,0.0,0.0,0.0,0.0,0.0,0.0,0.0,-1.8082,-1.876,-1.9561,-2.0511,-2.1191,-2.209,-2.3241,-2.4634,-2.555,-2.6009,-2.6293,-2.6056,-2.5293,-2.4144,-2.3338,-2.2851,-2.1647,-2.1126,-2.1126,-2.0889,-2.0761,-2.0663,-2.0663,-2.0562,0.0,0.0,0.0,0.0,0.0,0.0,0.0,0.0,-1.969,-1.9457,-1.918,-1.9101,-1.9101,-1.9101,-1.9377,-1.9696,-1.9696,-2.2091,-2.4762,-2.5614,-2.7924,-3.038,-3.1816,-3.3325,-3.4835,-3.6315,-3.646,-3.6301,-3.6301,0.0,0.0,0.0,0.0,0.0,0.0,0.0,0.0,0.0,0.0,0.0,0.0,0.0,0.0,0.0,0.0,0.0,0.0,0.0,0.0,0.0,0.0,0.0,0.0,-4.44,-4.44,-4.4008,-4.4864,-4.5387,-4.5576,-4.5576,-4.5576,-4.5561,-4.5372,-4.5285,-4.5285,-4.5285,-4.5285,-4.5285,-4.5285,-4.5285,-4.5285,-4.5285,-4.5285,-4.5285,0.0,0.0,0.0,0.0,0.0,0.0,0.0,0.0,0.0,0.0,0.0,0.0,0.0,0.0,0.0,0.0,0.0,0.0,-1.8047,-1.7852,-1.8389,-1.9921,-2.0511,-2.1143,-2.1869,-2.3212,-2.4567,-2.5993,-2.5318,-2.4622,-2.3872,-2.3196,-2.2898,-2.2866,-2.212,-2.1836,-2.1837,-2.111,-2.0662,-2.041,-2.041,-2.041,-2.0342,0.0,0.0,0.0,0.0,0.0,0.0,0.0,-1.9497,-1.9457,-1.9195,-1.9116,-1.9116,-1.9101,-2.0001,-2.1003,-2.1003,-2.2425,-2.4225,-2.5513,-2.73,-2.9595,-3.2791,-3.3964,-3.4965,-3.6925,-3.678,-3.6315,-3.6315,-3.6315,0.0,0.0,0.0,0.0,0.0,0.0,0.0,0.0,0.0,0.0,0.0,0.0,0.0,0.0,0.0,0.0,0.0,0.0,0.0,0.0,0.0,0.0,0.0,-4.3979,-4.3979,-4.3964,-4.3979,-4.4298,-4.4879,-4.4879,-4.4879,-4.485,-4.4255,-4.3993,-4.3993,-4.3993,-4.3993,-4.3993,-4.3993,-4.3993,-4.3993,-4.3993,-4.3993,-4.3993,0.0,0.0,0.0,0.0,0.0,0.0,0.0,0.0,0.0,0.0,0.0,0.0,0.0,0.0,0.0,0.0,0.0,0.0,-1.7329,-1.7644,-1.8208,-1.9053,-1.9735,-2.0415,-2.111,-2.2027,-2.3164,-2.452,-2.4314,-2.3875,-2.318,-2.2993,-2.2611,-2.212,-2.1899,-2.1551,-2.111,-2.0889,-2.0761,-2.0695,-2.0695,-2.046,-2.0148,0.0,0.0,0.0,0.0,0.0,0.0,0.0,0.0,0.0,-1.912,-1.9711,-2.0262,-1.9362,-2.0335,-2.1598,-2.1133,-2.3412,-2.6126,-2.6953,-2.9958,-3.2962,-3.392,-3.4632,-3.5619,-3.7535,-3.7447,-3.7012,-3.7012,0.0,0.0,0.0,0.0,0.0,0.0,0.0,0.0,0.0,0.0,0.0,0.0,0.0,0.0,0.0,0.0,0.0,0.0,0.0,0.0,0.0,0.0,0.0,0.0,0.0,-4.3079,-4.2658,-4.3558,-4.4081,-4.4255,-4.4255,-4.4255,-4.4255,-4.4066,-4.3993,-4.3993,-4.3993,-4.3993,-4.3993,-4.3993,-4.3993,-4.3993,-4.3993,-4.3993,-4.3993,0.0,0.0,0.0,0.0,0.0,0.0,0.0,0.0,0.0,0.0,-1.7503,-1.7503,0.0,0.0,0.0,0.0,0.0,0.0,0.0,-1.7283,-1.7891,-1.8851,-1.9196,-1.9815,-2.0778,-2.1521,-2.2153,-2.2657,-2.2975,-2.2754,-2.2076,-2.2645,-2.2659,-2.223,-2.223,-2.2011,-2.1601,-2.1031,-2.0745,-2.0629,-2.0527,-2.034,-2.015,0.0,0.0,0.0,0.0,0.0,0.0,0.0,0.0,0.0,-1.9101,-1.9624,-2.019,-1.9928,-2.1046,-2.2454,-2.2802,-2.5168,-2.781,-2.8928,-3.1437,-3.392,-3.4936,0.0,0.0,0.0,-3.7723,-3.7375,-3.7622,0.0,0.0,0.0,0.0,0.0,0.0,0.0,0.0,0.0,0.0,0.0,0.0,0.0,0.0,0.0,0.0,0.0,0.0,0.0,0.0,0.0,0.0,0.0,0.0,0.0,0.0,-4.2107,-4.2876,-4.3239,-4.3239,-4.3485,-4.3587,-4.3587,-4.334,-4.3239,-4.3239,-4.3239,-4.3239,-4.3239,-4.3239,-4.3239,-4.3239,-4.3239,-4.3239,-4.3239,0.0,0.0,-1.0442,-1.1843,0.0,0.0,0.0,0.0,0.0,-1.7503,-1.7503,-1.7503,0.0,0.0,0.0,-1.733,-1.7306,-1.7216,0.0,-1.6892,-1.7521,-1.9093,-1.8982,-1.9483,-2.0763,-2.1458,-2.1458,-2.0794,-2.1537,-2.1521,-2.0826,-2.2186,-2.2772,-2.2708,-2.2772,-2.2754,-2.2593,-2.1315,-2.0596,-2.0342,-2.0096,-2.0131,-2.0224,-1.9475,0.0,0.0,0.0,0.0,0.0,0.0,0.0,0.0,-1.9101,-1.9174,-1.9478,-2.0524,-2.1852,-2.3389,-2.5139,-2.714,-2.9131,-3.1047,-3.215,-3.3398,-3.5764,-3.678,-3.7404,-3.8072,0.0,-3.7549,0.0,0.0,0.0,0.0,0.0,0.0,0.0,0.0,0.0,0.0,0.0,0.0,0.0,0.0,0.0,0.0,0.0,0.0,0.0,0.0,0.0,0.0,0.0,0.0,0.0,0.0,0.0,0.0,-4.2092,-4.2092,-4.2121,-4.2658,-4.2919,-4.2876,-4.2339,-4.2092,-4.2092,-4.2092,-4.2092,-4.2092,-4.2092,-4.2092,-4.2092,-4.2092,-4.2092,-4.2092,0.0,0.0,-1.181,-1.2721,0.0,0.0,0.0,0.0,-1.7503,-1.7503,-1.7503,-1.7503,-1.7503,-1.7503,0.0,-1.7451,-1.7354,-1.7281,-1.724,-1.7059,-1.7561,-1.8908,-1.9845,-2.0494,-2.0794,-2.0969,-2.0952,-2.0794,-2.1537,-2.1521,-2.081,-2.1695,-2.1805,-2.1285,-2.187,-2.167,-2.0916,-2.062,-2.034,-2.0078,-2.0023,-1.9884,-1.9696,-1.9795,-1.9762,0.0,0.0,0.0,0.0,0.0,0.0,0.0,-1.9101,-1.9783,-2.0451,-1.9725,-2.1496,-2.3775,-2.4196,-2.6471,-2.9131,-3.1047,-3.3151,-3.5058,-3.6069,-3.6417,-3.6838,-3.797,-3.8101,0.0,0.0,0.0,0.0,0.0,0.0,0.0,0.0,0.0,0.0,0.0,0.0,0.0,0.0,0.0,0.0,0.0,0.0,0.0,0.0,0.0,0.0,0.0,0.0,0.0,-4.2092,-4.2092,-4.2092,0.0,-4.2092,-4.2092,-4.2092,-4.2223,-4.2281,-4.2281,-4.215,-4.2092,-4.2092,-4.2092,-4.2092,-4.2092,-4.2092,-4.2092,-4.2092,-4.2092,-4.2092,-4.2092,0.0,0.0,0.0,0.0,0.0,0.0,0.0,0.0,-1.7503,-1.7503,-1.7503,-1.7503,-1.7503,-1.7503,0.0,0.0,-1.7443,-1.7366,-1.7306,-1.7203,-1.7708,-1.8993,-2.0334,-2.0847,-2.0432,-2.0353,-2.032,-2.032,-2.0699,-2.0857,-2.081,-2.1869,-2.2169,-2.1823,-2.2218,-2.1909,-2.1064,-2.0259,-1.9829,-1.9659,-1.9418,-1.9299,-1.9249,-1.917,-1.8924,-1.8621,-1.882,0.0,0.0,0.0,0.0,0.0,0.0,0.0,-2.0074,-2.003,-2.1191,-2.2846,-2.4384,-2.6718,-2.9363,-3.2193,0.0,-3.5479,-3.5778,-3.6083,-3.6504,-3.7157,0.0,0.0,0.0,0.0,0.0,0.0,0.0,0.0,0.0,0.0,0.0,0.0,0.0,0.0,0.0,0.0,0.0,0.0,0.0,0.0,0.0,0.0,0.0,0.0,0.0,0.0,-4.1134,-4.1134,-4.1134,-4.1134,-4.1134,-4.1308,-4.1628,-4.1947,-4.2092,-4.2092,-4.2092,-4.2092,-4.2092,-4.2092,-4.2092,-4.2092,-4.2092,-4.2092,-4.2092,-4.2092,-4.2092,-4.2092,0.0,0.0,0.0,0.0,0.0,0.0,0.0,0.0,0.0,-1.7503,-1.7503,-1.7503,-1.7503,-1.7503,-1.7503,0.0,0.0,0.0,-1.7342,-1.742,-1.7922,-1.8973,-2.0241,-2.0569,-1.9823,-1.9701,-1.9719,-1.983,-1.9799,-2.0336,-2.1363,-2.228,-2.2724,-2.2724,-2.2724,-2.2309,-2.1547,-2.0044,-1.9305,-1.9142,-1.8618,-1.8523,-1.8641,-1.8206,-1.7817,-1.756,-1.7908,-1.8027,-1.8129,-1.8738,0.0,0.0,0.0,0.0,-1.9159,-2.0204,-2.0669,-2.1438,-2.4234,-2.6852,-2.9682,-3.3209,-3.4646,0.0,-3.5232,-3.5604,-3.6011,0.0,0.0,0.0,0.0,0.0,0.0,0.0,0.0,0.0,0.0,0.0,0.0,0.0,0.0,0.0,0.0,0.0,0.0,0.0,0.0,0.0,0.0,0.0,0.0,0.0,0.0,-3.9987,-4.0104,-4.0104,-4.0104,-4.0104,-4.0104,-4.0379,-4.0945,-4.1497,-4.1874,-4.2092,-4.2092,-4.2092,-4.2092,-4.2092,-4.2092,-4.2092,-4.2092,-4.2092,-4.2092,-4.2092,-4.2092,-4.2092,0.0,0.0,0.0,0.0,0.0,0.0,0.0,0.0,0.0,0.0,-1.7503,-1.7503,-1.7503,-1.7503,-1.7503,-1.7503,-1.7391,-1.7366,-1.7479,0.0,0.0,-1.8238,-1.8984,-1.9283,-1.9042,-1.9043,-1.9331,-1.997,-1.9861,-2.1046,-2.3462,-2.2436,-2.1978,-2.2027,-2.1962,-2.1447,-2.0537,-1.9679,-1.9059,-1.8625,-1.7926,-1.7569,-1.7432,-1.7347,-1.7304,-1.7265,-1.7301,-1.7345,-1.7432,-1.81,-1.8332,0.0,0.0,0.0,0.0,-1.8521,-1.9362,-2.0422,-2.138,0.0,-3.0031,0.0,-3.3659,-3.4545,0.0,0.0,0.0,0.0,0.0,0.0,0.0,0.0,0.0,0.0,0.0,0.0,0.0,0.0,0.0,0.0,0.0,0.0,0.0,0.0,0.0,0.0,0.0,0.0,0.0,0.0,-3.8725,-3.9305,-3.932,0.0,-4.0089,-4.0104,-4.0104,-4.0104,-4.0104,-4.0147,-4.0234,-4.0321,-4.1004,-4.2092,-4.2092,-4.2092,-4.2092,-4.2092,-4.2092,-4.2092,-4.2092,-4.2092,-4.2092,-4.2092,-4.2092,-4.2092,0.0,0.0,0.0,0.0,0.0,0.0,0.0,0.0,0.0,0.0,0.0,-1.7503,-1.7503,-1.7503,-1.7503,-1.7503,-1.7455,-1.7439,-1.7503,-1.8062,0.0,-1.8329,-1.8936,-1.9005,-1.8462,-1.8381,-1.8499,-1.882,-1.8688,-2.0289,-2.3433,-2.3119,-2.362,-2.4776,-2.3954,-2.292,-2.168,-1.9652,-1.859,-1.8189,-1.735,-1.7892,-1.9031,-1.7301,-1.7468,-1.848,-1.7123,-1.6632,-1.6808,-1.7853,-1.8293,-1.8449,-1.8693,0.0,0.0,0.0,-1.8115,-1.9087,-2.1859,-2.527,-2.8753,0.0,-3.2901,-3.3529,-3.4254,0.0,0.0,0.0,0.0,0.0,0.0,0.0,0.0,0.0,0.0,0.0,0.0,0.0,0.0,0.0,0.0,0.0,0.0,0.0,0.0,0.0,0.0,0.0,0.0,-3.8202,-3.8333,-3.8638,-3.8638,0.0,-3.903,-3.9044,-3.9044,-3.9044,-3.9044,-3.9233,-3.9596,-3.9596,-4.0104,-4.0974,-4.0974,-4.0974,-4.0974,-4.0974,-4.0974,-4.1018,-4.1381,-4.1541,-4.1584,-4.1961,-4.2092,-4.2092,0.0,0.0,0.0,0.0,0.0,0.0,0.0,0.0,0.0,0.0,0.0,-1.7503,-1.7503,0.0,0.0,0.0,-1.7503,-1.7503,-1.7503,0.0,0.0,0.0,-1.8628,-1.8568,-1.7909,-1.7738,-1.777,-1.7962,-1.8,-1.994,-2.3674,-2.4189,-2.5697,-2.7898,-2.6255,-2.4559,-2.2738,-2.0233,-1.9073,-1.8817,-1.7858,-1.8725,-2.0424,-1.8673,-1.9048,-2.0235,-1.8189,-1.7388,-1.7405,-1.8147,-1.8545,-1.867,0.0,0.0,0.0,0.0,0.0,-1.7824,-2.1844,0.0,-2.6649,-3.0176,-3.154,-3.2367,0.0,0.0,0.0,0.0,0.0,0.0,0.0,0.0,0.0,0.0,0.0,0.0,0.0,0.0,0.0,0.0,0.0,0.0,0.0,0.0,0.0,0.0,0.0,0.0,-3.797,-3.797,-3.8043,-3.8202,-3.8202,-3.8202,-3.8202,-3.8202,-3.8202,-3.8202,-3.8202,-3.8463,-3.8942,-3.8942,-3.9189,-3.9639,-3.9958,-4.0104,-4.0104,-4.0104,-4.0104,-4.0147,-4.0655,-4.0844,-4.0916,-4.1599,-4.1845,-4.186,0.0,0.0,0.0,0.0,0.0,0.0,0.0,0.0,0.0,0.0,0.0,-1.7503,-1.7503,-1.7503,-1.7503,-1.7503,-1.7503,-1.7503,-1.7503,0.0,0.0,0.0,0.0,0.0,-1.733,-1.7149,-1.7384,-1.8098,-1.8587,-2.1007,-2.5189,-2.5667,-2.7481,-3.0224,-2.7999,-2.5456,-2.2833,-2.1728,-2.1264,-2.1235,-2.0225,-1.9937,-2.0342,-2.221,-2.2738,-2.2303,-2.1288,-2.0657,-2.0128,0.0,-1.8975,-1.8941,-1.867,-1.8168,-1.7477,0.0,0.0,0.0,0.0,-2.1663,0.0,-2.6431,-2.8927,0.0,0.0,0.0,0.0,0.0,0.0,0.0,0.0,0.0,0.0,0.0,0.0,0.0,0.0,0.0,0.0,0.0,0.0,0.0,0.0,0.0,0.0,0.0,0.0,0.0,-3.7317,-3.736,-3.7607,-3.8188,-3.8202,-3.8202,-3.8202,-3.8202,-3.8202,-3.8202,-3.8202,-3.8217,-3.826,-3.826,-3.8275,-3.8376,-3.9581,-4.0104,-4.0104,-4.0104,-4.0104,-4.0104,-4.0133,-4.0147,-4.0234,-4.0902,-4.1149,-4.1236,0.0,0.0,0.0,0.0,0.0,0.0,0.0,0.0,0.0,0.0,0.0,0.0,0.0,-1.7503,-1.7503,-1.7503,-1.7503,0.0,0.0,0.0,0.0,0.0,0.0,0.0,-1.7293,-1.7097,-1.7189,-1.7599,-1.7484,-1.9295,-2.2879,-2.3295,-2.4305,-2.5763,-2.6202,-2.5835,-2.4677,-2.143,-2.0347,-2.0819,-2.0227,-2.1492,-2.3599,-2.26,-2.3837,-2.575,-2.2793,0.0,0.0,0.0,0.0,-1.9148,-1.8193,-1.7761,-1.7344,-1.6015,-1.6213,-1.7125,-1.8521,0.0,0.0,-2.4384,-2.6547,-2.8505,0.0,0.0,0.0,0.0,0.0,0.0,0.0,0.0,0.0,0.0,0.0,0.0,0.0,0.0,0.0,0.0,0.0,0.0,0.0,0.0,0.0,0.0,0.0,0.0,-3.6649,-3.6664,-3.6765,-3.6983,-3.6983,-3.6983,-3.6983,-3.7418,-3.7622,-3.7636,-3.8014,-3.8202,-3.8202,-3.8202,-3.8202,-3.8231,-3.8681,-3.8884,-3.8884,-3.8884,-3.8884,-3.8928,-3.9349,-3.9523,-3.9596,-4.0234,-4.0452,-4.0481,0.0,0.0,0.0,-1.7122,0.0,-1.7503,-1.7503,-1.7503,-1.7503,-1.7503,0.0,0.0,0.0,0.0,-1.7503,-1.7503,-1.7503,-1.7503,-1.7503,-1.7503,0.0,0.0,0.0,0.0,-1.7366,-1.7187,-1.7162,-1.7293,-1.7216,-1.8538,-2.1168,-2.1537,-2.2417,-2.366,-2.4108,-2.4562,-2.4788,-2.2163,-2.1286,-2.1657,-2.1818,-2.3444,-2.5728,-2.5056,-2.6428,-2.8358,0.0,0.0,0.0,0.0,0.0,-2.07,-1.9193,-1.7989,-1.6891,-1.5664,-1.6037,-1.6951,-1.7417,0.0,0.0,0.0,0.0,-2.5818,0.0,0.0,0.0,0.0,0.0,0.0,0.0,0.0,0.0,0.0,0.0,0.0,0.0,0.0,0.0,0.0,0.0,0.0,0.0,0.0,0.0,0.0,0.0,0.0,-3.5981,-3.5996,-3.6083,-3.6301,-3.6301,-3.6301,-3.6301,-3.6751,-3.6968,-3.6983,-3.7375,-3.7564,-3.7578,-3.7796,-3.7897,-3.7912,-3.8115,-3.8202,-3.8202,-3.8202,-3.8202,-3.8246,-3.8696,-3.887,-3.8942,-3.9567,-3.9799,-3.9828,-1.6309,-1.6387,-1.637,-1.6403,-1.6989,-1.747,-1.7503,-1.7503,-1.7503,-1.7503,0.0,0.0,0.0,0.0,0.0,-1.7519,-1.7519,-1.7519,-1.7503,-1.7503,-1.7503,0.0,0.0,0.0,-1.7503,-1.7366,-1.7293,-1.7306,-1.796,-1.9007,-2.0453,-2.0779,-2.223,-2.4434,-2.2052,-2.1642,-2.2866,-2.3901,-2.4174,-2.4014,-2.5061,-2.5733,-2.6446,-2.9809,-3.0623,0.0,-3.0163,-2.962,0.0,-2.6711,0.0,0.0,-2.1652,-1.8837,-1.6126,-1.5545,-1.5792,-1.624,0.0,0.0,0.0,0.0,0.0,0.0,0.0,0.0,0.0,0.0,0.0,0.0,0.0,0.0,0.0,0.0,0.0,0.0,0.0,0.0,0.0,0.0,0.0,0.0,0.0,0.0,0.0,0.0,0.0,-3.4675,-3.5334,-3.5378,-3.5654,-3.6228,-3.6243,-3.6243,-3.6243,-3.6272,-3.6272,-3.6272,-3.6301,-3.6301,-3.633,-3.6983,-3.7273,-3.7302,-3.7912,-3.8173,-3.8173,-3.8188,-3.8202,-3.8202,-3.8202,-3.8202,-3.8275,-3.8928,-3.9175,-3.9247,-1.6612,-1.6074,-1.5773,-1.6304,-1.6569,-1.6873,-1.742,-1.7503,-1.7503,0.0,0.0,0.0,-1.7553,-1.7922,-1.8224,-1.8224,-1.8224,-1.8021,-1.7519,-1.7503,-1.7503,-1.7503,-1.7451,-1.7451,-1.7503,-1.7366,-1.7342,-1.7439,-1.7383,-1.7938,-1.9049,-1.9061,-1.9705,-2.0855,-2.0654,-2.0405,-2.0157,-2.0161,-2.1775,-2.4234,-2.3045,-2.4755,0.0,0.0,0.0,0.0,0.0,-3.0474,-2.954,0.0,-2.6528,-2.3879,-2.0888,-1.8549,-1.6928,-1.6965,-1.7278,-1.7548,-1.7069,0.0,0.0,0.0,0.0,0.0,0.0,0.0,0.0,0.0,0.0,0.0,0.0,0.0,0.0,0.0,0.0,0.0,0.0,0.0,0.0,0.0,0.0,0.0,0.0,0.0,0.0,0.0,0.0,-3.4486,-3.4661,-3.4675,-3.4762,-3.4936,-3.4936,-3.4936,-3.4936,-3.5401,-3.5654,-3.5654,-3.6083,-3.6301,-3.6315,-3.6504,-3.6591,-3.662,-3.7273,-3.7549,-3.7593,-3.8028,-3.8202,-3.8202,-3.8202,-3.8202,-3.8217,-3.8405,-3.8478,-3.8507,-1.6159,-1.5919,-1.5889,-1.6321,-1.689,-1.7524,-1.8253,-1.8385,-1.8385,0.0,0.0,0.0,-1.8419,-1.8998,-1.9283,-1.8989,-1.8687,-1.8323,-1.7938,-1.7669,-1.7503,-1.7503,-1.7503,-1.7503,-1.7503,-1.7415,-1.7415,-1.7503,-1.7297,-1.7511,-1.8087,-1.795,-1.8139,-1.8621,-1.8952,-1.9012,-1.8809,-1.8244,-1.9949,-2.3081,-2.3513,0.0,0.0,-2.9187,-3.0594,0.0,0.0,0.0,-3.1665,-3.1295,-2.8604,0.0,0.0,-1.9771,-1.8615,-1.7692,-1.8165,-1.8796,-1.7882,-1.8346,-1.9145,0.0,0.0,0.0,0.0,0.0,0.0,0.0,0.0,0.0,0.0,0.0,0.0,0.0,0.0,0.0,0.0,0.0,0.0,0.0,0.0,0.0,0.0,0.0,0.0,0.0,-3.4414,-3.4414,-3.4414,-3.4414,-3.4414,-3.4414,-3.4414,-3.4414,-3.4414,-3.4777,-3.4965,-3.5,-3.5343,-3.5517,-3.5532,-3.5793,-3.5909,-3.5952,-3.6606,-3.6881,-3.6939,-3.7564,-3.797,-3.8202,-3.8202,-3.8202,-3.8202,-3.8202,-3.8202,-3.8202,0.0,-1.5993,-1.6442,-1.6537,-1.7635,-1.8741,-1.9485,-1.9601,-1.9601,0.0,-1.9667,-1.9829,-2.0061,-2.0539,-2.0569,-1.9912,-1.9101,-1.8592,-1.8505,-1.7872,-1.7503,-1.7503,-1.7503,-1.7503,-1.7503,-1.7503,-1.7503,-1.7503,-1.742,-1.742,-1.7503,-1.7284,-1.7263,-1.737,-1.7345,-1.7675,-1.8228,-1.7749,-1.8903,-2.1391,-2.4958,-2.6925,0.0,0.0,-3.2047,-3.2676,-3.419,-3.4436,-3.4067,-3.3882,-3.0736,0.0,0.0,-2.2049,-2.1032,-1.8613,-1.9185,-2.0338,-1.9122,-1.9172,-1.9827,-2.0776,0.0,0.0,-2.2149,-2.2475,0.0,0.0,0.0,0.0,0.0,0.0,0.0,0.0,0.0,0.0,0.0,0.0,0.0,0.0,0.0,0.0,0.0,0.0,0.0,-3.4414,-3.4414,-3.4414,-3.4414,-3.4414,-3.4414,-3.4414,-3.4414,-3.4414,-3.4414,-3.4414,-3.4414,-3.4414,-3.4414,-3.4414,-3.4428,-3.5029,-3.529,-3.5319,-3.5923,-3.6199,-3.6257,-3.6925,-3.7549,-3.8115,-3.8173,-3.8202,-3.8202,-3.8202,-3.8202,-3.8202,-1.6782,-1.6649,-1.6741,-1.735,-1.8035,-1.8741,-1.9485,-1.9601,-1.9601,-1.9601,-2.0125,-2.1151,-2.2957,-2.2212,-2.1531,-2.1383,-2.0144,-1.9121,-1.8538,-1.7872,-1.7503,-1.7503,-1.7503,-1.7503,-1.7503,-1.7503,-1.7503,-1.7503,-1.6918,-1.6918,-1.7486,-1.6878,-1.6597,-1.6636,-1.7198,-1.7214,-1.6906,-1.848,-2.004,-2.1596,-2.2863,0.0,-2.898,-3.0791,-3.2047,-3.2988,-3.3902,-3.4184,-3.3899,-3.2481,-3.0895,-2.8966,0.0,-2.4906,-2.4307,-2.2728,-2.2909,-2.3478,-2.267,-2.2539,-2.2387,-2.1274,0.0,0.0,0.0,-2.1446,0.0,0.0,0.0,0.0,0.0,0.0,0.0,0.0,0.0,0.0,0.0,0.0,0.0,0.0,0.0,0.0,0.0,0.0,-3.4414,-3.4414,-3.4414,-3.4414,-3.4414,-3.4414,-3.4414,-3.4414,-3.4414,-3.4414,-3.4414,-3.4414,-3.4414,-3.4414,-3.4414,-3.4414,-3.4414,-3.4545,-3.4603,-3.4632,-3.5305,-3.5581,-3.5625,-3.6243,-3.6881,-3.7535,-3.8014,-3.8202,-3.8202,-3.8202,-3.8202,-3.8202,-1.6955,-1.7226,-1.7659,-1.8021,-1.893,-1.986,-2.0574,-2.0704,-2.0837,-2.1203,-2.2212,-2.2891,-2.2891,-2.2891,-2.2592,-2.1862,-2.0787,-1.9843,-1.9088,-1.8389,-1.7851,-1.7503,-1.7503,-1.7503,-1.7503,-1.7503,-1.7503,-1.7503,-1.6768,-1.6586,-1.6939,-1.6569,-1.6603,-1.6984,-1.7673,-1.8004,-1.8071,-1.9151,-2.0202,-2.1383,-2.3953,0.0,-2.9909,-3.1817,-3.3145,-3.4025,-3.4616,-3.4938,-3.4775,-3.2894,-3.139,0.0,0.0,-2.6854,-2.6357,0.0,-2.4748,-2.5507,-2.4124,-2.4029,-2.4108,-2.3386,0.0,0.0,0.0,0.0,0.0,0.0,0.0,0.0,0.0,0.0,0.0,0.0,0.0,0.0,0.0,0.0,0.0,0.0,0.0,0.0,0.0,0.0,-3.3601,-3.392,-3.3935,-3.408,-3.4385,-3.4414,-3.4414,-3.4414,-3.4414,-3.4414,-3.4414,-3.4414,-3.4414,-3.4414,-3.4414,-3.4414,-3.4414,-3.4414,-3.4414,-3.4428,-3.4748,-3.4893,-3.4936,-3.5575,-3.604,-3.6402,-3.7012,-3.7462,-3.7752,-3.7752,-3.7941,-3.8202,-1.7027,-1.7907,-1.8722,-1.8572,-1.9853,-2.1066,-2.1531,-2.1713,-2.2127,-2.299,-2.4265,-2.453,-2.3022,-2.3802,-2.405,-2.3155,-2.1746,-2.0771,-2.0475,-1.9234,-1.8323,-1.7917,-1.7635,-1.7553,-1.7685,-1.7569,-1.7503,-1.7503,-1.6619,-1.6254,-1.6403,-1.6254,-1.6586,-1.7321,-1.8141,-1.8906,-1.9601,-1.9747,0.0,-2.2312,0.0,-2.8286,-2.9517,-3.2256,-3.3681,-3.4308,-3.5169,-3.5556,-3.5432,-3.3697,-3.2199,-3.0724,-2.8856,-2.8529,0.0,0.0,0.0,0.0,0.0,0.0,0.0,0.0,0.0,-2.404,0.0,0.0,0.0,-2.2832,0.0,0.0,0.0,0.0,0.0,0.0,0.0,0.0,0.0,0.0,0.0,0.0,0.0,0.0,0.0,0.0,-3.2193,-3.3242,-3.2966,-3.3166,-3.4182,-3.424,-3.4283,-3.4414,-3.4414,-3.4414,-3.4414,-3.4414,-3.4414,-3.4414,-3.4414,-3.4414,-3.4414,-3.4414,-3.4414,-3.4414,-3.4414,-3.4414,-3.4443,-3.4965,-3.5218,-3.529,-3.6011,-3.6635,-3.7114,-3.7114,-3.7418,-3.7854,-1.7885,-1.887,-1.9525,-1.8883,-2.038,-2.1481,-2.0901,-2.1381,-2.2294,-2.3686,-2.4597,-2.5491,-2.6553,-2.6236,-2.6419,-2.7547,-2.4,-2.2178,-2.3421,-2.0359,-1.877,-1.9336,-1.8182,-1.7785,-1.8373,-1.7789,-1.7503,-1.7503,-1.6105,-1.5757,-1.6387,-1.5723,-1.5823,-1.6586,-1.7922,-1.8906,-1.9634,0.0,-2.289,0.0,-2.7838,-2.7125,0.0,-3.0185,-3.1742,-3.1915,-3.4169,-3.4847,-3.4546,0.0,-3.3294,-3.263,0.0,-3.0483,-3.1297,-2.8686,0.0,0.0,0.0,0.0,0.0,0.0,-2.6075,0.0,0.0,0.0,-2.3572,-2.1976,0.0,0.0,0.0,0.0,0.0,0.0,0.0,0.0,0.0,0.0,0.0,0.0,0.0,0.0,0.0,0.0,0.0,-3.2454,-3.1032,-3.109,-3.3474,-3.3605,-3.3833,-3.4385,-3.4414,-3.4414,-3.4414,-3.4414,-3.4414,-3.4414,-3.4414,-3.4414,-3.4414,-3.4414,-3.4414,-3.4414,-3.4414,-3.4414,-3.4414,-3.4486,-3.4516,-3.4646,-3.5836,-3.6359,-3.6417,-3.6417,-3.646,-3.6606,-1.7994,-1.8668,-1.9135,-1.8693,-1.9684,-2.0572,-2.0685,-2.2775,-2.4265,-2.4033,-2.5756,-2.71,-2.7265,-2.7017,-2.71,-2.7696,0.0,-2.4531,0.0,0.0,-2.0624,-1.9634,-1.9035,-1.8654,-1.8505,-1.8224,-1.7888,-1.7503,-1.6022,-1.5469,-1.574,-1.5442,-1.6138,-1.7673,-1.9131,0.0,-2.2759,0.0,-2.3304,0.0,0.0,0.0,0.0,-3.1328,-3.3456,-3.3479,-3.4521,-3.4828,-3.4574,0.0,-3.2932,0.0,0.0,0.0,0.0,0.0,0.0,0.0,0.0,0.0,0.0,0.0,0.0,0.0,-2.3115,0.0,-2.2501,0.0,0.0,0.0,0.0,0.0,0.0,0.0,0.0,0.0,0.0,0.0,0.0,0.0,0.0,0.0,0.0,0.0,0.0,0.0,0.0,-2.9871,-3.1716,-3.2893,-3.3634,-3.3862,-3.4225,-3.4414,-3.4414,-3.4414,-3.4414,-3.4414,-3.4414,-3.4414,-3.4414,-3.4414,-3.4414,-3.4414,-3.4414,-3.4414,-3.4414,-3.4414,-3.4414,-3.4472,-3.5009,-3.543,-3.5799,-3.5799,-3.5996,-3.6344,-1.8388,-1.8585,-1.868,-1.853,-1.9283,-2.0224,-2.1166,-2.357,-2.5143,-2.4663,-2.6652,-2.8127,-2.8177,-2.8194,0.0,0.0,-2.8343,-2.705,0.0,0.0,-2.2576,-2.117,-2.0144,-1.9548,-1.9399,-1.882,-1.8257,-1.7768,-1.6321,-1.569,-1.5889,-1.569,-1.6641,-1.8559,-2.0042,-2.2243,-2.4762,0.0,-2.4696,-2.6119,-2.6665,-2.7247,-2.8241,-3.2415,-3.4369,-3.4899,-3.4899,-3.4899,-3.47,-3.3379,-3.2852,0.0,-3.2338,0.0,0.0,0.0,0.0,0.0,-2.9492,0.0,0.0,0.0,0.0,0.0,0.0,0.0,0.0,0.0,0.0,0.0,0.0,0.0,0.0,0.0,0.0,0.0,0.0,0.0,0.0,0.0,0.0,0.0,0.0,0.0,0.0,0.0,0.0,0.0,-3.0205,-3.1642,-3.2762,-3.3474,-3.3906,-3.424,-3.4414,-3.4414,-3.4414,-3.4414,-3.4414,-3.4414,-3.4414,-3.4414,-3.4414,-3.4414,-3.4414,-3.4414,-3.4414,-3.4414,-3.4414,-3.4414,-3.4414,-3.4704,-3.5145,-3.5145,-3.5386,-3.5822,-1.9493,-1.8937,-1.8505,-1.8505,-1.9694,-2.1149,-2.2624,-2.2924,-2.3768,-2.5854,0.0,0.0,0.0,0.0,0.0,0.0,0.0,-2.9595,-3.0208,0.0,-2.4249,-2.4911,-2.1501,-2.026,-2.1648,-1.9611,-1.8489,-1.8472,-1.7055,-1.6735,-1.7403,-1.6702,-1.7138,-1.8559,-2.0042,-2.1945,-2.4133,-2.5507,-2.8122,-3.1366,-3.1383,-3.2657,-3.4369,0.0,-3.3044,-3.4899,-3.4899,0.0,0.0,-3.3787,-3.3594,0.0,0.0,0.0,0.0,0.0,0.0,0.0,0.0,0.0,0.0,-2.617,0.0,0.0,0.0,0.0,-2.4495,0.0,0.0,0.0,0.0,0.0,-2.3025,-2.1739,-2.1515,0.0,0.0,0.0,0.0,0.0,0.0,0.0,0.0,0.0,0.0,0.0,0.0,0.0,-2.9392,-2.9682,-3.0887,-3.3416,-3.3518,-3.379,-3.4399,-3.4414,-3.4414,-3.4414,-3.4414,-3.4414,-3.4414,-3.4414,-3.4414,-3.4414,-3.4414,-3.4414,-3.4414,-3.4414,-3.4414,-3.4414,-3.4414,-3.4428,-3.4443,-3.4443,-3.4457,-3.4559,-2.0187,-1.9797,-1.9483,-1.9483,-1.9351,-2.0075,-2.2526,-2.4564,-2.642,0.0,0.0,0.0,0.0,-3.3408,-3.3707,0.0,0.0,-3.2332,-3.0605,-2.8652,0.0,0.0,0.0,-2.3023,0.0,-2.1317,-2.0207,-1.9234,-1.8257,-1.7922,-1.8153,-1.7453,-1.7872,-1.927,-2.0257,-2.246,0.0,0.0,0.0,0.0,0.0,-3.2945,-3.4816,0.0,0.0,-3.4899,-3.4899,-3.4899,0.0,-3.453,-3.4157,-3.3799,-3.3884,-3.3525,-3.311,-3.3267,-3.307,0.0,0.0,0.0,-3.1976,-2.8239,0.0,0.0,0.0,0.0,0.0,0.0,0.0,0.0,0.0,-2.4261,-2.3462,-2.2586,-2.205,-2.1409,0.0,0.0,0.0,0.0,0.0,0.0,0.0,0.0,0.0,0.0,0.0,0.0,0.0,-2.9087,-3.0685,-3.1556,-3.2835,-3.3605,-3.3823,-3.4196,-3.4414,-3.4414,-3.4414,-3.4414,-3.4414,-3.4414,-3.4414,-3.4414,-3.4414,-3.4414,-3.4414,-3.4414,-3.4414,-3.4414,-3.4414,-3.4414,-3.4414,-3.4414,-3.4414,-3.4443,-2.1086,-2.082,-2.0577,-2.0501,-2.0528,-2.1271,-2.337,0.0,0.0,0.0,-3.1466,0.0,-3.5081,0.0,-3.5396,0.0,-3.5678,-3.4551,-3.1851,-3.099,0.0,-2.8489,-2.7048,0.0,0.0,-2.3619,-2.2261,-2.0773,-1.9763,-1.928,-1.925,-1.8303,-1.8617,-2.0011,-2.0754,-2.2841,-2.5887,-2.7179,-2.8817,0.0,0.0,-3.364,0.0,0.0,-3.4899,-3.4899,0.0,-3.4899,-3.4899,-3.4899,-3.4584,-3.427,-3.475,-3.4237,-3.3574,-3.4038,-3.3763,-3.3228,-3.2872,-3.3135,0.0,-2.975,-2.8785,0.0,-2.4521,0.0,0.0,0.0,0.0,0.0,0.0,0.0,-2.3844,-2.3638,-2.2555,-2.1443,0.0,0.0,0.0,0.0,0.0,0.0,0.0,0.0,-2.0625,-2.2113,0.0,0.0,0.0,0.0,-2.9668,-3.0569,-3.2004,-3.3038,-3.3503,-3.3877,-3.4196,-3.4414,-3.4414,-3.4414,-3.4414,-3.4414,-3.4414,-3.4414,-3.4414,-3.4414,-3.4414,-3.4414,-3.4414,-3.4414,-3.4414,-3.4414,-3.4414,-3.4414,-3.4414,-3.4414,-2.2175,-2.2007,0.0,0.0,-2.3069,0.0,0.0,0.0,-2.991,0.0,-3.2994,-3.4468,-3.5959,-3.6141,-3.6439,-3.7102,-3.7152,-3.6257,-3.4087,-3.3249,0.0,0.0,-2.9334,-2.8525,-2.8459,0.0,0.0,-2.294,-2.1481,-2.0735,-2.0669,-1.928,-1.9363,-2.0735,-2.1431,0.0,-2.5342,-2.885,-3.1288,-3.2884,-3.4319,-3.4899,-3.4899,-3.4899,0.0,-3.4899,-3.4899,-3.4899,-3.4899,-3.4899,-3.4899,-3.4899,-3.4899,-3.4899,-3.4899,-3.4899,-3.4899,-3.4703,-3.3804,-3.3576,-3.302,-3.0662,0.0,0.0,0.0,0.0,-2.8212,0.0,0.0,0.0,0.0,0.0,0.0,-2.4729,-2.2864,-2.1049,0.0,0.0,0.0,0.0,0.0,0.0,0.0,-1.8731,-1.9004,-2.077,-2.0436,0.0,0.0,0.0,0.0,-3.0394,-3.1134,-3.2121,-3.3402,-3.3474,-3.3808,-3.437,-3.4399,-3.4414,-3.4414,-3.4414,-3.4414,-3.4414,-3.4414,-3.4414,-3.4414,-3.4414,-3.4414,-3.4414,-3.4414,-3.4414,-3.4414,-3.4414,-3.4414,-3.4414,-2.315,-2.3846,-2.4508,0.0,-2.3924,-2.4231,0.0,0.0,0.0,0.0,-3.4518,-3.6009,-3.7483,-3.8112,-3.8295,-3.7963,-3.793,0.0,0.0,0.0,0.0,-3.3789,-3.1851,-3.0294,-2.9238,-2.7048,0.0,-2.3719,0.0,-2.1232,-2.0685,-2.0321,-2.0337,-2.0718,-2.0901,-2.251,-2.5243,-2.7247,-3.0216,-3.3613,-3.4518,-3.4899,0.0,0.0,-3.4899,-3.4899,-3.4899,-3.4899,-3.4899,-3.4899,-3.4899,-3.4899,-3.4899,-3.4899,-3.4899,-3.4899,-3.4899,-3.4849,-3.4596,-3.4547,-3.4235,-3.2905,-3.1778,-3.0626,0.0,0.0,0.0,0.0,0.0,0.0,0.0,0.0,0.0,-2.3755,-2.2022,-2.0883,0.0,0.0,0.0,0.0,0.0,0.0,0.0,-1.9028,-1.9281,-1.957,-2.032,0.0,0.0,0.0,0.0,-2.8391,-3.0422,-3.1685,-3.2019,-3.3009,-3.359,-3.375,-3.4196,-3.4414,-3.4414,-3.4414,-3.4414,-3.4414,-3.4414,-3.4414,-3.4414,-3.4414,-3.4414,-3.4414,-3.4414,-3.4414,-3.4414,-3.4414,-3.4414,-3.4414,-2.4378,0.0,0.0,-2.7435,0.0,0.0,-2.9206,0.0,0.0,-3.3922,-3.5562,0.0,-3.7649,-3.8659,-3.9133,-3.8709,-3.8676,0.0,-3.7168,0.0,0.0,-3.4932,-3.4021,-3.2696,-3.0945,-2.9052,0.0,-2.4961,0.0,-2.1746,-2.0685,-2.0373,-2.0224,-2.024,-2.0886,-2.246,-2.4829,-2.7876,-3.0957,-3.3856,-3.4601,0.0,0.0,-3.4899,-3.4899,-3.4899,-3.4899,-3.4899,-3.4899,-3.4899,-3.4899,-3.4899,-3.4899,-3.4899,-3.4899,-3.4899,-3.4899,-3.4899,-3.4899,-3.4899,-3.4776,-3.4244,-3.3518,-3.2583,-3.1285,-3.1322,-3.1387,0.0,0.0,0.0,0.0,0.0,0.0,-2.295,-2.186,-2.1274,0.0,0.0,0.0,0.0,0.0,0.0,0.0,-1.8926,-1.8976,-1.9087,-1.9754,0.0,0.0,0.0,0.0,-2.7287,-2.9479,-3.0929,-3.148,-3.2251,-3.2759,-3.3064,-3.3688,-3.4008,-3.4008,-3.4283,-3.4414,-3.4414,-3.4414,-3.4414,-3.4414,-3.4414,-3.4414,-3.4414,-3.4414,-3.4414,-3.4414,-3.4414,-3.4414,-3.4414,-2.5967,0.0,0.0,0.0,0.0,0.0,0.0,-3.2453,0.0,-3.4998,0.0,-3.74,-3.74,-3.851,-3.9299,-3.9299,0.0,-3.8768,-3.7466,-3.7914,-3.735,-3.5413,-3.576,-3.5048,-3.3033,-3.1355,-2.9132,0.0,-2.4033,-2.2111,-2.0536,-1.9896,-1.9601,-1.965,0.0,0.0,0.0,-2.9413,-3.2315,-3.3746,-3.4551,-3.4899,-3.4899,-3.4899,-3.4899,-3.4899,-3.4899,-3.4899,-3.4899,-3.4899,-3.4899,-3.4899,-3.4899,-3.4899,-3.4899,-3.4899,-3.4899,-3.4899,-3.4899,-3.4899,-3.4899,-3.4899,-3.4899,-3.4521,-3.3047,-3.2745,-3.2745,-3.2745,-3.1569,-3.1383,0.0,0.0,0.0,-2.2831,0.0,0.0,0.0,0.0,0.0,0.0,0.0,0.0,0.0,-1.8888,-1.8618,-1.9016,-1.9076,0.0,0.0,0.0,0.0,0.0,-2.8507,0.0,-3.1234,0.0,-3.177,-3.2365,-3.3035,-3.3416,-3.3518,-3.4037,-3.4341,-3.4414,-3.4414,-3.4414,-3.4414,-3.4414,-3.4414,-3.4414,-3.4414,-3.4414,-3.4414,-3.4414,-3.4414,-3.4414,0.0,0.0,0.0,0.0,0.0,-3.3926,-3.4955,-3.5052,-3.5438,-3.6572,-3.7996,-3.8917,-3.8917,-3.9149,-3.9299,-3.9299,-3.9299,0.0,0.0,0.0,0.0,-3.7649,-3.6589,-3.5528,-3.4535,-3.1885,-2.94,0.0,-2.4282,-2.1831,-1.9796,-1.965,-1.9601,-1.9634,0.0,0.0,-2.602,-2.9297,0.0,-3.3017,-3.4352,-3.4899,-3.4899,-3.4899,-3.4899,-3.4899,-3.4899,-3.4899,-3.4899,-3.4899,-3.4899,-3.4899,-3.4899,-3.4899,-3.4899,-3.4899,-3.4899,-3.4899,-3.4899,-3.4899,-3.4899,-3.4899,-3.4899,-3.4833,-3.4521,-3.4454,-3.4454,-3.4454,-3.4232,-3.3766,-3.2981,0.0,0.0,0.0,0.0,0.0,0.0,0.0,0.0,0.0,0.0,0.0,0.0,0.0,-1.9526,0.0,0.0,0.0,0.0,0.0,0.0,0.0,0.0,0.0,0.0,0.0,0.0,-3.1669,-3.2367,-3.2962,-3.3503,-3.362,-3.392,-3.4414,-3.4414,-3.4414,-3.4414,-3.4414,-3.4414,-3.4414,-3.4414,-3.4414,-3.4414,-3.4414,-3.4414,-3.4414,0.0,0.0,0.0,0.0,0.0,0.0,0.0,-3.8221,0.0,-3.7607,-3.7877,-3.8249,-3.8463,-3.8966,-3.9299,-3.9299,-3.9299,-3.9299,-3.9299,-3.8984,-3.8593,-3.8228,-3.7533,0.0,-3.4932,-3.2762,-3.0232,-2.7298,-2.4729,-2.2344,-2.0174,-2.0174,-1.9962,-1.9684,0.0,-2.3818,0.0,0.0,0.0,-3.2834,-3.4303,-3.4899,-3.4899,-3.4899,-3.4899,-3.4899,-3.4899,-3.4899,-3.4899,-3.4899,-3.4899,-3.4899,-3.4899,-3.4899,-3.4899,-3.4899,-3.4899,-3.4899,-3.4899,-3.4899,-3.4899,-3.4899,-3.4899,-3.4899,-3.4899,-3.4899,-3.4899,-3.4899,-3.4899,-3.4272,-3.2219,-3.0072,0.0,0.0,0.0,0.0,0.0,0.0,0.0,0.0,0.0,0.0,0.0,0.0,0.0,0.0,0.0,0.0,0.0,0.0,0.0,0.0,0.0,0.0,0.0,0.0,0.0,-3.1032,-3.1685,-3.2338,-3.2977,-3.3344,-3.3819,-3.4414,-3.4414,-3.4414,-3.4414,-3.4414,-3.4414,-3.4414,-3.4414,-3.4414,-3.4414,-3.4414,-3.4414,-3.4414,0.0,-3.51,0.0,0.0,-3.7801,0.0,-3.9373,-4.0569,-4.0728,-3.8775,-3.8052,-3.7803,-3.8134,-3.8863,-3.9299,-3.9299,-3.9299,-3.9299,-3.9299,-3.9299,-3.905,-3.846,-3.8268,-3.7384,-3.5644,-3.3988,-3.1542,0.0,0.0,-2.3503,-2.1166,-2.0851,-2.0555,-2.0425,0.0,0.0,0.0,0.0,-3.2266,-3.305,-3.4369,-3.4899,-3.4899,-3.4899,-3.4899,-3.4899,-3.4899,-3.4899,-3.4899,-3.4899,-3.4899,-3.4899,-3.4899,-3.4899,-3.4899,-3.4899,-3.4899,-3.4899,-3.4899,-3.4899,-3.4899,-3.4899,-3.4899,-3.4899,-3.4899,-3.4899,-3.4849,-3.47,-3.4535,-3.376,-3.1556,-3.0455,0.0,0.0,0.0,0.0,0.0,0.0,0.0,0.0,0.0,0.0,0.0,0.0,0.0,0.0,0.0,0.0,0.0,0.0,0.0,0.0,0.0,0.0,-2.9127,0.0,-3.0762,0.0,-3.1121,-3.1729,-3.2559,-3.3067,-3.3688,-3.4414,-3.4414,-3.4414,-3.4414,-3.4414,-3.4414,-3.4414,-3.4414,-3.4414,-3.4414,-3.4414,-3.4414,-3.4414,0.0,0.0,0.0,0.0,0.0,0.0,0.0,-4.0633,-4.1185,-4.0612,-4.0,-3.9648,-3.9682,-3.9454,-3.9299,-3.9299,-3.9299,-3.9299,-3.9299,-3.9299,-3.9265,-3.9199,-3.856,-3.8086,-3.7914,-3.5794,-3.3557,0.0,0.0,-2.5525,-2.2659,-2.1332,-2.1381,-2.2725,0.0,0.0,0.0,-3.1603,-3.3011,-3.3756,-3.4568,-3.4899,-3.4899,-3.4899,-3.4899,-3.4899,-3.4899,-3.4899,-3.4899,-3.4899,-3.4899,-3.4899,-3.4899,-3.4899,-3.4899,-3.4899,-3.4899,-3.4899,-3.4899,-3.4899,-3.4899,-3.4899,-3.4899,-3.4899,-3.4899,-3.4899,-3.47,-3.4038,-3.3359,-3.2431,-3.0849,-3.1014,-3.0489,0.0,0.0,0.0,0.0,0.0,0.0,0.0,0.0,0.0,0.0,0.0,0.0,0.0,0.0,0.0,0.0,0.0,0.0,-2.3831,0.0,-2.676,-2.7605,-2.975,0.0,-3.0791,-3.073,-3.14,-3.2674,-3.2634,-3.3267,-3.4414,-3.4414,-3.4414,-3.4414,-3.4414,-3.4414,-3.4414,-3.4414,-3.4414,-3.4414,-3.4414,-3.4414,-3.4414,0.0,0.0,0.0,0.0,0.0,0.0,0.0,-4.1902,-4.2047,-4.1903,-4.1059,-4.0476,-4.0549,-4.0336,-4.0037,-3.9694,-3.9668,-3.9563,-3.9325,-3.9299,-3.9299,-3.9299,-3.9033,-3.8642,-3.8202,-3.6473,-3.4485,0.0,0.0,0.0,0.0,-2.4481,-2.4547,0.0,0.0,-2.9533,-3.0208,-3.2415,-3.3524,-3.3856,-3.4601,-3.4899,-3.4899,-3.4899,-3.4899,-3.4899,-3.4899,-3.4899,-3.4899,-3.4899,-3.4899,-3.4899,-3.4899,-3.4899,-3.4899,-3.4899,-3.4899,-3.4899,-3.4899,-3.4899,-3.4899,-3.4899,-3.4899,-3.4899,-3.4899,-3.4899,-3.4684,-3.3938,-3.2862,-3.1868,-3.1267,-3.0671,-3.0042,0.0,0.0,0.0,0.0,0.0,0.0,0.0,0.0,-2.2172,0.0,0.0,0.0,0.0,0.0,0.0,-2.0237,0.0,0.0,-2.3175,0.0,-2.7375,-2.7565,-2.9831,-3.0984,-3.0984,-3.0791,-3.1229,-3.2167,-3.2105,-3.2725,-3.3862,-3.424,-3.4414,-3.4414,-3.4414,-3.4414,-3.4414,-3.4414,-3.4414,-3.4414,-3.4414,-3.4414,-3.4414,-4.0672,0.0,-4.0275,0.0,-4.1411,-4.1485,-4.2719,-4.2728,-4.2609,-4.2609,-4.186,-4.1311,-4.1214,-4.1036,-4.0713,-4.0286,-4.0204,-4.0045,-3.9764,-3.9625,-3.9537,-3.9484,-3.9405,0.0,-3.8543,-3.7301,-3.5777,-3.3988,-3.1785,0.0,0.0,-2.7595,0.0,0.0,-3.0278,-3.1272,-3.1603,-3.3375,-3.4121,-3.4154,-3.4684,-3.4899,-3.4916,-3.5131,-3.5214,-3.5247,-3.5462,-3.5413,-3.5214,-3.5214,-3.5081,-3.4899,-3.4899,-3.4899,-3.4899,-3.4899,-3.4899,-3.4899,-3.4899,-3.4899,-3.4899,-3.4899,-3.4899,-3.4899,-3.4899,-3.4717,-3.4303,-3.3342,-3.2144,-3.1283,-3.1283,-3.0423,-2.9744,-2.988,0.0,0.0,0.0,0.0,0.0,0.0,-2.2957,-2.2098,-2.1697,0.0,0.0,0.0,0.0,0.0,-2.0918,0.0,0.0,0.0,0.0,0.0,0.0,-3.0261,-3.1394,-3.1394,-3.1364,-3.1648,-3.2198,-3.2307,-3.2791,-3.3532,-3.4138,-3.4481,-3.4635,-3.4635,-3.4735,-3.4854,-3.4854,-3.4754,-3.4635,-3.4635,-3.4534,-3.4414,-4.1524,-4.1687,-4.1922,-4.2737,-4.2864,-4.2864,-4.2901,-4.2728,-4.2609,-4.2609,-4.2589,-4.2353,-4.1753,-4.1348,-4.1087,-4.1087,-4.0908,-4.0778,-4.0778,-4.0353,-4.0037,0.0,0.0,-3.9432,-3.9282,-3.856,-3.7788,-3.7052,0.0,0.0,-3.1515,-3.0042,-2.9744,-3.0522,-3.2,-3.3083,-3.3806,-3.4568,-3.4883,-3.4883,-3.4899,-3.4899,-3.4982,-3.5711,-3.5992,-3.6075,-3.682,-3.6622,-3.5992,-3.5992,-3.5495,-3.4899,-3.4899,-3.4899,-3.4899,-3.4899,-3.4899,-3.4899,-3.4899,-3.4899,-3.4899,-3.4899,-3.4899,-3.4899,-3.4899,-3.4336,-3.3392,-3.1929,-3.1035,-3.0506,-3.0506,-3.0506,-3.0026,-2.8658,0.0,0.0,0.0,0.0,0.0,0.0,-2.2046,-2.1017,-2.1729,0.0,0.0,0.0,0.0,0.0,0.0,0.0,0.0,-2.54,-2.7308,0.0,-2.8575,-3.0918,-3.2074,-3.2102,-3.2485,-3.2826,-3.3098,-3.3502,-3.3591,-3.3532,-3.4138,-3.4687,-3.5201,-3.5201,-3.5447,-3.5881,-3.5881,-3.5608,-3.5201,-3.5201,-3.4854,-3.4414,-4.2466,-4.252,-4.2592,-4.2846,-4.2901,-4.2901,-4.2901,-4.2862,-4.2787,-4.2787,-4.2787,-4.2729,-4.2536,-4.2277,-4.1948,0.0,-4.145,-4.1316,0.0,-4.085,-4.0696,-4.0531,-4.0552,-4.0431,-4.0045,-3.9235,-3.8728,-3.8597,0.0,0.0,0.0,-3.3375,-3.3541,-3.427,-3.4733,-3.5363,-3.6075,-3.6307,-3.6406,-3.6406,-3.6406,-3.6406,-3.6439,-3.6671,-3.6754,-3.6787,-3.7036,-3.6953,-3.6754,-3.6754,-3.6605,-3.6406,-3.6406,-3.5711,-3.4899,-3.4899,-3.4899,-3.4899,-3.4899,-3.4899,-3.4899,-3.4899,-3.4899,-3.4899,-3.4899,-3.3938,-3.2934,-3.2448,-3.135,-3.0506,-3.0506,-3.0506,-3.034,-2.9914,0.0,0.0,0.0,0.0,0.0,0.0,-2.3686,-2.304,0.0,-2.2626,0.0,0.0,0.0,0.0,0.0,0.0,0.0,0.0,-2.8217,0.0,-2.9339,-3.1192,-3.2336,-3.2853,-3.2473,-3.2554,-3.3064,-3.3768,-3.4091,-3.4106,-3.5016,-3.5317,-3.5201,-3.5201,-3.507,-3.4887,-3.4887,-3.4787,-3.4668,-3.4668,-3.4534,-3.4414,-4.2901,-4.2901,-4.2901,-4.2901,-4.2901,-4.2901,-4.2901,-4.2901,-4.2901,-4.2901,-4.2901,-4.2901,-4.2901,-4.2786,0.0,-4.2195,-4.2071,-4.1927,-4.1678,-4.1503,-4.1326,-4.1134,-4.1168,-4.1013,-4.0679,0.0,0.0,-3.9973,-3.8252,-3.6973,-3.6189,-3.6189,-3.6424,-3.687,-3.6725,-3.6902,-3.7311,-3.7153,-3.7102,-3.7102,-3.7102,-3.7102,-3.7135,-3.7417,-3.7516,-3.7549,-3.7831,-3.7748,-3.7516,-3.7516,-3.7334,-3.7102,-3.7102,-3.629,-3.5313,-3.5313,-3.5114,-3.4899,-3.4899,-3.4899,-3.4899,-3.4899,-3.4899,-3.4816,-3.4551,-3.3557,-3.2613,-3.2348,-3.1338,-3.0506,-3.0506,-3.0506,-3.0506,-3.0506,-2.9877,-2.9168,-2.8492,0.0,0.0,0.0,0.0,0.0,0.0,-2.4348,0.0,0.0,0.0,0.0,0.0,0.0,0.0,-2.6405,-2.9518,0.0,-3.0946,-3.2218,-3.3082,-3.3527,-3.3082,-3.3013,-3.3335,-3.4176,-3.4541,-3.456,-3.5615,-3.6024,-3.5913,-3.58,-3.5688,-3.5559,-3.5559,-3.5299,-3.4938,-3.4938,-3.4721,-3.4414,-4.2901,-4.2901,0.0,0.0,-4.2901,0.0,-4.2901,-4.2901,-4.2901,-4.2901,-4.2901,-4.2901,-4.2901,-4.2901,-4.2901,-4.2901,0.0,0.0,0.0,-4.2213,-4.1903,-4.1774,-4.1543,-4.1331,-4.1178,-4.1178,-4.1155,-4.111,-4.0245,-3.9359,-3.8454,-3.8402,-3.8396,-3.8424,-3.7987,-3.7836,-3.7838,-3.7486,-3.7327,-3.7318,-3.7327,-3.7327,-3.7393,-3.8081,-3.8304,-3.8404,-3.9067,-3.8858,-3.8295,-3.8295,-3.7831,-3.7251,-3.7251,-3.6754,-3.6125,-3.6025,-3.5479,-3.4899,-3.4899,-3.4899,-3.4899,-3.4899,-3.4899,-3.4717,-3.4021,-3.3292,-3.2564,-3.1879,-3.1118,-3.0572,-3.0572,-3.0522,-3.0472,-3.0423,-2.981,-2.9102,-2.8426,0.0,0.0,0.0,0.0,0.0,0.0,-2.6171,-2.7066,0.0,0.0,0.0,0.0,0.0,-2.7361,-2.9397,-3.1093,-3.2311,-3.3064,-3.3744,-3.4101,-3.4101,-3.4151,-3.4068,-3.391,-3.4725,-3.504,-3.4992,-3.6056,-3.6753,-3.7131,-3.6846,-3.6998,-3.7405,-3.7405,-3.68,-3.5913,-3.5913,-3.5317,-3.4501,0.0,0.0,-4.2901,-4.2901,-4.2901,-4.2901,-4.2901,-4.2901,-4.2901,-4.2901,-4.2901,-4.2901,-4.2901,-4.2901,-4.2901,-4.2901,-4.2862,-4.2843,-4.2843,-4.2729,-4.2575,-4.2412,-4.2476,-4.2358,-4.2026,-4.1867,-4.1556,-4.111,-4.1033,-4.0735,-4.0197,-3.9408,-3.9347,-3.9853,-3.9201,-3.9093,-3.9387,-3.9537,-3.9479,-3.9277,-3.9529,-3.9619,-3.9611,-3.9522,-3.9495,-3.9486,-3.9339,-3.9199,-3.905,-3.905,-3.8934,-3.8785,-3.8785,-3.8261,-3.7466,-3.634,-3.5479,-3.4899,-3.4899,-3.4899,-3.4899,-3.4899,-3.4899,-3.4849,-3.4667,-3.4054,-3.3475,-3.3309,-3.2249,-3.1333,-3.1333,-3.0886,-3.0307,-2.9744,-2.9085,-2.8376,-2.7647,-2.7265,0.0,0.0,-2.7282,-2.7547,-2.7381,-2.7829,-2.7829,0.0,0.0,0.0,0.0,0.0,-2.9132,-3.0208,-3.1726,-3.2846,-3.3587,-3.3942,-3.4101,-3.4101,-3.4521,-3.4691,-3.4676,-3.5733,-3.621,-3.6238,-3.7403,-3.7754,-3.7442,-3.7131,-3.686,-3.6615,-3.6384,-3.6102,-3.5913,-3.5913,-3.5753,-3.5529,-4.2901,-4.2901,-4.2901,-4.2901,-4.2901,-4.2901,-4.2901,-4.2901,-4.2901,-4.2901,-4.2901,-4.2901,-4.2901,-4.2901,-4.2901,-4.2901,-4.2901,-4.2901,-4.2901,-4.2901,-4.2844,-4.2747,-4.2843,-4.2805,-4.2591,-4.2458,-4.22,-4.1803,-4.1903,-4.1792,-4.1468,-4.0941,-4.0824,-4.1047,-4.0516,-4.0305,-4.0402,-4.0392,-4.0294,-4.0154,-4.0319,-4.04,-4.0375,-4.0187,-4.002,-3.9875,-3.9668,-3.9458,-3.9299,-3.9299,-3.9299,-3.9299,-3.9299,-3.8775,-3.802,-3.7251,-3.6241,-3.533,-3.4982,-3.4899,-3.4899,-3.4899,-3.4899,-3.4899,-3.4899,-3.4319,-3.3789,-3.3789,-3.2646,-3.1598,-3.1598,-3.1002,-3.0257,-2.9512,-2.8837,-2.8144,-2.7398,-2.7298,0.0,-2.7298,-2.8227,-2.8738,-2.8426,-2.8969,-2.9052,-2.8307,0.0,0.0,-2.8754,-2.9794,-3.0588,-3.0986,-3.2431,-3.3557,-3.4286,-3.4397,-3.4472,-3.4472,-3.4763,-3.4899,-3.4949,-3.6257,-3.684,-3.688,-3.8074,-3.8415,-3.8112,-3.7812,-3.7533,-3.7296,-3.7117,-3.689,-3.6661,-3.6523,-3.6306,-3.6118,-4.2901,-4.2901,-4.2901,-4.2901,-4.2901,-4.2901,-4.2901,-4.2901,-4.2901,-4.2901,-4.2901,-4.2901,-4.2901,-4.2901,-4.2901,-4.2901,-4.2901,-4.2901,-4.2901,-4.2901,-4.2901,-4.2901,-4.2901,-4.2901,-4.2901,-4.2901,-4.2824,-4.2649,-4.2609,-4.251,-4.2348,-4.2308,-4.2166,-4.1956,-4.1657,-4.1368,-4.1047,-4.0754,-4.057,-4.0514,-4.0563,-4.057,-4.057,-4.0497,-4.0286,-3.9961,-3.9926,-3.9642,-3.9299,-3.9299,-3.9299,-3.9299,-3.9299,-3.8858,-3.8344,-3.8219,-3.7235,-3.6009,-3.5263,-3.4982,-3.4899,-3.4899,-3.4899,-3.4899,-3.4899,-3.4419,-3.3955,-3.3955,-3.2878,-3.1896,-3.178,-3.1168,-3.0357,-2.9417,-2.8853,-2.8227,-2.7265,0.0,-2.758,-2.7464,-2.8704,-2.935,-2.8774,-2.9798,-3.0241,-2.9612,-3.0141,0.0,0.0,-3.1366,-3.1813,-3.1929,-3.3143,-3.4154,-3.4883,-3.4899,-3.4899,-3.4899,-3.4899,-3.4899,-3.4949,-3.6307,-3.7003,-3.7159,-3.8245,-3.8761,-3.886,-3.8588,-3.8448,-3.8448,-3.842,-3.8132,-3.7693,-3.7399,-3.7025,-3.6661,-4.2901,-4.2901,-4.2901,-4.2901,-4.2901,-4.2901,-4.2901,-4.2901,-4.2901,-4.2901,-4.2901,-4.2901,-4.2901,-4.2901,-4.2901,-4.2901,-4.2901,-4.2901,-4.2901,-4.2901,-4.2901,-4.2901,-4.2901,-4.2901,-4.2901,-4.2901,-4.2882,-4.2844,-4.267,-4.2589,-4.255,-4.2389,-4.2287,-4.2246,-4.2166,-4.1852,-4.1351,-4.1574,-4.1373,-4.0954,-4.1295,-4.1408,-4.1386,-4.1047,-4.0676,-4.0294,-4.0011,-3.9642,-3.9299,-3.9299,-3.9299,-3.9299,-3.9299,-3.9232,-3.9017,-3.8394,-3.7615,-3.6771,-3.6025,-3.5363,-3.4899,-3.4899,-3.4899,-3.4899,-3.4899,-3.48,-3.4717,-3.4717,-3.4054,-3.3259,-3.263,-3.1934,-3.0787,-2.8873,-2.8936,-2.8572,-2.6651,0.0,-2.887,-2.8293,-2.9466,-3.029,-3.0174,-3.0357,-3.0456,-3.034,-3.0439,-3.077,-3.1399,-3.2133,-3.2812,-3.3442,-3.3673,-3.4154,-3.4883,-3.4899,-3.4899,-3.4899,-3.4899,-3.4899,-3.4932,-3.5777,-3.6506,-3.7152,-3.7961,-3.8656,-3.9191,-3.8876,-3.8722,-3.8738,-3.8476,-3.8335,-3.8262,-3.8205,-3.8148,-3.8091,-4.2901,-4.2901,-4.2901,-4.2901,-4.2901,-4.2901,-4.2901,-4.2901,-4.2901,-4.2901,-4.2901,-4.2901,-4.2901,-4.2901,-4.2901,-4.2901,-4.2901,-4.2901,-4.2901,-4.2901,-4.2901,-4.2901,-4.2901,-4.2901,-4.2901,-4.2901,-4.2901,-4.2901,-4.2805,-4.2767,-4.2767,-4.267,-4.2571,-4.247,-4.247,-4.2249,-4.1892,-4.1913,-4.1744,-4.1503,-4.1582,-4.1604,-4.1582,-4.1386,-4.1071,-4.0659,-4.0286,-4.0037,-3.9859,-3.9677,-3.9616,-3.9616,-3.9616,-3.9484,-3.9232,-3.8874,-3.7715,-3.6357,-3.5611,-3.5148,-3.4899,-3.4899,-3.4899,-3.4899,-3.4899,-3.4899,-3.4899,-3.4899,-3.4303,-3.3713,-3.3365,-3.2381,-3.1283,-3.0294,-2.9731,0.0,0.0,-2.8768,-2.9301,-2.8969,-2.9864,-3.0506,-3.0506,-3.0506,-3.0506,-3.0506,-3.0506,-3.082,-3.1565,-3.2299,-3.305,-3.3773,-3.4187,-3.4551,-3.4899,-3.4899,-3.4899,-3.4899,-3.4899,-3.4899,-3.4932,-3.5661,-3.6406,-3.7152,-3.7871,-3.8626,-3.9299,-3.9121,-3.9067,-3.9067,-3.8931,-3.8892,-3.8865,-3.8683,-3.8628,-3.86,-4.2901,-4.2901,-4.2901,-4.2901,-4.2901,-4.2901,-4.2901,-4.2901,-4.2901,-4.2901,-4.2901,-4.2901,-4.2901,-4.2901,-4.2901,-4.2901,-4.2901,-4.2901,-4.2901,-4.2901,-4.2901,-4.2901,-4.2901,-4.2901,-4.2901,-4.2901,-4.2901,-4.2901,-4.2901,-4.2901,-4.2901,-4.2901,-4.2824,-4.267,-4.267,-4.257,-4.2369,-4.2145,-4.2019,-4.1892,-4.1719,-4.1648,-4.1604,-4.1604,-4.134,-4.0954,-4.0659,-4.049,-4.0368,-4.0104,-4.002,-4.002,-4.002,-3.979,-3.9556,-3.9556,-3.8178,-3.643,-3.542,-3.5148,-3.5114,-3.4932,-3.4899,-3.4899,-3.4899,-3.4899,-3.4899,-3.4899,-3.4435,-3.3988,-3.3822,-3.2878,-3.1929,-3.1432,0.0,0.0,0.0,-2.9446,-2.9579,-2.9413,-3.0042,-3.0506,-3.0506,-3.0506,-3.0506,-3.0506,-3.0506,-3.0903,-3.1797,-3.2381,-3.3133,-3.4021,-3.4601,-3.4899,-3.4899,-3.4899,-3.4899,-3.4899,-3.4899,-3.4899,-3.4916,-3.5479,-3.6158,-3.6887,-3.745,-3.8195,-3.905,-3.905,-3.9149,-3.9299,-3.9299,-3.9299,-3.9272,-3.9013,-3.8914,-3.8903,-4.2901,-4.2901,-4.2901,-4.2901,-4.2901,-4.2901,-4.2901,-4.2901,-4.2901,-4.2901,-4.2901,-4.2901,-4.2901,-4.2901,-4.2901,-4.2901,-4.2901,-4.2901,-4.2901,-4.2901,-4.2901,-4.2901,-4.2901,-4.2901,-4.2901,-4.2901,-4.2901,-4.2901,-4.2901,-4.2901,-4.2901,-4.2901,-4.2882,-4.2881,-4.2881,-4.2767,-4.2589,-4.257,-4.231,-4.1895,-4.1874,-4.1762,-4.1604,-4.1604,-4.134,-4.1001,-4.0977,-4.0724,-4.04,-4.0375,-4.0351,-4.0351,-4.0351,-4.0326,-4.0326,-4.0326,-3.9519,-3.8203,-3.6406,-3.5926,-3.5744,-3.5065,-3.4899,-3.4899,-3.4899,-3.4899,-3.4899,-3.4899,-3.4849,-3.4601,-3.3922,-3.3707,-3.2961,-3.0903,0.0,0.0,-2.8757,-2.9599,-3.0174,-2.9479,-3.0042,-3.0506,-3.0506,-3.0506,-3.0506,-3.0506,-3.0506,-3.1101,-3.2531,-3.2669,-3.3365,-3.4767,-3.4866,-3.4899,-3.4899,-3.4899,-3.4899,-3.4899,-3.4899,-3.4899,-3.4899,-3.4965,-3.5379,-3.6075,-3.6141,-3.697,-3.8295,-3.8295,-3.8676,-3.9299,-3.9299,-3.9299,-3.9299,-3.9272,-3.9272,-3.9272,-4.2901,-4.2901,-4.2901,-4.2901,-4.2901,-4.2901,-4.2901,-4.2901,-4.2901,-4.2901,-4.2901,-4.2901,-4.2901,-4.2901,-4.2901,-4.2901,-4.2901,-4.2901,-4.2901,-4.2901,-4.2901,-4.2901,-4.2901,-4.2901,-4.2901,-4.2901,-4.2901,-4.2901,-4.2901,-4.2901,-4.2901,-4.2901,-4.2901,-4.2901,-4.2901,-4.2862,-4.2786,-4.265,-4.251,-4.2331,-4.2187,-4.1998,-4.1784,-4.1784,-4.1609,-4.134,-4.1094,-4.1071,-4.1117,-4.0866,-4.0772,-4.0772,-4.0772,-4.0611,-4.04,-4.04,-4.0114,-3.9542,-3.8369,-3.7032,-3.5827,-3.5081,-3.4899,-3.4899,-3.4899,-3.4899,-3.4899,-3.4899,-3.4899,-3.4816,-3.4535,-3.4104,-3.3673,-3.3292,0.0,-3.215,-3.1807,-3.1802,-3.1752,-3.147,-3.1283,-3.1184,-3.1184,-3.077,-3.0506,-3.0506,-3.0506,-3.1156,-3.2619,-3.358,-3.4319,-3.4883,-3.4899,-3.4899,-3.4899,-3.4899,-3.4899,-3.4899,-3.4899,-3.4899,-3.4899,-3.4899,-3.5297,-3.6009,-3.6009,-3.6837,-3.8186,-3.8186,-3.8626,-3.9299,-3.9299,-3.9299,-3.9299,-3.9299,-3.9299,-3.9299,-4.2901,-4.2901,-4.2901,-4.2901,-4.2901,-4.2901,-4.2901,-4.2901,-4.2901,-4.2901,-4.2901,-4.2901,-4.2901,-4.2901,-4.2901,-4.2901,-4.2901,-4.2901,-4.2901,-4.2901,-4.2901,-4.2901,-4.2901,-4.2901,-4.2901,-4.2901,-4.2901,-4.2901,-4.2901,-4.2901,-4.2901,-4.2901,-4.2901,-4.2901,-4.2901,-4.2901,-4.2882,-4.2747,-4.2668,-4.2589,-4.245,-4.2267,-4.2019,-4.2019,-4.1892,-4.1653,-4.1391,-4.1431,-4.156,-4.1295,-4.1186,-4.1186,-4.1186,-4.1007,-4.0778,-4.0778,-4.0683,-4.0439,-3.969,-3.8279,-3.679,-3.5702,-3.516,-3.4899,-3.4899,-3.4899,-3.4899,-3.4899,-3.4899,-3.4899,-3.4899,-3.4485,-3.4237,-3.4502,-3.3707,-3.3149,-3.3408,-3.3033,-3.2702,-3.2702,-3.205,-3.1598,-3.1598,-3.0936,-3.0605,-3.0837,-3.0853,-3.1504,-3.2984,-3.422,-3.4899,-3.4899,-3.4899,-3.4899,-3.4899,-3.4899,-3.4899,-3.4899,-3.4899,-3.4899,-3.4899,-3.4899,-3.5181,-3.5644,-3.5644,-3.6357,-3.7516,-3.7516,-3.8079,-3.8941,-3.8941,-3.91,-3.9299,-3.9299,-3.9299,-3.9299,-4.2901,-4.2901,-4.2901,-4.2901,-4.2901,-4.2901,-4.2901,-4.2901,-4.2901,-4.2901,-4.2901,-4.2901,-4.2901,-4.2901,-4.2901,-4.2901,-4.2901,-4.2901,-4.2901,-4.2901,-4.2901,-4.2901,-4.2901,-4.2901,-4.2901,-4.2901,-4.2901,-4.2901,-4.2901,-4.2901,-4.2901,-4.2901,-4.2901,-4.2901,-4.2901,-4.2901,-4.2901,-4.2901,-4.2786,-4.2609,-4.2609,-4.249,-4.2308,-4.2308,-4.2124,-4.1895,-4.1895,-4.1784,-4.1604,-4.1604,-4.1604,-4.1604,-4.1604,-4.1604,-4.1604,-4.1604,-4.1318,-4.0868,-4.0111,-3.9617,-3.8867,-3.7053,-3.5763,-3.4899,-3.4899,-3.4899,-3.4899,-3.4899,-3.4899,-3.4899,-3.4899,-3.4899,-3.4651,-3.3922,-3.3806,-3.3541,-3.2834,-3.2718,-3.2718,-3.2718,-3.2067,-3.1615,-3.1615,-3.0936,-3.0803,-3.1548,-3.1615,-3.226,-3.3707,-3.4502,-3.4899,-3.4899,-3.4899,-3.4899,-3.4899,-3.4899,-3.4899,-3.4899,-3.4899,-3.4899,-3.4899,-3.4899,-3.4899,-3.4899,-3.4899,-3.5313,-3.6009,-3.6009,-3.6887,-3.8186,-3.8228,-3.8659,-3.9299,-3.9299,-3.9299,-3.9299,-4.2901,-4.2901,-4.2901,-4.2901,-4.2901,-4.2901,-4.2901,-4.2901,-4.2901,-4.2901,-4.2901,-4.2901,-4.2901,-4.2901,-4.2901,-4.2901,-4.2901,-4.2901,-4.2901,-4.2901,-4.2901,-4.2901,-4.2901,-4.2901,-4.2901,-4.2901,-4.2901,-4.2901,-4.2901,-4.2901,-4.2901,-4.2901,-4.2901,-4.2901,-4.2901,-4.2901,-4.2901,-4.2901,-4.2881,-4.2824,-4.2824,-4.2689,-4.251,-4.251,-4.2371,-4.2166,-4.2166,-4.2124,-4.21,-4.21,-4.21,-4.2058,-4.187,-4.1805,-4.1784,-4.1648,-4.1515,-4.1356,-4.1151,-4.0216,-3.8867,-3.7053,-3.6343,-3.5877,-3.5086,-3.4899,-3.4899,-3.4899,-3.4899,-3.4899,-3.4899,-3.4899,-3.4816,-3.4601,-3.4568,-3.4485,-3.427,-3.4237,-3.4237,-3.4237,-3.3143,-3.258,-3.3094,-3.1995,-3.1581,-3.2315,-3.2845,-3.3342,-3.3773,-3.4502,-3.4899,-3.4899,-3.4899,-3.4899,-3.4899,-3.4899,-3.4899,-3.4899,-3.4899,-3.4899,-3.4899,-3.4899,-3.4899,-3.4899,-3.4899,-3.5313,-3.6042,-3.6572,-3.735,-3.8261,-3.8758,-3.9116,-3.9299,-3.9299,-3.9299,-3.9299,-4.2901,-4.2901,-4.2901,-4.2901,-4.2901,-4.2901,-4.2901,-4.2901,-4.2901,-4.2901,-4.2901,-4.2901,-4.2901,-4.2901,-4.2901,-4.2901,-4.2901,-4.2901,-4.2901,-4.2901,-4.2901,-4.2901,-4.2901,-4.2901,-4.2901,-4.2901,-4.2901,-4.2901,-4.2901,-4.2901,-4.2901,-4.2901,-4.2901,-4.2901,-4.2901,-4.2901,-4.2901,-4.2901,-4.2901,-4.2901,-4.2901,-4.2843,-4.2709,-4.2709,-4.2591,-4.243,-4.243,-4.2369,-4.2308,-4.2308,-4.2308,-4.2267,-4.2103,-4.2061,-4.2019,-4.1784,-4.1719,-4.1697,-4.1626,-4.0906,-3.9842,-3.8294,-3.7121,-3.6174,-3.5501,-3.5098,-3.4899,-3.4899,-3.4899,-3.4899,-3.4899,-3.4899,-3.4899,-3.4899,-3.4899,-3.4899,-3.4899,-3.4899,-3.4899,-3.4899,-3.3856,-3.3292,-3.3756,-3.2729,-3.2348,-3.3083,-3.3806,-3.4237,-3.4237,-3.4651,-3.4899,-3.4899,-3.4899,-3.4899,-3.4899,-3.4899,-3.4899,-3.4899,-3.4899,-3.4899,-3.4899,-3.4899,-3.4899,-3.4899,-3.4899,-3.5148,-3.5595,-3.6059,-3.6671,-3.7384,-3.7814,-3.8188,-3.8427,-3.8427,-3.8593,-3.8858,-4.2901,-4.2901,-4.2901,-4.2901,-4.2901,-4.2901,-4.2901,-4.2901,-4.2901,-4.2901,-4.2901,-4.2901,-4.2901,-4.2901,-4.2901,-4.2901,-4.2901,-4.2901,-4.2901,-4.2901,-4.2901,-4.2901,-4.2901,-4.2901,-4.2901,-4.2901,-4.2901,-4.2901,-4.2901,-4.2901,-4.2901,-4.2901,-4.2901,-4.2901,-4.2901,-4.2901,-4.2901,-4.2901,-4.2901,-4.2901,-4.2901,-4.2901,-4.2901,-4.2901,-4.2786,-4.2629,-4.2629,-4.251,-4.2348,-4.2348,-4.2348,-4.2348,-4.2328,-4.2328,-4.2287,-4.2019,-4.1934,-4.1892,-4.1675,-4.1604,-4.134,-4.0271,-3.8146,-3.6264,-3.6099,-3.5503,-3.4982,-3.4916,-3.4899,-3.4899,-3.4899,-3.4899,-3.4899,-3.4899,-3.4899,-3.4899,-3.4899,-3.4899,-3.4899,-3.4899,-3.4237,-3.3822,-3.3889,-3.3276,-3.3183,-3.3839,-3.4518,-3.4899,-3.4899,-3.4899,-3.4899,-3.4899,-3.4899,-3.4899,-3.4899,-3.4899,-3.4899,-3.4899,-3.4899,-3.4899,-3.4899,-3.4899,-3.4899,-3.4899,-3.4899,-3.4899,-3.4899,-3.4965,-3.5396,-3.6009,-3.6075,-3.6506,-3.7102,-3.7102,-3.7533,-3.8086,-4.2939,-4.2901,-4.2901,-4.2901,-4.2901,-4.2901,-4.2901,-4.2901,-4.2901,-4.2901,-4.2901,-4.2901,-4.2901,-4.2901,-4.2901,-4.2901,-4.2901,-4.2901,-4.2901,-4.2901,-4.2901,-4.2901,-4.2901,-4.2901,-4.2901,-4.2901,-4.2901,-4.2901,-4.2901,-4.2901,-4.2901,-4.2901,-4.2901,-4.2901,-4.2901,-4.2901,-4.2901,-4.2901,-4.2901,-4.2901,-4.2901,-4.2901,-4.2901,-4.2901,-4.2863,-4.2825,-4.2825,-4.2824,-4.2786,-4.2786,-4.2786,-4.2747,-4.2571,-4.253,-4.249,-4.2287,-4.2207,-4.2163,-4.1913,-4.1635,-4.1333,-4.0886,-3.9824,-3.8463,-3.6835,-3.6102,-3.5595,-3.5015,-3.4899,-3.4899,-3.4899,-3.4899,-3.4899,-3.4899,-3.4899,-3.4899,-3.4899,-3.4899,-3.4899,-3.4899,-3.4237,-3.4021,-3.4601,-3.4518,-3.4485,-3.4651,-3.48,-3.4899,-3.4899,-3.4899,-3.4899,-3.4899,-3.4899,-3.4899,-3.4899,-3.4899,-3.4899,-3.4899,-3.4899,-3.4899,-3.4899,-3.4899,-3.4899,-3.4899,-3.4899,-3.4899,-3.4932,-3.5528,-3.586,-3.6059,-3.6638,-3.697,-3.7102,-3.7102,-3.7201,-3.735,-4.3142,-4.3105,-4.305,-4.292,-4.2901,-4.2901,-4.2901,-4.2901,-4.2901,-4.2901,-4.2901,-4.2901,-4.2901,-4.2901,-4.2901,-4.2901,-4.2901,-4.2901,-4.2901,-4.2901,-4.2901,-4.2901,-4.2901,-4.2901,-4.2901,-4.2901,-4.2901,-4.2901,-4.2901,-4.2901,-4.2901,-4.2901,-4.2901,-4.2901,-4.2901,-4.2901,-4.2901,-4.2901,-4.2901,-4.2901,-4.2901,-4.2901,-4.2901,-4.2901,-4.2901,-4.2901,-4.2901,-4.2901,-4.2901,-4.2901,-4.2901,-4.2882,-4.2786,-4.2747,-4.2709,-4.251,-4.245,-4.2389,-4.2145,-4.1959,-4.1766,-4.1503,-4.1036,-4.0184,-3.8297,-3.7265,-3.654,-3.6053,-3.5515,-3.5142,-3.5142,-3.5001,-3.4899,-3.4899,-3.4899,-3.4899,-3.4899,-3.4899,-3.4899,-3.4899,-3.4551,-3.4468,-3.4866,-3.4899,-3.4899,-3.4899,-3.4899,-3.4899,-3.4899,-3.4899,-3.4899,-3.4899,-3.4899,-3.4899,-3.4899,-3.4899,-3.4899,-3.4899,-3.4899,-3.4899,-3.4899,-3.4899,-3.4899,-3.4899,-3.4899,-3.4899,-3.4932,-3.5313,-3.5479,-3.5512,-3.5909,-3.6059,-3.6059,-3.6059,-3.6274,-3.6638,-4.3425,-4.3338,-4.3232,-4.3013,-4.292,-4.2901,-4.2901,-4.2901,-4.2901,-4.2901,-4.2901,-4.2901,-4.2901,-4.2901,-4.2901,-4.2901,-4.2901,-4.2901,-4.2901,-4.2901,-4.2901,-4.2901,-4.2901,-4.2901,-4.2901,-4.2901,-4.2901,-4.2901,-4.2901,-4.2901,-4.2901,-4.2901,-4.2901,-4.2901,-4.2901,-4.2901,-4.2901,-4.2901,-4.2901,-4.2901,-4.2901,-4.2901,-4.2901,-4.2901,-4.2901,-4.2901,-4.2901,-4.2901,-4.2901,-4.2901,-4.2901,-4.2901,-4.2901,-4.2901,-4.2881,-4.2689,-4.265,-4.2609,-4.2409,-4.2348,-4.2287,-4.204,-4.1899,-4.149,-4.0066,-3.8727,-3.7676,-3.7237,-3.6373,-3.565,-3.5509,-3.5264,-3.5071,-3.5071,-3.5071,-3.5048,-3.4977,-3.4994,-3.4954,-3.4899,-3.4899,-3.4899,-3.4899,-3.4899,-3.4899,-3.4899,-3.4899,-3.4899,-3.4899,-3.4899,-3.4899,-3.4899,-3.4899,-3.4899,-3.4899,-3.4899,-3.4899,-3.4899,-3.4899,-3.4899,-3.4899,-3.4899,-3.4899,-3.4899,-3.4899,-3.4899,-3.4899,-3.4899,-3.4899,-3.4899,-3.4899,-3.4899,-3.4899,-3.4899,-3.5297,-3.5909,-4.3695,-4.346,-4.3285,-4.3249,-4.305,-4.2901,-4.2901,-4.2901,-4.2901,-4.2901,-4.2901,-4.2901,-4.2901,-4.2901,-4.2901,-4.2901,-4.2901,-4.2901,-4.2901,-4.2901,-4.2901,-4.2901,-4.2901,-4.2901,-4.2901,-4.2901,-4.2901,-4.2901,-4.2901,-4.2901,-4.2901,-4.2901,-4.2901,-4.2901,-4.2901,-4.2901,-4.2901,-4.2901,-4.2901,-4.2901,-4.2901,-4.2901,-4.2901,-4.2901,-4.2901,-4.2901,-4.2901,-4.2901,-4.2901,-4.2901,-4.2901,-4.2901,-4.2901,-4.2901,-4.2882,-4.2881,-4.2862,-4.2824,-4.2611,-4.257,-4.251,-4.2308,-4.2351,-4.2315,-4.169,-4.0428,-3.8996,-3.7646,-3.71,-3.6666,-3.5961,-3.5798,-3.5754,-3.5754,-3.5754,-3.5644,-3.5379,-3.5333,-3.5218,-3.4947,-3.4899,-3.4899,-3.4899,-3.4899,-3.4899,-3.4899,-3.4899,-3.4899,-3.4899,-3.4899,-3.4899,-3.4899,-3.4899,-3.4899,-3.4899,-3.4899,-3.4899,-3.4899,-3.4899,-3.4899,-3.4899,-3.4899,-3.4899,-3.4899,-3.4899,-3.4899,-3.4899,-3.4899,-3.4899,-3.4899,-3.4899,-3.4899,-3.4899,-3.4899,-3.4965,-3.5048,-4.3968,-4.3841,-4.3712,-4.3545,-4.3425,-4.3355,-4.3355,-4.3214,-4.3105,-4.3105,-4.2995,-4.2901,-4.2901,-4.2901,-4.2901,-4.2901,-4.2901,-4.2901,-4.2901,-4.2901,-4.2901,-4.2901,-4.2901,-4.2901,-4.2901,-4.2901,-4.2901,-4.2901,-4.2901,-4.2901,-4.2901,-4.2901,-4.2901,-4.2901,-4.2901,-4.2901,-4.2901,-4.2901,-4.2901,-4.2901,-4.2901,-4.2901,-4.2901,-4.2901,-4.2901,-4.2901,-4.2901,-4.2901,-4.2901,-4.2901,-4.2901,-4.2901,-4.2901,-4.2901,-4.2901,-4.2901,-4.2901,-4.2882,-4.2786,-4.2767,-4.2728,-4.253,-4.2611,-4.2689,-4.2353,-4.178,-4.0944,-3.9582,-3.8291,-3.7323,-3.7105,-3.6436,-3.5907,-3.5907,-3.5907,-3.5842,-3.5705,-3.5683,-3.5549,-3.5218,-3.5001,-3.4899,-3.4899,-3.4899,-3.4899,-3.4899,-3.4899,-3.4899,-3.4899,-3.4899,-3.4899,-3.4899,-3.4899,-3.4899,-3.4899,-3.4899,-3.4899,-3.4899,-3.4899,-3.4899,-3.4899,-3.4899,-3.4899,-3.4899,-3.4899,-3.4899,-3.4899,-3.4899,-3.4899,-3.4899,-3.4899,-3.4899,-3.4899,-3.4899,-3.4899,-3.4899]},{"header":{"parameterUnit":"m.s-1","parameterCategory":1,"la1":30.6,"la2":28.766,"lo1":-90.7593,"lo2":-88.6598,"dy":0.0162,"dx":0.0183,"nx":116,"ny":114,"refTime":"2024-06-21T06:00:00:Z","depth":0,"parameterNumber":3,"parameterNumberName":"V-component_of_WINDS"},"data":[0.0,0.0,0.0,0.0,0.0,0.0,0.0,0.0,0.0,0.0,0.0,0.0,0.0,0.0,0.0,0.0,0.0,0.0,0.0,0.0,0.0,0.0,0.0,0.0,0.0,0.0,0.0,0.0,0.0,0.0,0.0,0.0,0.0,0.0,0.0,0.0,0.0,0.0,0.0,0.0,0.0,0.0,0.0,0.0,0.0,0.0,0.0,0.0,0.0,0.0,0.0,0.0,0.0,0.0,0.0,0.0,0.0,0.0,0.0,0.0,0.0,0.0,0.0,0.0,0.0,0.0,0.0,0.0,0.0,0.0,0.0,0.0,0.0,0.0,0.0,0.0,0.0,0.0,0.0,0.0,0.0,0.0,0.0,0.0,0.0,0.0,0.0,0.0,0.0,0.0,0.0,0.0,0.0,0.0,0.0,0.0,0.0,0.0,0.0,0.0,0.0,0.0,0.0,0.0,0.0,0.0,0.0,0.0,0.0,0.0,0.0,0.0,0.0,0.0,0.0,0.0,0.0,0.0,0.0,0.0,0.0,0.0,0.0,0.0,0.0,0.0,0.0,0.0,0.0,0.0,0.0,0.0,0.0,0.0,0.0,0.0,0.0,0.0,0.0,0.0,0.0,0.0,0.0,0.0,0.0,0.0,0.0,0.0,0.0,0.0,0.0,0.0,0.0,0.0,0.0,0.0,0.0,0.0,0.0,0.0,0.0,0.0,0.0,0.0,0.0,0.0,0.0,0.0,0.0,0.0,0.0,0.0,0.0,0.0,0.0,0.0,0.0,0.0,0.0,0.0,0.0,0.0,0.0,0.0,0.0,0.0,0.0,0.0,0.0,0.0,0.0,0.0,0.0,0.0,0.0,0.0,0.0,0.0,0.0,0.0,0.0,0.0,0.0,0.0,0.0,0.0,0.0,0.0,0.0,0.0,0.0,0.0,0.0,0.0,0.0,0.0,0.0,0.0,0.0,0.0,0.0,0.0,0.0,0.0,0.0,0.0,0.0,0.0,0.0,0.0,0.0,0.0,0.0,0.0,0.0,0.0,0.0,0.0,0.0,0.0,0.0,0.0,0.0,0.0,0.0,0.0,0.0,0.0,0.0,0.0,0.0,0.0,0.0,0.0,0.0,0.0,0.0,0.0,0.0,0.0,0.0,0.0,0.0,0.0,0.0,0.0,0.0,0.0,0.0,0.0,0.0,0.0,0.0,0.0,0.0,0.0,0.0,0.0,0.0,0.0,0.0,0.0,0.0,0.0,0.0,0.0,0.0,0.0,0.0,0.0,0.0,0.0,0.0,0.0,0.0,0.0,0.0,0.0,0.0,0.0,0.0,0.0,0.0,0.0,0.0,0.0,0.0,0.0,0.0,0.0,0.0,0.0,0.0,0.0,0.0,0.0,0.0,0.0,0.0,0.0,0.0,0.0,0.0,0.0,0.0,0.0,0.0,0.0,0.0,0.0,0.0,0.0,0.0,0.0,0.0,0.0,0.0,0.0,0.0,0.0,0.0,0.0,0.0,0.0,0.0,0.0,0.0,0.0,0.0,0.0,0.0,0.0,0.0,0.0,0.0,0.0,0.0,0.0,0.0,0.0,0.0,0.0,0.0,0.0,0.0,0.0,0.0,0.0,0.0,0.0,0.0,0.0,0.0,0.0,0.0,0.0,0.0,0.0,0.0,0.0,0.0,0.0,0.0,0.0,0.0,0.0,0.0,0.0,0.0,0.0,0.0,0.0,0.0,0.0,0.0,0.0,0.0,0.0,0.0,0.0,0.0,0.0,0.0,0.0,0.0,0.0,0.0,0.0,0.0,0.0,0.0,0.0,0.0,0.0,0.0,0.0,0.0,0.0,0.0,0.0,0.0,0.0,0.0,0.0,0.0,0.0,0.0,0.0,0.0,0.0,0.0,0.0,0.0,0.0,0.0,0.0,0.0,0.0,0.0,0.0,0.0,0.0,0.0,0.0,0.0,0.0,0.0,0.0,0.0,0.0,0.0,0.0,0.0,0.0,0.0,0.0,0.0,0.0,0.0,0.0,0.0,0.0,0.0,0.0,0.0,0.0,0.0,0.0,0.0,0.0,0.0,0.0,0.0,0.0,0.0,0.0,0.0,0.0,0.0,0.0,0.0,0.0,0.0,0.0,0.0,0.0,0.0,0.0,0.0,0.0,0.0,0.0,0.0,0.0,0.0,0.0,0.0,0.0,0.0,0.0,0.0,0.0,0.0,0.0,0.0,0.0,0.0,0.0,0.0,0.0,0.0,0.0,0.0,0.0,0.0,0.0,0.0,0.0,0.0,0.0,0.0,0.0,0.0,0.0,0.0,0.0,0.0,0.0,0.0,0.0,0.0,0.0,0.0,0.0,0.0,0.0,0.0,0.0,0.0,0.0,0.0,0.0,0.0,0.0,0.0,0.0,0.0,0.0,0.0,0.0,0.0,0.0,0.0,0.0,0.0,0.0,0.0,0.0,0.0,0.0,0.0,0.0,0.0,0.0,0.0,0.0,0.0,0.0,0.0,0.0,0.0,0.0,0.0,0.0,0.0,0.0,0.0,0.0,0.0,0.0,0.0,0.0,0.0,0.0,0.0,0.0,0.0,0.0,0.0,0.0,0.0,0.0,0.0,0.0,0.0,0.0,0.0,0.0,0.0,0.0,0.0,0.0,0.0,0.0,0.0,0.0,0.0,0.0,0.0,0.0,0.0,0.0,0.0,0.0,0.0,0.0,0.0,0.0,0.0,0.0,0.0,0.0,0.0,0.0,0.0,0.0,0.0,0.0,0.0,0.0,0.0,0.0,0.0,0.0,0.0,0.0,0.0,0.0,0.0,0.0,0.0,0.0,0.0,0.0,0.0,0.0,0.0,0.0,0.0,0.0,0.0,0.0,0.0,0.0,0.0,0.0,0.0,0.0,0.0,0.0,0.0,0.0,0.0,0.0,0.0,0.0,0.0,0.0,0.0,0.0,0.0,0.0,0.0,0.0,0.0,0.0,0.0,0.0,0.0,0.0,0.0,0.0,0.0,0.0,0.0,0.0,0.0,0.0,0.0,0.0,0.0,0.0,0.0,0.0,0.0,0.0,0.0,0.0,0.0,0.0,0.0,0.0,0.0,0.0,0.0,0.0,0.0,0.0,0.0,0.0,0.0,0.0,0.0,0.0,0.0,0.0,0.0,0.0,0.0,0.0,0.0,0.0,0.0,0.0,0.0,0.0,0.0,0.0,0.0,0.0,0.0,0.0,0.0,0.0,0.0,0.0,0.0,0.0,0.0,0.0,0.0,0.0,0.0,0.0,0.0,0.0,0.0,0.0,0.0,0.0,0.0,0.0,0.0,0.0,0.0,0.0,0.0,0.0,0.0,0.0,0.0,0.0,0.0,0.0,0.0,0.0,0.0,0.0,0.0,0.0,0.0,0.0,0.0,0.0,0.0,0.0,0.0,0.0,0.0,0.0,0.0,0.0,0.0,0.0,0.0,0.0,0.0,0.0,0.0,0.0,0.0,0.0,0.0,0.0,0.0,0.0,0.0,0.0,0.0,0.0,0.0,0.0,0.0,0.0,0.0,0.0,0.0,0.0,0.0,0.0,0.0,0.0,0.0,0.0,0.0,0.0,0.0,0.0,0.0,0.0,0.0,0.0,0.0,0.0,0.0,0.0,0.0,0.0,0.0,0.0,0.0,0.0,0.0,0.0,0.0,0.0,0.0,0.0,0.0,0.0,0.0,0.0,0.0,0.0,0.0,0.0,0.0,0.0,0.0,0.0,0.0,0.0,0.0,0.0,0.0,0.0,0.0,0.0,0.0,0.0,0.0,0.0,0.0,0.0,0.0,0.0,0.0,0.0,0.0,0.0,0.0,0.0,0.0,0.0,0.0,0.0,0.0,0.0,0.0,0.0,0.0,0.0,0.0,0.0,0.0,0.0,0.0,0.0,0.0,0.0,0.0,0.0,0.0,0.0,0.0,0.0,0.0,0.0,0.0,0.0,0.0,0.0,0.0,0.0,0.0,0.0,0.0,0.0,0.0,0.0,0.0,0.0,0.0,0.0,0.0,0.0,0.0,0.0,0.0,0.0,0.0,0.0,0.0,0.0,0.0,0.0,0.0,0.0,0.0,0.0,0.0,0.0,0.0,0.0,0.0,0.0,0.0,0.0,0.0,0.0,0.0,0.0,0.0,0.0,0.0,0.0,0.0,0.0,0.0,0.0,0.0,0.0,0.0,0.0,0.0,0.0,0.0,0.0,0.0,0.0,0.0,0.0,0.0,0.0,0.0,0.0,0.0,0.0,0.0,0.0,0.0,0.0,0.0,0.0,0.0,0.0,0.0,0.0,0.0,0.0,0.0,0.0,0.0,0.0,0.0,0.0,0.0,0.0,0.0,0.0,0.0,0.0,0.0,0.0,0.0,0.0,0.0,0.0,0.0,0.0,0.0,0.0,0.0,0.0,0.0,0.0,0.0,0.0,0.0,0.0,0.0,0.0,0.0,0.0,0.0,0.0,0.0,0.0,0.0,0.0,0.0,0.0,0.0,0.0,0.0,0.0,0.0,0.0,0.0,0.0,0.0,0.0,0.0,0.0,0.0,0.0,0.0,0.0,0.0,0.0,0.0,0.0,0.0,0.0,0.0,0.0,0.0,0.0,0.0,0.0,0.0,0.0,0.0,0.0,0.0,0.0,0.0,0.0,0.0,0.0,0.0,0.0,0.0,0.0,0.0,0.0,0.0,0.0,0.0,0.0,0.0,0.0,0.0,0.0,0.0,0.0,0.0,0.0,0.0,0.0,0.0,0.0,0.0,0.0,0.0,0.0,0.0,0.0,0.0,0.0,0.0,0.0,0.0,0.0,0.0,0.0,0.0,0.0,0.0,0.0,0.0,0.0,0.0,0.0,0.0,0.0,0.0,0.0,0.0,0.0,0.0,0.0,0.0,0.0,0.0,0.0,0.0,0.0,0.0,0.0,0.0,0.0,0.0,0.0,0.0,0.0,0.0,0.0,0.0,0.0,0.0,0.0,0.0,0.0,0.0,0.0,0.0,0.0,0.0,0.0,0.0,0.0,0.0,0.0,0.0,0.0,0.0,0.0,0.0,0.0,0.0,0.0,0.0,0.0,0.0,0.0,0.0,0.0,0.0,0.0,0.0,0.0,0.0,0.0,0.0,0.0,0.0,0.0,0.0,0.0,0.0,0.0,0.0,0.0,0.0,0.0,0.0,0.0,0.0,0.0,0.0,0.0,0.0,0.0,0.0,0.0,0.0,0.0,0.0,0.0,0.0,0.0,0.0,0.0,0.0,0.0,0.0,0.0,0.0,0.0,0.0,0.0,0.0,0.0,0.0,0.0,0.0,0.0,0.0,0.0,0.0,0.0,0.0,0.0,0.0,0.0,0.0,0.0,0.0,0.0,0.0,0.0,0.0,0.0,0.0,0.0,0.0,0.0,0.0,0.0,0.0,0.0,0.0,0.0,0.0,0.0,0.0,0.0,0.0,0.0,0.0,0.0,0.0,0.0,0.0,0.0,0.0,0.0,0.0,0.0,0.0,0.0,0.0,0.0,0.0,0.0,0.0,0.0,0.0,0.0,0.0,0.0,0.0,0.0,0.0,0.0,0.0,0.0,0.0,0.0,0.0,0.0,0.0,0.0,0.0,0.0,0.0,0.0,0.0,0.0,0.0,0.0,0.0,0.0,0.0,0.0,0.0,0.0,0.0,0.0,0.0,0.0,0.0,0.0,0.0,0.0,0.0,0.0,0.0,0.0,0.0,0.0,0.0,0.0,0.0,0.0,0.0,0.0,0.0,0.0,0.0,0.0,0.0,0.0,0.0,0.0,0.0,0.0,0.0,0.0,0.0,0.0,0.0,0.0,0.0,0.0,0.0,0.0,0.0,0.0,0.0,0.0,0.0,0.0,0.0,0.0,0.0,0.0,0.0,0.0,0.0,0.0,0.0,0.0,0.0,0.0,0.0,0.0,0.0,0.0,0.0,0.0,0.0,0.0,0.0,0.0,0.0,0.0,0.0,0.0,0.0,0.0,0.0,0.0,0.0,0.0,0.0,0.0,0.0,0.0,0.0,0.0,0.0,0.0,0.0,0.0,0.0,0.0,0.0,0.0,-2.4486,0.0,0.0,0.0,0.0,0.0,0.0,0.0,0.0,0.0,0.0,0.0,0.0,0.0,0.0,0.0,0.0,0.0,0.0,0.0,0.0,0.0,0.0,0.0,0.0,-1.2018,-1.2907,-1.2937,-1.279,-1.2753,-1.2919,0.0,0.0,0.0,-1.1966,-1.1827,-1.1687,-1.1698,-1.1831,-1.2043,-1.2548,-1.3041,-1.3489,-1.326,-1.2754,-1.2031,0.0,0.0,0.0,0.0,0.0,0.0,0.0,0.0,0.0,0.0,0.0,0.0,0.0,0.0,0.0,0.0,0.0,0.0,0.0,0.0,0.0,0.0,0.0,0.0,0.0,0.0,0.0,0.0,0.0,0.0,0.0,0.0,0.0,0.0,0.0,0.0,0.0,0.0,0.0,0.0,0.0,0.0,0.0,0.0,0.0,0.0,0.0,0.0,0.0,0.0,0.0,0.0,0.0,0.0,0.0,0.0,0.0,0.0,0.0,0.0,0.0,0.0,0.0,0.0,0.0,0.0,0.0,0.0,0.0,0.0,0.0,-2.616,0.0,0.0,0.0,0.0,0.0,0.0,0.0,0.0,0.0,0.0,0.0,0.0,0.0,0.0,0.0,0.0,0.0,0.0,0.0,0.0,0.0,-1.1006,-1.087,-1.2354,-1.3423,-1.3569,-1.3344,-1.3325,-1.3676,-1.3028,-1.2561,-1.2343,-1.2488,-1.247,-1.2233,-1.2751,-1.3256,-1.373,-1.4431,-1.5361,-1.6407,-1.6417,-1.5797,-1.4636,-1.3797,0.0,0.0,0.0,0.0,0.0,0.0,0.0,0.0,0.0,0.0,0.0,0.0,0.0,0.0,0.0,0.0,0.0,0.0,0.0,0.0,0.0,0.0,0.0,0.0,0.0,0.0,0.0,0.0,0.0,0.0,0.0,0.0,0.0,0.0,0.0,0.0,0.0,0.0,0.0,0.0,0.0,0.0,0.0,0.0,0.0,0.0,0.0,0.0,0.0,0.0,0.0,0.0,0.0,0.0,0.0,0.0,0.0,0.0,0.0,0.0,0.0,0.0,0.0,0.0,-3.3087,-3.3958,-3.3958,-3.4259,-3.4638,-3.1092,-3.0094,-3.0764,0.0,0.0,0.0,0.0,0.0,0.0,0.0,0.0,0.0,0.0,0.0,0.0,0.0,0.0,0.0,0.0,0.0,0.0,0.0,0.0,-1.1423,-1.1861,-1.2943,-1.3832,-1.4308,-1.4306,-1.4462,-1.4847,-1.3875,-1.3266,-1.3228,-1.2976,-1.2823,-1.2804,-1.3268,-1.3785,-1.4281,-1.5659,-1.7045,-1.8495,-1.8495,-1.8632,-1.8793,-1.6522,-1.574,-1.5979,0.0,0.0,0.0,0.0,0.0,0.0,0.0,0.0,0.0,0.0,0.0,0.0,0.0,0.0,0.0,0.0,0.0,0.0,0.0,0.0,0.0,0.0,0.0,0.0,0.0,0.0,0.0,0.0,0.0,0.0,0.0,0.0,0.0,0.0,0.0,0.0,0.0,0.0,0.0,0.0,0.0,-1.9558,-2.1014,0.0,0.0,0.0,0.0,0.0,0.0,0.0,0.0,0.0,0.0,0.0,0.0,0.0,0.0,-3.3206,-3.4478,-3.5217,-3.5386,-3.6501,-3.6866,-3.6501,-3.6501,-3.6838,-3.7386,-3.681,0.0,-3.2841,-3.1935,0.0,0.0,0.0,0.0,0.0,0.0,0.0,0.0,0.0,0.0,0.0,0.0,0.0,0.0,0.0,0.0,0.0,0.0,0.0,0.0,0.0,-1.4002,-1.5299,-1.576,-1.5902,-1.5897,-1.5777,-1.485,-1.4054,-1.354,-1.337,-1.3291,-1.3291,-1.4052,-1.5257,-1.6922,-1.815,-1.9378,-2.0595,-2.0595,-2.0871,-2.1307,-1.9895,-1.8598,-1.7332,-1.5624,0.0,0.0,0.0,0.0,0.0,0.0,0.0,0.0,0.0,0.0,0.0,0.0,0.0,0.0,0.0,0.0,0.0,0.0,0.0,0.0,0.0,0.0,0.0,0.0,0.0,0.0,0.0,0.0,0.0,0.0,0.0,0.0,0.0,0.0,0.0,0.0,0.0,0.0,0.0,-1.966,-2.1914,-2.342,-2.3429,-2.336,0.0,0.0,0.0,0.0,0.0,0.0,0.0,0.0,0.0,-3.2714,-3.4267,-3.5658,-3.6824,-3.806,-3.8847,-3.9198,-3.9732,-4.0041,-4.0168,-4.0168,-4.028,-4.0533,-4.0533,-3.9367,-3.7316,-3.5293,-3.3424,-3.162,0.0,0.0,0.0,0.0,0.0,-3.0066,0.0,0.0,0.0,0.0,0.0,0.0,0.0,0.0,0.0,0.0,0.0,0.0,-1.3346,-1.5162,-1.6578,-1.7146,-1.7154,-1.7045,-1.6819,-1.566,-1.4713,-1.4129,-1.3898,-1.3788,-1.3788,-1.5165,-1.7002,-1.9287,-2.0297,-2.1287,-2.2284,-2.2284,-2.2581,-2.3041,-2.2502,-2.1161,-1.9166,-1.7565,-1.6359,-1.5418,0.0,0.0,0.0,0.0,0.0,0.0,0.0,0.0,0.0,0.0,0.0,0.0,0.0,0.0,0.0,0.0,0.0,0.0,0.0,0.0,0.0,0.0,0.0,0.0,0.0,0.0,0.0,0.0,0.0,0.0,0.0,0.0,0.0,0.0,0.0,0.0,0.0,-2.23,-2.4234,-2.5964,-2.6398,-2.6465,0.0,0.0,0.0,0.0,0.0,0.0,-3.2075,-3.3368,-3.4829,-3.6553,-3.8046,-3.9156,-3.9858,-4.073,-4.1404,-4.1868,-4.1868,-4.2121,-4.2584,-4.2584,-4.2584,-4.2584,-4.2584,-4.205,-4.0969,-3.8173,-3.629,-3.4989,-3.3494,-3.2904,-3.2946,-3.341,-3.3578,-3.3775,0.0,0.0,0.0,0.0,0.0,0.0,0.0,0.0,0.0,0.0,0.0,-1.3919,-1.5372,-1.6287,-1.7193,-1.823,-1.7629,-1.7484,-1.816,-1.6125,-1.5074,-1.5484,-1.4766,-1.4372,-1.4372,-1.6713,-1.873,-2.0331,-2.1321,-2.2341,-2.3327,-2.3327,-2.3602,-2.4097,-2.3556,-2.2995,-2.2351,-2.0343,-1.9183,-1.8495,-1.6499,0.0,0.0,0.0,0.0,0.0,0.0,0.0,0.0,0.0,0.0,0.0,0.0,0.0,0.0,0.0,0.0,0.0,0.0,0.0,0.0,0.0,0.0,0.0,0.0,0.0,0.0,0.0,0.0,0.0,0.0,0.0,0.0,0.0,0.0,0.0,0.0,0.0,0.0,-2.9153,-2.988,0.0,0.0,0.0,0.0,-3.1935,-3.3178,-3.468,-3.6557,-3.7889,-3.9155,-4.0378,-4.1081,-4.1741,-4.2432,-4.2458,-4.25,-4.2528,-4.2528,-4.2556,-4.2584,-4.2584,-4.2584,-4.2584,-4.2584,-4.2542,-4.2331,-4.0393,-3.8847,-3.7653,-3.6964,-3.6712,-3.6712,-3.674,-3.6754,-3.6768,0.0,0.0,0.0,-0.8761,-0.8896,-0.9069,-0.9272,-0.9942,-1.0634,-1.1224,-1.3137,-1.4799,-1.5736,-1.767,-1.8931,-1.8925,-1.956,-1.9535,-1.8572,-1.7453,-1.6927,-1.7146,-1.6276,-1.6451,-1.7771,-1.896,-2.0343,-2.187,-2.2525,-2.3224,-2.3925,-2.3925,-2.4189,-2.4636,-2.4143,-2.4005,-2.3959,-2.1661,-2.0189,-1.9264,-1.7557,-1.605,0.0,0.0,0.0,0.0,0.0,0.0,0.0,0.0,0.0,0.0,0.0,0.0,0.0,0.0,0.0,0.0,0.0,0.0,0.0,0.0,0.0,0.0,0.0,0.0,0.0,0.0,0.0,0.0,0.0,0.0,0.0,0.0,0.0,0.0,0.0,0.0,0.0,-3.1691,-3.289,0.0,-3.3234,-3.3572,-3.4211,-3.5264,-3.6515,-3.785,-3.9297,-4.0168,-4.1025,-4.1882,-4.25,-4.2935,-4.3174,-4.3554,-4.3764,-4.3764,-4.3764,-4.3764,-4.3764,-4.3764,-4.3764,-4.3764,-4.3764,-4.354,-4.3118,-4.2444,-4.1432,-4.0224,-3.962,-3.9128,-3.8735,-3.8382,-3.8241,-3.8241,-0.8379,-0.8505,0.0,-0.8775,-0.8962,-0.9207,-0.9484,-1.0214,-1.1041,-1.1903,-1.393,-1.5615,-1.6437,-1.8517,-1.9724,-1.9484,-2.0014,-1.9919,-1.893,-1.7995,-1.7566,-1.7774,-1.7338,-1.7985,-1.9895,-2.0584,-2.1583,-2.2937,-2.3419,-2.3912,-2.4441,-2.4441,-2.4705,-2.5164,-2.4855,-2.4889,-2.5073,-2.3408,-2.196,-2.0572,-1.9023,-1.7909,-1.7002,0.0,0.0,0.0,0.0,0.0,0.0,0.0,0.0,0.0,0.0,0.0,0.0,0.0,0.0,0.0,0.0,0.0,0.0,0.0,0.0,0.0,0.0,0.0,0.0,0.0,0.0,0.0,0.0,0.0,0.0,0.0,0.0,0.0,0.0,0.0,-3.1626,-3.3669,-3.5208,-3.6117,-3.6117,-3.6694,-3.7482,-3.8468,-3.9325,-4.0336,-4.1573,-4.2022,-4.2542,-4.3174,-4.3596,-4.3807,-4.3807,-4.4214,-4.4411,-4.4411,-4.4411,-4.4411,-4.4411,-4.4411,-4.4411,-4.4411,-4.4411,-4.4172,-4.3807,-4.3807,-4.3315,-4.2472,-4.1657,-4.1081,-4.0716,-4.0308,-4.0027,-3.976,-0.8379,-0.8505,-0.8645,-0.8775,-0.8962,-0.9253,-0.9735,-1.0473,-1.1563,-1.3165,-1.4846,-1.6376,-1.7637,-1.8731,-1.9526,-1.9914,-1.8869,-1.853,-1.9316,-1.7647,-1.6864,-1.7419,-1.7928,-1.8937,-2.0469,-2.1447,-2.2456,-2.3453,-2.3994,-2.4487,-2.4935,-2.4935,-2.5222,-2.5739,-2.5716,-2.5716,-2.5739,-2.5716,-2.4579,-2.2673,-2.1112,-2.0194,-1.9516,0.0,0.0,0.0,0.0,0.0,0.0,0.0,0.0,0.0,0.0,0.0,0.0,0.0,0.0,0.0,0.0,0.0,0.0,0.0,0.0,0.0,0.0,0.0,0.0,0.0,0.0,0.0,0.0,0.0,0.0,0.0,0.0,0.0,-3.0469,-3.2182,-3.3888,-3.5166,-3.6894,-3.799,-3.8018,-3.8608,-3.9732,-4.1531,-4.1671,-4.2219,-4.3455,-4.3526,-4.3807,-4.4397,-4.4411,-4.4411,-4.4411,-4.4411,-4.4411,-4.4411,-4.4411,-4.4411,-4.4411,-4.4411,-4.4411,-4.4411,-4.4411,-4.4411,-4.4411,-4.4411,-4.4411,-4.4284,-4.3076,-4.2612,-4.2612,-4.2584,-4.2177,-4.1559,-0.8379,-0.8505,-0.8645,-0.8775,-0.8962,-0.9253,-0.9735,-1.0473,-1.1415,-1.2585,-1.4707,-1.6383,-1.7087,-1.912,-2.0092,-1.9208,-1.9738,-1.9799,-1.9035,-1.7811,-1.7519,-1.8453,-2.0021,-2.1401,-2.2548,-2.3247,-2.3879,-2.4473,-2.5038,-2.536,-2.5497,-2.5497,-2.5773,-2.6283,-2.5876,-2.5922,-2.6232,-2.5876,-2.5383,-2.474,-2.3189,-2.187,-2.0649,0.0,0.0,0.0,0.0,0.0,0.0,0.0,0.0,0.0,0.0,0.0,0.0,0.0,0.0,0.0,0.0,0.0,0.0,0.0,0.0,0.0,0.0,0.0,0.0,0.0,0.0,0.0,0.0,0.0,0.0,0.0,0.0,-3.1696,-3.1864,-3.3859,-3.5953,-3.7692,-3.9086,-4.0097,-4.0547,-4.1179,-4.1952,-4.2907,-4.2978,-4.3329,-4.4116,-4.4158,-4.4242,-4.4397,-4.4411,-4.4411,-4.4411,-4.4411,-4.4411,-4.4411,-4.4411,-4.4411,-4.4411,-4.4411,-4.4411,-4.4411,-4.4411,-4.4411,-4.4411,-4.4411,-4.4411,-4.4326,-4.3554,-4.3245,-4.3188,-4.2739,-4.2472,-4.2219,-0.8305,-0.8421,-0.8561,-0.869,-0.8853,-0.924,-1.0019,-1.0718,-1.1717,-1.321,-1.5139,-1.6581,-1.7174,-1.8709,-1.9356,-1.8529,-1.9059,-1.9075,-1.8231,-1.805,-1.8526,-1.981,-2.1388,-2.2719,-2.3705,-2.4246,-2.474,-2.5245,-2.5566,-2.5819,-2.6026,-2.6026,-2.6301,-2.6772,-2.6473,-2.6508,-2.6772,-2.6473,-2.6221,-2.5945,-2.5061,-2.3913,-2.2581,-2.1158,-2.0435,-1.9987,-1.865,-1.8127,-1.7947,-1.7347,0.0,0.0,0.0,0.0,0.0,0.0,0.0,0.0,0.0,0.0,0.0,0.0,0.0,0.0,0.0,0.0,0.0,0.0,0.0,0.0,0.0,0.0,0.0,0.0,-3.2539,-3.4506,-3.504,-3.637,-3.7875,-3.9437,-4.0491,-4.1432,-4.2317,-4.2739,-4.3216,-4.3835,-4.3877,-4.4031,-4.4397,-4.4411,-4.4411,-4.4411,-4.4411,-4.4411,-4.4411,-4.4411,-4.4411,-4.4411,-4.4411,-4.4411,-4.4411,-4.4411,-4.4411,0.0,-4.4411,-4.4411,-4.4411,-4.4411,-4.4411,0.0,0.0,0.0,0.0,0.0,-4.2964,-4.2879,-0.8201,-0.8308,-0.8439,-0.8575,-0.8703,-0.9207,-1.0416,-1.1028,-1.2127,-1.4283,-1.5637,-1.6682,-1.7422,-1.7748,-1.7906,-1.7914,-1.7655,-1.744,-1.7406,-1.8437,-1.9718,-2.1132,-2.2224,-2.3236,-2.4258,-2.4751,-2.5268,-2.5796,-2.5853,-2.6106,-2.6593,-2.6593,-2.6795,-2.719,-2.719,-2.719,-2.719,-2.719,-2.6967,-2.6582,-2.6524,-2.5842,-2.4717,-2.2846,-2.2112,-2.1929,-2.094,-2.0033,-1.9298,-1.9183,0.0,0.0,0.0,0.0,0.0,0.0,0.0,0.0,0.0,0.0,0.0,0.0,0.0,0.0,0.0,0.0,0.0,0.0,0.0,0.0,0.0,0.0,0.0,0.0,-3.5236,-3.7678,-3.893,-3.9169,-3.9578,-4.0674,-4.1404,-4.2261,-4.3385,-4.3554,-4.3821,-4.4369,-4.4411,-4.4411,-4.4411,0.0,0.0,0.0,0.0,-4.4411,-4.4411,-4.4411,-4.4411,-4.4411,-4.4411,-4.4411,-4.4411,-4.4411,-4.4411,-4.4411,-4.4411,-4.4411,-4.4411,-4.4411,-4.4411,-4.4411,-4.4411,-4.4411,-4.4355,-4.3807,-4.3596,0.0,-0.8201,-0.8308,-0.8439,-0.8575,-0.8703,-0.9207,-1.0416,-1.0873,-1.1737,-1.3567,-1.4592,-1.5431,-1.6161,-1.6965,-1.7463,-1.7517,-1.7747,-1.7913,-1.7936,-1.9304,-2.0423,-2.1167,-2.2536,-2.3728,-2.4751,-2.5291,-2.5807,-2.6363,-2.6726,-2.6949,-2.7041,-2.7041,-2.7087,-2.719,-2.719,-2.719,-2.719,-2.719,-2.7133,-2.7047,-2.6634,-2.5842,-2.4832,-2.4051,-2.35,-2.2983,-2.1963,-2.1766,-2.1857,-2.1029,-2.035,-1.9734,-1.9252,-1.8104,0.0,0.0,0.0,0.0,0.0,0.0,0.0,0.0,0.0,0.0,0.0,0.0,0.0,0.0,0.0,0.0,0.0,0.0,0.0,-3.4444,-3.6849,-3.8972,-4.0168,-4.0772,-4.1165,-4.1404,-4.2444,-4.3231,-4.3469,-4.3947,-4.4284,-4.4397,-4.4411,-4.4411,-4.4411,-4.4411,0.0,-4.4411,-4.4411,-4.4411,-4.4411,-4.4411,-4.4411,-4.4411,0.0,0.0,-4.4411,-4.4411,-4.4411,-4.4411,-4.4411,-4.4411,-4.4411,-4.4411,-4.4411,-4.4411,-4.4411,-4.4411,-4.4397,-4.4284,-4.4242,-4.4144,-0.8201,-0.8258,-0.8361,-0.8561,-0.8885,-0.944,-1.045,-1.1061,-1.198,-1.363,-1.4405,-1.5146,-1.6045,-1.6419,-1.6616,-1.6648,-1.7055,-1.7752,-1.8827,-2.009,-2.1238,-2.226,-2.3476,-2.4496,-2.5302,-2.5819,-2.6347,-2.6852,-2.7105,-2.719,-2.719,-2.719,-2.719,-2.719,-2.719,-2.719,-2.719,-2.719,-2.719,-2.7167,-2.6944,-2.6232,-2.5256,-2.4751,-2.4246,-2.3717,-2.3247,-2.2891,-2.2673,-2.2386,-2.1801,-2.1089,-2.0615,-1.9753,-1.8672,0.0,0.0,0.0,0.0,0.0,0.0,0.0,0.0,0.0,0.0,0.0,0.0,0.0,0.0,-3.0375,-3.1302,0.0,-3.5559,-3.6849,-3.8607,-4.0112,-4.1025,-4.1966,-4.2556,-4.2556,-4.3104,-4.3624,-4.3919,-4.4228,-4.4411,-4.4411,-4.4411,-4.4411,-4.4411,-4.4411,-4.4551,-4.486,-4.4874,-4.5029,-4.5352,-4.5352,-4.5183,-4.4874,-4.4874,-4.4706,-4.4411,-4.4411,-4.4411,-4.4411,-4.4411,-4.4411,-4.4411,-4.4411,-4.4411,-4.4411,-4.4411,-4.4411,-4.4411,-4.4411,-4.4411,-4.4369,-0.8201,-0.8201,-0.8272,-0.8519,-0.9036,-0.9666,-1.0437,-1.1202,-1.2218,-1.3674,-1.419,-1.4782,-1.5736,-1.5603,-1.5533,-1.5739,-1.6449,-1.7687,-1.9574,-2.0741,-2.195,-2.335,-2.4267,-2.5073,-2.5704,-2.6106,-2.6622,-2.719,-2.719,-2.719,-2.719,-2.719,-2.719,-2.719,-2.719,-2.719,-2.719,-2.719,-2.719,-2.719,-2.719,-2.6582,-2.567,-2.5233,-2.4705,-2.4189,-2.4085,-2.3454,-2.2731,-2.3018,-2.2502,-2.1709,-2.1328,-2.0814,-2.0178,-1.9109,-1.86,0.0,0.0,0.0,0.0,0.0,0.0,0.0,0.0,0.0,-2.8173,-2.9785,-3.1822,-3.3635,-3.4708,-3.636,-3.7906,-3.9071,-4.0154,-4.1137,-4.1882,-4.2753,-4.3357,-4.3483,-4.3596,-4.3877,-4.4355,-4.4411,-4.4411,-4.4411,-4.4411,-4.4411,-4.4411,-4.4523,-4.4818,-4.5262,-4.545,-4.5759,-4.6293,-4.6293,-4.604,-4.5507,-4.5346,-4.5071,-4.4579,-4.4467,-4.4411,-4.4411,-4.4411,-4.4411,-4.4411,-4.4411,-4.4411,-4.4411,-4.4411,-4.4411,-4.4411,-4.4411,-4.4411,-4.4411,-0.8201,-0.8201,-0.8244,-0.8396,-0.8967,-0.9624,-1.0314,-1.096,-1.1756,-1.2889,-1.3085,-1.3328,-1.385,-1.3866,-1.4212,-1.5119,-1.6873,-1.8432,-1.962,-2.1043,-2.2284,-2.3361,-2.3971,-2.4728,-2.5693,-2.5761,-2.6267,-2.719,-2.719,-2.719,-2.719,-2.719,-2.719,-2.719,-2.719,-2.719,-2.719,-2.719,-2.719,-2.719,-2.719,-2.6582,-2.5704,-2.5647,-2.5027,-2.4143,-2.3659,-2.3167,-2.265,-2.2192,-2.172,-2.127,-2.1213,-2.0814,-2.0316,-1.9883,-1.9064,-1.8491,-1.936,-2.1079,-2.2964,-2.4312,-2.5739,-2.767,0.0,0.0,-3.2422,-3.4787,-3.5897,-3.6683,-3.7358,-3.8566,-3.969,-4.0378,-4.1067,-4.1924,-4.3118,-4.2935,-4.2879,-4.3441,-4.3975,-4.434,-4.4397,-4.4411,-4.4411,-4.4411,-4.4411,-4.4411,-4.4411,-4.4931,-4.5206,-4.5276,-4.5886,-4.6223,-4.6293,-4.6293,-4.6265,-4.6181,-4.5605,-4.5234,-4.5164,-4.465,-4.4411,-4.4411,-4.4411,-4.4411,-4.4411,-4.4411,-4.4411,-4.4411,-4.4411,-4.4411,-4.4411,-4.4411,-4.4411,-4.4411,-0.8201,-0.8201,-0.8298,-0.8632,-0.9309,-1.0013,-1.0648,-1.1331,-1.2049,-1.2797,-1.2889,-1.3084,-1.3535,-1.3889,-1.4339,-1.5039,-1.6692,-1.8139,-1.916,-2.0928,-2.2353,-2.3361,-2.4164,-2.4958,-2.5693,-2.6003,-2.6508,-2.719,-2.719,-2.719,-2.719,-2.719,-2.719,-2.719,-2.719,-2.719,-2.719,-2.719,-2.719,-2.719,-2.719,-2.6582,-2.5681,-2.536,-2.4441,-2.3282,-2.3075,-2.2478,0.0,-2.1581,-2.1374,-2.1144,-2.0814,-2.0779,-2.073,-2.0074,-2.0226,-2.1147,-2.3788,-2.4665,-2.5448,-2.788,-2.9162,-3.0405,-3.2626,-3.3495,-3.4284,-3.5779,-3.7186,-3.8199,-3.8466,-3.9479,-4.0519,0.0,-4.1755,-4.2486,-4.3371,-4.3273,-4.3216,-4.3469,-4.3722,-4.3877,-4.3877,-4.42,-4.4411,-4.4411,-4.4411,-4.4565,-4.4931,-4.5136,-4.5661,-4.6406,-4.6687,-4.6996,-4.7347,-4.7361,-4.7178,-4.6827,-4.656,-4.6237,-4.5872,-4.524,-4.4748,-4.4411,-4.4411,-4.4411,-4.4411,-4.4411,-4.4411,-4.4411,-4.4411,-4.4411,-4.4411,-4.4411,-4.4411,-4.4411,-0.8201,-0.8305,-0.8543,-0.8984,-0.9691,-1.0376,-1.087,-1.1561,-1.2178,-1.2624,-1.2816,-1.3084,-1.3535,-1.4075,-1.4534,-1.4878,-1.629,-1.7599,-1.8621,-2.0427,-2.1986,-2.3155,-2.4015,-2.482,-2.5474,-2.5853,-2.6358,-2.7024,-2.7024,-2.7093,-2.719,-2.719,-2.719,-2.719,-2.719,-2.719,-2.719,-2.719,-2.7151,-2.7024,-2.7024,-2.6404,-2.544,-2.4912,-2.3775,-2.2432,-2.2157,-2.1431,-2.0546,-2.0408,-2.0331,-2.0285,-2.0067,-2.0343,-2.0749,-2.056,-2.1725,-2.3569,-2.5996,-2.7058,-2.7982,-3.0329,-3.1942,-3.3154,-3.3837,-3.4761,-3.5675,-3.6452,-3.7692,-3.8691,-3.8874,-3.9732,-4.0702,-4.1474,-4.2163,-4.2851,-4.3638,-4.3455,-4.3245,-4.3245,-4.3245,-4.3245,-4.3245,-4.3947,-4.4411,-4.4411,-4.4411,-4.4678,-4.5248,-4.5507,-4.6097,-4.7178,-4.7375,-4.7684,-4.812,-4.812,-4.7895,-4.7459,-4.7291,-4.6982,-4.6518,-4.5703,-4.5085,-4.465,-4.4481,-4.4411,-4.4411,-4.4411,-4.4411,-4.4411,-4.4411,-4.4411,-4.4411,-4.4411,-4.4411,-4.4411,-0.8201,-0.8564,-0.9004,-0.9417,-1.0043,-1.057,-1.0773,-1.1382,-1.1877,-1.21,-1.2578,-1.3084,-1.3535,-1.4075,-1.4418,-1.4408,-1.5785,-1.7057,-1.8077,-1.9579,-2.1123,-2.2639,-2.3178,-2.3912,-2.4912,-2.4946,-2.5463,-2.6524,-2.6524,-2.6737,-2.719,-2.719,-2.719,-2.719,-2.719,-2.719,-2.719,-2.719,-2.6944,-2.6524,-2.6524,-2.5865,-2.4889,-2.4407,-2.327,-2.1791,-2.0836,-1.9826,-1.8885,-1.8364,-1.8203,-1.8283,-1.8793,-1.931,-2.0051,-2.167,-2.3549,-2.4931,-2.4048,-2.6992,-3.034,-3.0657,-3.3379,-3.5971,-3.6009,-3.6501,-3.7133,-3.7723,-3.7892,-3.8131,-3.879,-3.9422,-4.021,-4.1418,-4.2163,-4.3006,-4.4214,-4.3357,-4.2612,-4.2612,-4.2612,-4.2612,0.0,-4.3694,-4.4411,-4.4411,-4.4411,-4.4678,-4.5248,-4.5928,-4.656,-4.7193,-4.7783,-4.8106,-4.812,-4.812,-4.812,-4.8092,-4.7488,-4.7193,-4.7136,-4.5886,-4.5262,-4.522,-4.4664,-4.4411,-4.4411,-4.4411,-4.4411,-4.4411,-4.4411,-4.4411,-4.4411,-4.4411,-4.4411,-4.4411,-0.8605,-0.8792,-0.9118,-0.9839,-1.015,-1.0527,-1.1169,-1.1564,-1.1829,-1.1884,-1.248,0.0,0.0,0.0,0.0,0.0,-1.5647,-1.6403,-1.7068,-1.8896,-2.0308,-2.1135,-2.2306,-2.3408,-2.4418,-2.4441,-2.4946,-2.5968,-2.5968,-2.6048,-2.6181,-2.6181,-2.6181,-2.6181,-2.6181,-2.6181,-2.6181,-2.6181,-2.6313,-2.6444,-2.5716,-2.5222,-2.482,-2.3969,-2.2318,-2.0354,0.0,-1.8977,-1.8237,-1.7389,-1.7561,-1.8088,-1.7943,-1.8741,-2.0113,-2.2339,-2.372,-2.5086,-2.7551,-2.913,-3.0748,-3.3215,-3.4585,-3.5574,-3.6494,-3.6657,-3.6638,-3.6687,-3.6825,-3.6944,-3.701,-3.785,-3.9072,-4.073,-4.1531,-4.2514,-4.4172,-4.3708,-4.3188,-4.3188,-4.3188,0.0,0.0,0.0,0.0,-4.4411,-4.4411,-4.4874,-4.5914,-4.6181,-4.6757,-4.7783,-4.8007,-4.812,-4.812,-4.812,-4.812,-4.812,-4.7909,-4.76,-4.7178,-4.635,-4.5731,-4.5248,-4.4678,-4.4411,-4.4411,-4.4411,-4.4411,-4.4411,-4.4411,-4.4411,-4.4411,-4.4411,-4.4411,-4.4411,-0.8844,-0.9155,-0.9536,-1.0097,-1.0334,0.0,0.0,0.0,0.0,0.0,0.0,0.0,0.0,0.0,0.0,0.0,0.0,-1.5807,-1.6312,-1.7771,-1.8977,-1.9838,-2.0802,-2.1801,-2.2823,-2.2673,-2.3167,-2.4324,-2.4324,-2.4636,-2.5164,-2.5164,-2.5164,-2.5164,-2.5164,-2.5164,-2.5164,-2.5164,-2.5256,-2.5314,-2.4453,-2.4005,-2.3705,-2.2708,-2.1135,0.0,-1.8609,-1.8024,-1.7412,-1.6403,-1.685,-1.7813,-1.7691,-1.9333,-2.1583,-2.2983,-2.4278,-2.5965,-2.9114,-3.0394,-3.1473,-3.422,-3.5315,-3.5878,-3.6427,-3.6316,-3.6014,-3.5882,-3.5617,-3.5495,-3.5733,-3.6388,-3.7625,-3.9704,-4.0744,-4.1938,-4.3821,-4.3736,-4.3497,-4.3497,-4.3497,-4.3497,0.0,0.0,0.0,-4.4411,-4.4621,-4.5183,-4.6237,-4.6504,-4.7094,-4.8092,-4.812,-4.812,-4.812,-4.812,-4.812,-4.812,-4.812,-4.7923,-4.7502,-4.6673,-4.6069,-4.5633,-4.4776,-4.4411,-4.4411,-4.4411,-4.4411,-4.4411,-4.4411,-4.4411,-4.4411,-4.4411,-4.4411,-4.4411,-0.8927,-0.9609,-1.0211,0.0,0.0,0.0,0.0,0.0,0.0,0.0,0.0,0.0,0.0,0.0,0.0,0.0,0.0,0.0,-1.5831,-1.6323,-1.724,-1.8713,-1.8827,-1.9321,-2.0308,-1.9884,-2.0377,-2.1814,-2.1814,-2.2604,-2.4039,-2.4039,-2.4039,-2.4039,-2.4039,-2.4039,-2.4039,-2.4039,-2.3764,-2.3247,-2.2742,-2.226,-2.1711,-2.0756,-1.9734,-1.8736,-1.7821,-1.7094,-1.6461,-1.5521,-1.6267,-1.7694,-1.818,-2.1032,-2.4122,-2.3742,-2.5375,-2.7585,-2.8875,-3.0802,-3.2697,-3.3821,-3.5651,-3.6919,-3.5899,-3.5552,-3.5372,-3.5209,-3.4286,-3.3771,-3.4699,0.0,-3.5939,-3.8368,-3.9831,-4.1348,-4.3231,-4.3526,-4.3554,0.0,0.0,0.0,0.0,0.0,0.0,-4.4453,0.0,-4.5605,-4.6265,-4.6869,-4.7488,-4.8106,-4.812,-4.812,-4.812,-4.812,-4.812,-4.812,-4.812,-4.812,-4.8078,-4.6855,-4.6293,-4.6223,-4.4959,-4.4411,-4.4411,-4.4411,-4.4411,-4.4411,-4.4411,-4.4411,-4.4411,-4.4411,-4.4411,-4.4411,0.0,0.0,0.0,0.0,0.0,0.0,0.0,0.0,0.0,0.0,0.0,0.0,0.0,0.0,0.0,0.0,0.0,0.0,-1.5303,-1.6117,-1.677,-1.716,-1.7905,-1.8604,-1.9264,-1.916,-1.9654,-2.0771,-2.0771,-2.1192,-2.1971,-2.1971,-2.1971,-2.1971,-2.1971,-2.1971,-2.1971,-2.1971,-2.1891,-2.1707,-2.0802,-2.0595,-2.0733,-2.0113,-1.9229,-1.8318,-1.846,-1.7691,-1.6621,-1.6761,-1.8338,0.0,0.0,-2.2826,-2.4637,-2.602,-2.7412,-2.9064,-3.165,-3.3194,-3.4255,-3.5175,-3.6069,-3.6457,-3.5369,-3.4818,-3.4131,-3.2645,-3.2227,-3.1834,-3.0885,-3.2569,0.0,-3.6529,-3.8988,0.0,-4.3231,-4.3891,0.0,-4.4172,0.0,-4.4172,-4.4172,-4.4326,0.0,0.0,-4.5192,-4.5605,-4.6265,-4.6869,-4.7488,-4.8106,-4.812,-4.812,-4.812,-4.812,-4.812,-4.812,-4.812,-4.812,-4.8078,-4.6855,-4.6293,-4.6223,-4.4959,-4.4411,-4.4411,-4.4411,-4.4411,-4.4411,-4.4411,-4.4411,-4.4411,-4.4411,-4.4411,-4.4411,0.0,0.0,0.0,0.0,0.0,0.0,0.0,0.0,0.0,0.0,0.0,0.0,0.0,0.0,0.0,0.0,0.0,0.0,0.0,-1.5624,-1.6037,-1.6277,-1.661,-1.7022,-1.7576,-1.7565,-1.7955,-1.8719,-1.8965,-1.9333,-1.9838,-1.9838,-1.9838,-1.9838,-1.9838,-1.9838,-1.9838,-1.9838,-1.9838,0.0,0.0,-1.8965,-1.9304,-1.8621,-1.7962,-1.7492,-1.7794,-1.8208,-1.8724,0.0,0.0,-2.2375,-2.3626,-2.5138,-2.6588,-2.745,0.0,-3.0409,-3.2468,-3.382,-3.4826,-3.5469,-3.5993,-3.5829,-3.3965,-3.3111,-3.2174,-3.0292,-2.9778,-2.9383,-2.84,-3.0223,0.0,0.0,0.0,0.0,-4.2116,-4.3542,-4.4317,0.0,-4.427,0.0,-4.4411,-4.465,-4.4959,0.0,-4.5591,-4.6026,-4.6659,-4.7277,-4.7769,-4.812,-4.812,-4.812,-4.812,-4.812,-4.812,-4.812,-4.812,-4.812,-4.8078,-4.6855,-4.6293,-4.6223,0.0,-4.4411,-4.4411,-4.4411,-4.4411,-4.4411,-4.4411,-4.4411,-4.4411,-4.4411,-4.4411,-4.4411,0.0,0.0,0.0,0.0,0.0,0.0,0.0,0.0,0.0,-1.2914,-1.3377,-1.3904,0.0,0.0,0.0,0.0,0.0,0.0,0.0,0.0,-1.5315,-1.5785,-1.536,-1.5326,-1.5785,-1.5797,-1.6039,-1.6507,-1.6968,-1.7438,-1.7917,-1.7917,-1.7917,-1.7917,-1.7917,-1.7917,-1.7917,-1.7917,-1.7844,-1.779,-1.7427,-1.7542,-1.7798,0.0,-1.6736,-1.6805,-1.6805,-1.8609,-2.1178,-2.2328,-2.3201,-2.4049,-2.5474,-2.7334,-2.8934,-2.8589,-2.9934,-3.1725,-3.263,-3.3937,-3.5123,-3.5331,-3.5594,-3.5118,-3.2306,-3.1127,-3.0059,-2.8092,-2.7261,-2.6827,-2.6598,-2.8094,-3.0106,-3.2506,0.0,-3.8865,-4.0738,-4.2897,-4.4111,-4.3634,-4.4054,-4.4411,-4.4411,-4.4973,-4.5366,-4.545,-4.6055,-4.6645,-4.7178,-4.7783,-4.812,-4.812,-4.812,-4.812,-4.812,-4.812,-4.812,-4.812,-4.812,-4.8078,-4.7965,-4.6813,-4.6251,-4.6097,0.0,0.0,-4.4411,-4.4411,-4.4411,-4.4411,-4.4411,-4.4411,-4.4411,-4.4411,-4.4411,-4.4411,0.0,0.0,0.0,0.0,0.0,0.0,0.0,-1.18,-1.2298,-1.3561,-1.3705,-1.4027,-1.4926,-1.5062,0.0,0.0,0.0,0.0,0.0,0.0,0.0,-1.5223,-1.5154,-1.5154,-1.5246,-1.5246,-1.5498,-1.6026,-1.6118,-1.6392,-1.6862,-1.6862,-1.6862,-1.6862,-1.6862,-1.6862,-1.6862,-1.6862,-1.6633,-1.6325,-1.6635,-1.6782,-1.6885,-1.7151,0.0,0.0,-1.7832,-1.8742,-2.0228,-2.2098,-2.4168,-2.606,-2.6749,-2.7854,-2.9177,-3.0567,-3.1833,-3.3202,-3.4968,-3.5903,-3.629,-3.602,-3.5669,-3.4651,-3.1809,-3.0315,0.0,0.0,-2.545,-2.5146,-2.4421,-2.6559,-2.9396,-3.2394,-3.5523,-3.8533,-4.1252,-4.2799,-4.365,0.0,-4.4054,-4.4411,-4.4411,-4.4973,0.0,0.0,0.0,0.0,-4.7193,-4.7783,-4.812,-4.812,-4.812,-4.812,-4.812,-4.812,-4.812,-4.812,-4.812,-4.7867,-4.7347,-4.6616,-4.5998,-4.5402,0.0,0.0,-4.4411,-4.4411,-4.4411,-4.4411,-4.4411,-4.4411,-4.4411,-4.4411,-4.4411,-4.4411,0.0,0.0,0.0,0.0,0.0,0.0,0.0,-1.2299,-1.2888,-1.4151,-1.4478,-1.4718,-1.5064,-1.4969,-1.4949,0.0,0.0,0.0,0.0,0.0,0.0,0.0,-1.5108,-1.5108,-1.5108,0.0,0.0,0.0,0.0,0.0,0.0,0.0,0.0,0.0,0.0,0.0,-1.5819,-1.5819,-1.5705,-1.5533,-1.6026,-1.6382,0.0,0.0,0.0,0.0,0.0,-1.8948,-2.0251,-2.1512,-2.3432,-2.5555,-2.7128,-2.8402,-2.9571,-3.0688,-3.1721,-3.2889,-3.45,-3.5525,-3.6022,-3.5641,-3.5167,-3.3992,-3.083,0.0,0.0,0.0,-2.3657,-2.3411,-2.2682,-2.476,0.0,-3.0038,-3.2878,-3.592,-3.9183,-4.0801,0.0,-4.2704,-4.3519,-4.4007,0.0,0.0,0.0,0.0,0.0,0.0,-4.7642,-4.7965,-4.812,-4.812,-4.812,-4.812,-4.812,-4.812,-4.7965,-4.7642,-4.7642,-4.7333,-4.6715,-4.6083,-4.5619,-4.5248,0.0,0.0,-4.4411,-4.4411,-4.4411,-4.4411,-4.4411,-4.4411,-4.4411,-4.4411,-4.4411,-4.4411,0.0,0.0,0.0,0.0,0.0,0.0,-1.2131,-1.2637,-1.3346,-1.4609,-1.5078,-1.529,-1.5177,-1.4988,-1.4889,0.0,0.0,0.0,0.0,0.0,0.0,0.0,0.0,-1.5108,0.0,0.0,0.0,0.0,0.0,0.0,0.0,0.0,0.0,0.0,0.0,0.0,0.0,0.0,-1.5108,0.0,0.0,0.0,0.0,0.0,0.0,0.0,0.0,0.0,-2.0033,-2.0787,-2.2065,-2.3787,-2.6117,-2.7964,-2.9373,-3.0168,-3.1193,-3.2367,-3.3637,-3.484,-3.559,-3.5168,-3.465,-3.3352,-3.0032,-2.7837,0.0,-2.2975,-2.2218,-2.1956,-2.1734,-2.3276,-2.5428,0.0,-3.0408,-3.3292,-3.702,-3.8844,-4.0359,0.0,-4.2909,0.0,0.0,0.0,0.0,0.0,0.0,0.0,0.0,-4.7867,-4.7867,-4.774,-4.7867,-4.7867,-4.774,-4.7726,-4.7488,-4.701,-4.701,-4.6687,-4.6069,-4.5563,-4.5206,-4.5099,0.0,0.0,0.0,-4.4411,-4.4411,-4.4411,-4.4411,-4.4411,-4.4411,-4.4411,-4.4411,-4.4411,0.0,0.0,0.0,0.0,0.0,0.0,-1.2079,-1.2637,-1.3414,-1.4785,-1.5018,-1.5133,-1.5339,-1.5348,-1.5175,0.0,0.0,0.0,0.0,0.0,0.0,0.0,0.0,0.0,0.0,0.0,0.0,0.0,0.0,0.0,0.0,0.0,0.0,0.0,0.0,0.0,0.0,0.0,0.0,0.0,0.0,0.0,0.0,0.0,0.0,0.0,0.0,0.0,0.0,0.0,0.0,-2.1032,-2.265,-2.5133,-2.7789,-2.9512,0.0,0.0,-3.401,-3.5206,-3.5947,-3.5392,-3.4473,-3.2894,-2.9954,0.0,-2.5236,-2.2869,-2.159,-2.1171,-2.2126,-2.2884,-2.4613,-2.8385,-3.0105,-3.2359,-3.6407,-3.8425,-4.0074,-4.1815,0.0,0.0,0.0,0.0,0.0,0.0,0.0,0.0,0.0,-4.6996,-4.7038,-4.6476,-4.701,-4.7024,-4.6462,-4.6462,-4.6434,-4.6378,-4.6378,-4.604,-4.5408,-4.5304,-4.5029,-4.4495,0.0,0.0,0.0,-4.4411,-4.4411,-4.4411,-4.4411,-4.4411,-4.4411,-4.4411,-4.4411,-4.4411,0.0,0.0,0.0,0.0,0.0,0.0,-1.2451,-1.2791,-1.34,-1.4821,-1.5245,-1.5361,-1.5175,-1.5412,-1.5337,-1.4752,0.0,0.0,0.0,0.0,0.0,0.0,0.0,0.0,0.0,0.0,0.0,0.0,0.0,0.0,0.0,0.0,0.0,0.0,0.0,0.0,0.0,0.0,0.0,0.0,0.0,0.0,0.0,0.0,0.0,0.0,0.0,0.0,0.0,0.0,0.0,0.0,-2.0687,-2.2329,0.0,0.0,-2.9565,-3.1478,-3.2327,-3.3966,-3.5098,-3.3745,-3.3255,-3.2293,-2.9428,-2.6961,-2.4753,-2.2805,-2.1498,-2.0923,-2.1734,-2.2034,-2.3267,-2.657,-2.7389,-2.9057,-3.3225,0.0,0.0,0.0,0.0,0.0,0.0,0.0,0.0,0.0,0.0,0.0,0.0,-4.563,-4.5926,-4.5329,-4.5898,-4.6061,-4.581,-4.6133,-4.6097,-4.5717,-4.5717,-4.538,-4.4776,-4.4776,-4.465,-4.4411,0.0,0.0,0.0,-4.4411,-4.4411,-4.4411,-4.4411,-4.4411,-4.4411,-4.4411,-4.4411,-4.4411,0.0,0.0,0.0,0.0,0.0,-1.0952,-1.2316,-1.2729,-1.3307,-1.4449,-1.5111,-1.5413,-1.5159,-1.5275,-1.5284,-1.4952,-1.4855,0.0,0.0,0.0,0.0,0.0,0.0,0.0,0.0,0.0,-1.5969,-1.6108,0.0,0.0,0.0,0.0,0.0,0.0,0.0,0.0,0.0,0.0,0.0,0.0,0.0,0.0,0.0,0.0,0.0,0.0,0.0,0.0,0.0,0.0,0.0,0.0,0.0,-2.0243,-2.223,0.0,-2.7803,-2.991,-3.0707,-3.261,-3.401,-3.2687,-3.2286,-3.147,-2.8739,-2.6523,-2.4455,-2.2531,-2.138,-2.0857,-2.1407,-2.1655,-2.2544,-2.4905,-2.5608,-2.7122,-3.0777,-3.2133,0.0,0.0,0.0,0.0,0.0,0.0,0.0,0.0,0.0,0.0,0.0,-4.4088,-4.437,-4.4185,-4.4697,-4.4993,-4.4947,-4.5316,-4.5349,-4.5009,-4.4853,-4.4567,-4.4162,-4.4162,-4.4068,0.0,0.0,0.0,0.0,-4.4021,-4.4021,-4.4162,-4.4021,-4.3988,-4.3988,-4.3988,-4.3988,-4.3988,0.0,0.0,0.0,0.0,0.0,0.0,-1.1405,-1.2348,-1.307,-1.3545,-1.4438,-1.5102,-1.5377,-1.4999,-1.492,-1.5458,-1.5256,0.0,0.0,0.0,0.0,0.0,0.0,0.0,0.0,0.0,-1.6141,-1.6587,-1.6598,-1.6876,0.0,0.0,0.0,0.0,0.0,0.0,0.0,0.0,0.0,0.0,0.0,0.0,-1.8084,0.0,0.0,0.0,0.0,0.0,0.0,0.0,0.0,0.0,0.0,-1.9122,-2.1555,-2.3773,-2.6006,-2.8064,-2.9682,-3.1396,-3.2725,-3.2712,-3.1849,-3.0398,-2.8038,-2.6203,-2.4338,-2.1995,-2.108,-2.0857,-2.1407,-2.1995,-2.2767,-2.3942,-2.555,-2.7471,-2.9787,-3.2123,0.0,0.0,0.0,0.0,0.0,0.0,0.0,0.0,0.0,0.0,0.0,0.0,-4.24,-4.29,-4.3519,-4.3778,-4.3628,-4.3614,-4.3879,-4.4411,-4.3865,-4.36,-4.36,-4.36,0.0,0.0,0.0,0.0,0.0,-4.3115,-4.3197,-4.3553,-4.3115,-4.2935,-4.2935,-4.2935,-4.2935,-4.2935,0.0,0.0,0.0,0.0,0.0,0.0,-1.1436,-1.184,-1.2182,-1.2649,-1.3207,-1.365,-1.3875,-1.4258,-1.4542,-1.466,-1.4774,0.0,0.0,0.0,0.0,0.0,0.0,0.0,0.0,-1.5933,-1.6449,-1.6598,-1.7298,-1.771,-1.7859,-1.7381,0.0,0.0,0.0,0.0,0.0,0.0,0.0,0.0,0.0,-1.7499,-1.7622,0.0,0.0,0.0,0.0,0.0,0.0,0.0,0.0,0.0,0.0,0.0,0.0,-2.0544,-2.3879,-2.6889,-2.6226,-2.7866,-2.9385,-2.7816,-2.7729,-2.7536,-2.5628,-2.4452,-2.3341,-2.1799,-2.108,-2.0751,-2.0923,-2.1093,-2.2113,-2.4801,-2.5702,-2.704,0.0,0.0,0.0,0.0,0.0,0.0,0.0,0.0,0.0,0.0,0.0,0.0,0.0,0.0,-4.198,-4.1809,-4.2364,-4.261,-4.2555,-4.2957,-4.3211,-4.3369,-4.3211,-4.3115,-4.3115,-4.3115,0.0,0.0,0.0,0.0,0.0,-4.2984,-4.2984,-4.3115,-4.2984,-4.2887,-4.2887,-4.2887,-4.2887,-4.2887,0.0,0.0,0.0,0.0,0.0,0.0,-1.0961,-1.1374,-1.1695,-1.2006,-1.2421,-1.283,-1.322,-1.3779,-1.4222,-1.4455,-1.4708,0.0,0.0,0.0,0.0,0.0,0.0,0.0,-1.5108,-1.5899,-1.6507,-1.691,-1.771,-1.8215,-1.8398,-1.8104,-1.7576,-1.6887,0.0,0.0,0.0,0.0,0.0,0.0,-1.7105,-1.7292,-1.7094,0.0,0.0,0.0,0.0,0.0,0.0,0.0,0.0,0.0,0.0,0.0,0.0,0.0,-2.1235,-2.406,-2.3977,-2.5522,-2.6866,-2.5415,-2.5569,-2.5672,-2.4125,-2.33,-2.2583,-2.142,-2.0923,-2.0699,-2.0699,-2.1053,-2.2035,-2.4178,-2.5432,-2.6922,0.0,0.0,0.0,0.0,0.0,0.0,0.0,0.0,0.0,0.0,0.0,0.0,0.0,0.0,-4.1647,-4.1311,-4.1597,-4.1881,-4.2079,-4.2435,-4.2693,-4.2887,-4.2679,-4.2582,-4.2582,0.0,0.0,0.0,0.0,0.0,0.0,-4.2387,-4.24,-4.2582,-4.24,-4.2302,-4.2302,-4.2302,-4.2302,-4.2302,0.0,0.0,0.0,0.0,0.0,0.0,0.0,-1.094,-1.1509,-1.154,-1.1923,-1.2477,-1.3171,-1.3488,-1.3928,-1.4631,-1.4926,0.0,0.0,0.0,0.0,0.0,0.0,0.0,-1.5108,-1.567,-1.6405,-1.735,-1.7882,-1.8409,-1.8896,-1.8931,-1.8391,-1.7384,-1.6887,-1.6346,0.0,0.0,0.0,0.0,-1.6945,-1.7025,0.0,0.0,0.0,0.0,0.0,0.0,0.0,0.0,0.0,0.0,0.0,0.0,0.0,0.0,0.0,0.0,0.0,-2.3942,-2.4829,-2.4823,-2.4774,-2.4396,-2.3289,-2.2675,0.0,-2.0923,-2.0699,-2.0738,-2.0869,-2.1695,-2.2493,-2.2779,-2.5066,0.0,0.0,0.0,0.0,0.0,0.0,0.0,0.0,0.0,0.0,0.0,0.0,0.0,0.0,0.0,0.0,-4.1311,-4.1311,-4.1547,-4.2029,-4.2029,-4.2289,-4.279,-4.2289,-4.2029,-4.2029,0.0,0.0,0.0,0.0,0.0,0.0,-4.1511,-4.1597,-4.198,-4.1511,-4.1311,-4.1311,-4.1311,-4.1311,-4.1311,0.0,0.0,0.0,0.0,0.0,0.0,0.0,0.0,0.0,0.0,-1.1158,-1.136,-1.1682,-1.2576,-1.3308,0.0,0.0,0.0,0.0,0.0,0.0,0.0,0.0,0.0,-1.5108,-1.5968,-1.6541,-1.6782,-1.8093,-1.8782,-1.8896,-1.931,-1.8775,-1.7396,-1.7281,-1.6486,0.0,0.0,0.0,0.0,-1.6554,-1.6508,0.0,0.0,0.0,0.0,-1.5923,-1.6165,0.0,0.0,0.0,0.0,0.0,0.0,0.0,0.0,-1.7284,-1.8154,-1.8919,0.0,-2.1212,-2.123,-2.1561,-2.1748,0.0,-2.1498,-2.1525,-2.0831,-2.0699,-2.108,-2.2374,-2.2505,-2.3406,-2.6478,-2.757,-2.8686,0.0,0.0,0.0,0.0,0.0,0.0,0.0,0.0,0.0,0.0,0.0,0.0,0.0,0.0,0.0,-4.1311,-4.1311,-4.1361,-4.1511,-4.1511,-4.156,-4.166,-4.156,-4.1511,-4.1511,0.0,0.0,0.0,0.0,0.0,-4.1461,-4.1361,-4.1361,-4.1461,-4.1361,-4.1311,-4.1311,-4.1311,-4.1311,-4.1311,0.0,0.0,0.0,0.0,0.0,0.0,0.0,0.0,0.0,0.0,-1.091,-1.0938,-1.1052,-1.2212,-1.2983,0.0,0.0,0.0,0.0,0.0,0.0,0.0,0.0,-1.5108,-1.5108,-1.5865,-1.6484,-1.6968,-1.8024,-1.8793,-1.9264,-1.931,-1.8885,-1.8074,-1.7347,-1.6313,0.0,0.0,0.0,-1.5579,-1.6084,0.0,0.0,0.0,0.0,0.0,-1.5441,-1.5682,0.0,-1.7147,-1.7408,-1.7217,0.0,0.0,0.0,0.0,-1.6806,-1.7396,-1.7824,-1.9146,-2.0453,-2.0737,-2.1179,-2.1637,-2.1812,-2.1485,-2.1053,-2.0764,-2.0883,-2.1446,-2.2595,-2.325,-2.4387,-2.6817,-2.832,0.0,0.0,0.0,0.0,0.0,0.0,0.0,0.0,0.0,0.0,0.0,0.0,0.0,0.0,0.0,0.0,0.0,-4.1311,-4.1311,-4.1311,-4.1311,-4.1311,-4.1311,-4.1311,-4.1311,-4.1311,0.0,0.0,0.0,0.0,0.0,-4.1311,-4.1311,-4.1311,-4.1311,-4.1311,-4.1311,-4.1311,-4.1311,-4.1311,-4.1311,0.0,0.0,0.0,0.0,0.0,0.0,0.0,0.0,0.0,0.0,0.0,0.0,0.0,0.0,0.0,0.0,0.0,0.0,0.0,0.0,0.0,0.0,-1.5108,-1.5142,-1.5234,-1.5751,-1.6463,-1.7407,-1.802,-1.8799,-1.9688,-1.9378,-1.908,-1.8713,-1.7186,-1.5956,0.0,0.0,-1.5521,-1.5142,-1.559,0.0,0.0,0.0,0.0,0.0,0.0,0.0,0.0,-1.7216,-1.7739,-1.7877,-1.7736,0.0,0.0,0.0,0.0,0.0,-1.8087,-1.9729,-2.1305,-2.1495,-2.1982,-2.254,-2.2973,-2.1982,-2.0961,-2.0974,-2.1381,-2.2034,-2.291,-2.4321,0.0,0.0,0.0,0.0,0.0,0.0,0.0,0.0,0.0,0.0,0.0,0.0,0.0,0.0,0.0,0.0,0.0,0.0,0.0,0.0,-4.1311,-4.1311,-4.1311,-4.1311,-4.1311,-4.1311,-4.1311,-4.1311,-4.1311,-4.1311,0.0,0.0,0.0,0.0,-4.1311,-4.1311,-4.1311,-4.1311,-4.1311,-4.1311,-4.1311,-4.1311,-4.1311,-4.1311,0.0,0.0,0.0,0.0,0.0,0.0,0.0,0.0,0.0,0.0,0.0,0.0,0.0,0.0,0.0,0.0,0.0,0.0,0.0,0.0,0.0,-1.5108,-1.5108,-1.5315,-1.5774,-1.6243,-1.6795,-1.7407,-1.877,-1.9539,-1.9711,-2.05,-1.9895,-1.8169,-1.6658,-1.5671,-1.5119,-1.52,-1.5188,-1.5119,0.0,0.0,0.0,0.0,0.0,0.0,0.0,0.0,0.0,-1.6187,-1.6866,-1.7339,-1.6998,0.0,0.0,0.0,0.0,0.0,-1.878,-2.094,-2.254,-2.1186,-2.1713,-2.2555,-2.2528,-2.231,-2.2126,-2.2139,-2.2583,-2.3576,-2.5672,-2.6634,-2.7798,0.0,0.0,0.0,0.0,0.0,0.0,0.0,0.0,0.0,0.0,0.0,0.0,0.0,0.0,0.0,0.0,0.0,0.0,0.0,0.0,-4.1311,-4.1311,-4.1311,-4.1311,-4.1311,-4.1311,-4.1311,-4.1311,-4.1311,-4.1311,0.0,0.0,-4.1311,-4.1311,-4.1311,-4.1311,-4.1311,-4.1311,-4.1311,-4.1311,-4.1311,-4.1311,-4.1311,0.0,0.0,0.0,0.0,0.0,0.0,0.0,0.0,0.0,0.0,0.0,0.0,0.0,0.0,0.0,0.0,0.0,0.0,0.0,0.0,-1.5234,-1.5533,-1.5533,-1.5659,-1.59,-1.6646,-1.7278,-1.7783,-1.9069,-1.9826,-2.0079,-2.0017,-1.9,-1.7252,-1.6326,-1.5602,-1.5108,-1.5108,-1.5108,-1.5108,0.0,0.0,0.0,0.0,0.0,0.0,0.0,0.0,0.0,0.0,-1.6869,-1.7141,-1.7134,0.0,0.0,0.0,0.0,0.0,-1.7989,-2.0173,-2.2151,-2.1721,-2.3446,-2.5224,-2.5179,-2.4674,-2.4243,-2.4256,-2.47,-2.5511,0.0,0.0,-2.9761,0.0,0.0,0.0,0.0,0.0,0.0,0.0,0.0,0.0,0.0,0.0,0.0,0.0,0.0,0.0,0.0,0.0,0.0,0.0,0.0,0.0,-4.1311,-4.1311,-4.1311,-4.1311,-4.1311,-4.1311,-4.1311,-4.1311,-4.1311,-4.1311,0.0,-4.1311,-4.1311,-4.1311,-4.1311,-4.1311,-4.1311,-4.1311,-4.1311,-4.1311,-4.1311,-4.1311,0.0,0.0,0.0,0.0,0.0,0.0,0.0,0.0,0.0,0.0,0.0,0.0,0.0,0.0,0.0,0.0,0.0,0.0,0.0,-1.4473,-1.5177,-1.5693,-1.5843,-1.6072,-1.6403,-1.7174,-1.7863,-1.8478,-1.9413,-2.0056,-2.0389,-1.9252,-1.8024,-1.6747,-1.6177,-1.5613,-1.5108,-1.5108,-1.5108,-1.5108,0.0,0.0,0.0,0.0,0.0,0.0,0.0,0.0,0.0,0.0,0.0,0.0,0.0,0.0,0.0,-1.7059,-1.6997,-1.729,-1.7695,-1.963,-2.1681,-2.2426,-2.4779,-2.7033,-2.7602,-2.6844,-2.6138,-2.6556,-2.6987,0.0,0.0,0.0,0.0,0.0,0.0,0.0,0.0,0.0,0.0,0.0,0.0,0.0,0.0,0.0,0.0,0.0,0.0,0.0,0.0,0.0,0.0,0.0,0.0,0.0,-4.1311,-4.1311,-4.1311,-4.1311,-4.1311,-4.1311,-4.1311,-4.1311,-4.1311,-4.1311,-4.1311,-4.1311,-4.1311,-4.1311,-4.1311,-4.1311,-4.1311,-4.1311,-4.1311,-4.1311,-4.1311,-4.1311,0.0,0.0,0.0,0.0,0.0,0.0,0.0,0.0,0.0,0.0,0.0,0.0,0.0,0.0,0.0,0.0,0.0,0.0,0.0,-1.4169,-1.466,-1.5142,-1.5636,-1.653,-1.7917,-1.802,-1.8547,-1.9585,-2.0102,-2.0377,-2.0377,-1.8856,-1.7859,-1.7304,-1.6325,-1.5613,-1.5108,-1.5108,-1.5108,-1.5108,-1.5108,0.0,0.0,0.0,0.0,0.0,0.0,0.0,0.0,0.0,0.0,0.0,0.0,0.0,-1.7983,-1.7361,-1.7178,-1.7552,-1.9172,-2.0544,-2.1746,-2.2856,-2.4164,-2.5738,-2.7837,-2.7465,-2.7099,-2.8721,-2.91,-2.9274,0.0,0.0,0.0,0.0,0.0,0.0,0.0,0.0,0.0,0.0,0.0,0.0,0.0,0.0,0.0,0.0,0.0,0.0,0.0,0.0,0.0,0.0,0.0,0.0,-4.1311,-4.1311,-4.1311,-4.1311,-4.1311,-4.1311,-4.1311,-4.1311,-4.1311,-4.1311,-4.1311,-4.1311,-4.1311,-4.1311,-4.1311,-4.1311,-4.1311,-4.1311,-4.1311,-4.1311,-4.1311,-4.1311,0.0,0.0,0.0,0.0,0.0,0.0,0.0,0.0,0.0,0.0,0.0,0.0,0.0,0.0,0.0,0.0,0.0,0.0,0.0,-1.3817,-1.4603,-1.5085,-1.5601,-1.6463,-1.7645,-1.8288,-1.8804,-1.9195,-1.9711,-1.9792,-1.9436,-1.823,-1.7392,-1.6864,-1.5854,-1.5292,-1.5108,-1.5108,-1.5108,-1.5108,-1.5108,-1.521,0.0,0.0,0.0,0.0,0.0,0.0,0.0,0.0,-1.6595,-1.686,-1.7117,-1.7356,-1.7499,-1.7264,-1.7199,-1.7342,-1.8009,-2.0087,-2.2229,-2.3,-2.4909,-2.6883,-2.8132,-2.8917,-2.9745,-3.1117,-3.1392,-3.147,0.0,0.0,0.0,0.0,0.0,0.0,0.0,0.0,0.0,0.0,0.0,0.0,0.0,0.0,0.0,0.0,0.0,0.0,0.0,0.0,0.0,0.0,0.0,0.0,0.0,-4.0592,-4.0592,-4.0265,-4.0971,-4.1311,-4.1311,-4.1311,-4.1311,-4.1311,-4.1311,-4.1311,-4.1311,-4.1311,-4.1311,-4.1311,-4.1311,-4.1311,-4.1311,-4.1311,-4.1311,-4.1311,0.0,0.0,0.0,0.0,0.0,0.0,0.0,0.0,0.0,0.0,0.0,0.0,0.0,0.0,0.0,0.0,0.0,0.0,-1.2311,-1.332,-1.418,-1.4766,-1.5326,-1.6049,-1.6924,-1.7898,-1.8563,-1.8896,-1.9103,-1.8931,-1.8419,-1.7542,-1.6956,-1.6564,-1.5728,-1.5349,-1.5349,-1.5177,-1.5153,-1.5255,-1.5255,-1.539,0.0,0.0,0.0,0.0,0.0,0.0,0.0,0.0,-1.6522,-1.6765,-1.7081,-1.7199,-1.7199,-1.7199,-1.7447,-1.7735,-1.7735,-1.9891,-2.2296,-2.3013,-2.5088,-2.7294,-2.8647,-3.0006,-3.1365,-3.2698,-3.2829,-3.2685,-3.2685,0.0,0.0,0.0,0.0,0.0,0.0,0.0,0.0,0.0,0.0,0.0,0.0,0.0,0.0,0.0,0.0,0.0,0.0,0.0,0.0,0.0,0.0,0.0,0.0,-3.9978,-3.9978,-3.9625,-4.0396,-4.0867,-4.1036,-4.1036,-4.1036,-4.1023,-4.0853,-4.0775,-4.0775,-4.0775,-4.0775,-4.0775,-4.0775,-4.0775,-4.0775,-4.0775,-4.0775,-4.0775,0.0,0.0,0.0,0.0,0.0,0.0,0.0,0.0,0.0,0.0,0.0,0.0,0.0,0.0,0.0,0.0,0.0,0.0,-1.2259,-1.2675,-1.3268,-1.4046,-1.4732,-1.5326,-1.5889,-1.6864,-1.789,-1.8885,-1.8352,-1.7848,-1.7384,-1.6853,-1.6598,-1.6575,-1.6108,-1.5901,-1.5866,-1.5337,-1.5289,-1.5591,-1.5591,-1.5591,-1.568,0.0,0.0,0.0,0.0,0.0,0.0,0.0,-1.6689,-1.6765,-1.7094,-1.7212,-1.7212,-1.7199,-1.8009,-1.8911,-1.8911,-2.0191,-2.1812,-2.2921,-2.4527,-2.6589,-2.9461,-3.0581,-3.1483,-3.3247,-3.3117,-3.2698,-3.2698,-3.2698,0.0,0.0,0.0,0.0,0.0,0.0,0.0,0.0,0.0,0.0,0.0,0.0,0.0,0.0,0.0,0.0,0.0,0.0,0.0,0.0,0.0,0.0,0.0,-3.9599,-3.9599,-3.9586,-3.9599,-3.9886,-4.0409,-4.0409,-4.0409,-4.0383,-3.9847,-3.9612,-3.9612,-3.9612,-3.9612,-3.9612,-3.9612,-3.9612,-3.9612,-3.9612,-3.9612,-3.9612,0.0,0.0,0.0,0.0,0.0,0.0,0.0,0.0,0.0,0.0,0.0,0.0,0.0,0.0,0.0,0.0,0.0,0.0,-1.1716,-1.2326,-1.3018,-1.3716,-1.4306,-1.4832,-1.5337,-1.6003,-1.683,-1.7855,-1.7706,-1.7347,-1.6841,-1.6667,-1.6428,-1.6108,-1.5947,-1.5694,-1.5337,-1.5177,-1.5153,-1.5244,-1.5244,-1.5558,-1.5991,0.0,0.0,0.0,0.0,0.0,0.0,0.0,0.0,0.0,-1.7178,-1.7748,-1.8244,-1.7434,-1.831,-1.9447,-1.9028,-2.108,-2.3524,-2.4269,-2.6974,-2.968,-3.0542,-3.1182,-3.2071,-3.3796,-3.3718,-3.3326,-3.3326,0.0,0.0,0.0,0.0,0.0,0.0,0.0,0.0,0.0,0.0,0.0,0.0,0.0,0.0,0.0,0.0,0.0,0.0,0.0,0.0,0.0,0.0,0.0,0.0,0.0,-3.8789,-3.841,-3.922,-3.969,-3.9847,-3.9847,-3.9847,-3.9847,-3.9677,-3.9612,-3.9612,-3.9612,-3.9612,-3.9612,-3.9612,-3.9612,-3.9612,-3.9612,-3.9612,-3.9612,0.0,0.0,0.0,0.0,0.0,0.0,0.0,0.0,0.0,0.0,-1.091,-1.091,0.0,0.0,0.0,0.0,0.0,0.0,0.0,-1.199,-1.2586,-1.3292,-1.3819,-1.4396,-1.5096,-1.5636,-1.6095,-1.6499,-1.6692,-1.6531,-1.6002,-1.6415,-1.6463,-1.6188,-1.6188,-1.5992,-1.5658,-1.528,-1.5176,-1.53,-1.5468,-1.5714,-1.5957,0.0,0.0,0.0,0.0,0.0,0.0,0.0,0.0,0.0,-1.7199,-1.7669,-1.8179,-1.7944,-1.895,-2.0218,-2.0531,-2.2662,-2.504,-2.6104,-2.8368,-3.0542,-3.1457,0.0,0.0,0.0,-3.3966,-3.3652,-3.3875,0.0,0.0,0.0,0.0,0.0,0.0,0.0,0.0,0.0,0.0,0.0,0.0,0.0,0.0,0.0,0.0,0.0,0.0,0.0,0.0,0.0,0.0,0.0,0.0,0.0,0.0,-3.7913,-3.8606,-3.8932,-3.8932,-3.9155,-3.9246,-3.9246,-3.9024,-3.8932,-3.8932,-3.8932,-3.8932,-3.8932,-3.8932,-3.8932,-3.8932,-3.8932,-3.8932,-3.8932,0.0,0.0,-0.6509,-0.74,0.0,0.0,0.0,0.0,0.0,-1.091,-1.091,-1.091,0.0,0.0,0.0,-1.1147,-1.1185,-1.1287,0.0,-1.1664,-1.2127,-1.2908,-1.3446,-1.4155,-1.5085,-1.559,-1.559,-1.5108,-1.5647,-1.5636,-1.5131,-1.6082,-1.6507,-1.6461,-1.6507,-1.6531,-1.6453,-1.5521,-1.5345,-1.568,-1.6057,-1.6013,-1.58,-1.6744,0.0,0.0,0.0,0.0,0.0,0.0,0.0,0.0,-1.7199,-1.7264,-1.7539,-1.8479,-1.9719,-2.1106,-2.2635,-2.4383,-2.6229,-2.7954,-2.8948,-3.0072,-3.2202,-3.3117,-3.3679,-3.428,0.0,-3.3809,0.0,0.0,0.0,0.0,0.0,0.0,0.0,0.0,0.0,0.0,0.0,0.0,0.0,0.0,0.0,0.0,0.0,0.0,0.0,0.0,0.0,0.0,0.0,0.0,0.0,0.0,0.0,0.0,-3.79,-3.79,-3.7926,-3.841,-3.8645,-3.8606,-3.8122,-3.79,-3.79,-3.79,-3.79,-3.79,-3.79,-3.79,-3.79,-3.79,-3.79,-3.79,0.0,0.0,-0.738,-0.7949,0.0,0.0,0.0,0.0,-1.091,-1.091,-1.091,-1.091,-1.091,-1.091,0.0,-1.0957,-1.1109,-1.1223,-1.125,-1.1452,-1.2069,-1.3178,-1.4221,-1.489,-1.5108,-1.52,-1.5223,-1.5108,-1.5647,-1.5636,-1.5119,-1.5762,-1.5843,-1.5429,-1.5853,-1.5962,-1.5797,-1.5573,-1.5714,-1.6078,-1.6178,-1.6318,-1.6454,-1.6426,-1.6436,0.0,0.0,0.0,0.0,0.0,0.0,0.0,-1.7199,-1.7813,-1.8414,-1.7761,-1.9355,-2.1407,-2.1786,-2.3783,-2.6229,-2.7954,-2.9849,-3.1497,-3.2476,-3.279,-3.3169,-3.4188,-3.4306,0.0,0.0,0.0,0.0,0.0,0.0,0.0,0.0,0.0,0.0,0.0,0.0,0.0,0.0,0.0,0.0,0.0,0.0,0.0,0.0,0.0,0.0,0.0,0.0,0.0,-3.79,-3.79,-3.79,0.0,-3.79,-3.79,-3.79,-3.8018,-3.807,-3.807,-3.7952,-3.79,-3.79,-3.79,-3.79,-3.79,-3.79,-3.79,-3.79,-3.79,-3.79,-3.79,0.0,0.0,0.0,0.0,0.0,0.0,0.0,0.0,-1.091,-1.091,-1.091,-1.091,-1.091,-1.091,0.0,0.0,-1.1006,-1.109,-1.1185,-1.1306,-1.1888,-1.3054,-1.4172,-1.4699,-1.4574,-1.4685,-1.4763,-1.4763,-1.5039,-1.5154,-1.5119,-1.5889,-1.6107,-1.5819,-1.6105,-1.6065,-1.5729,-1.537,-1.5353,-1.5602,-1.5901,-1.6015,-1.6044,-1.6229,-1.6127,-1.5939,-1.6396,0.0,0.0,0.0,0.0,0.0,0.0,0.0,-1.8074,-1.8035,-1.9081,-2.057,-2.1956,-2.4005,-2.6438,-2.8987,0.0,-3.1876,-3.2215,-3.2489,-3.2868,-3.3456,0.0,0.0,0.0,0.0,0.0,0.0,0.0,0.0,0.0,0.0,0.0,0.0,0.0,0.0,0.0,0.0,0.0,0.0,0.0,0.0,0.0,0.0,0.0,0.0,0.0,0.0,-3.7037,-3.7037,-3.7037,-3.7037,-3.7037,-3.7194,-3.7482,-3.7769,-3.79,-3.79,-3.79,-3.79,-3.79,-3.79,-3.79,-3.79,-3.79,-3.79,-3.79,-3.79,-3.79,-3.79,0.0,0.0,0.0,0.0,0.0,0.0,0.0,0.0,0.0,-1.091,-1.091,-1.091,-1.091,-1.091,-1.091,0.0,0.0,0.0,-1.1128,-1.1259,-1.1778,-1.2737,-1.3685,-1.4071,-1.388,-1.4085,-1.4261,-1.4341,-1.4385,-1.4775,-1.5521,-1.6187,-1.6472,-1.6472,-1.6472,-1.6246,-1.5799,-1.5104,-1.4914,-1.509,-1.5519,-1.5542,-1.54,-1.6001,-1.5763,-1.5197,-1.5984,-1.6232,-1.6323,-1.6872,0.0,0.0,0.0,0.0,-1.7251,-1.8192,-1.861,-1.9303,-2.1773,-2.4178,-2.6726,-2.9902,-3.1196,0.0,-3.1654,-3.2058,-3.2424,0.0,0.0,0.0,0.0,0.0,0.0,0.0,0.0,0.0,0.0,0.0,0.0,0.0,0.0,0.0,0.0,0.0,0.0,0.0,0.0,0.0,0.0,0.0,0.0,0.0,0.0,-3.6005,-3.6109,-3.6109,-3.6109,-3.6109,-3.6109,-3.6358,-3.6867,-3.7364,-3.7704,-3.79,-3.79,-3.79,-3.79,-3.79,-3.79,-3.79,-3.79,-3.79,-3.79,-3.79,-3.79,-3.79,0.0,0.0,0.0,0.0,0.0,0.0,0.0,0.0,0.0,0.0,-1.091,-1.091,-1.091,-1.091,-1.091,-1.091,-1.1052,-1.109,-1.0949,0.0,0.0,-1.236,-1.2895,-1.3253,-1.3395,-1.3427,-1.3662,-1.4146,-1.4298,-1.5326,-1.7085,-1.6338,-1.6004,-1.6003,-1.5993,-1.587,-1.5617,-1.51,-1.5195,-1.5663,-1.531,-1.5306,-1.5491,-1.5585,-1.5546,-1.5443,-1.5578,-1.5617,-1.5696,-1.6297,-1.6506,0.0,0.0,0.0,0.0,-1.6676,-1.7434,-1.8388,-1.9251,0.0,-2.704,0.0,-3.0307,-3.1104,0.0,0.0,0.0,0.0,0.0,0.0,0.0,0.0,0.0,0.0,0.0,0.0,0.0,0.0,0.0,0.0,0.0,0.0,0.0,0.0,0.0,0.0,0.0,0.0,0.0,0.0,-3.4868,-3.5391,-3.5404,0.0,-3.6096,-3.6109,-3.6109,-3.6109,-3.6109,-3.6149,-3.6227,-3.6305,-3.692,-3.79,-3.79,-3.79,-3.79,-3.79,-3.79,-3.79,-3.79,-3.79,-3.79,-3.79,-3.79,-3.79,0.0,0.0,0.0,0.0,0.0,0.0,0.0,0.0,0.0,0.0,0.0,-1.091,-1.091,-1.091,-1.091,-1.091,-1.0987,-1.0976,-1.091,-1.1452,0.0,-1.1903,-1.2474,-1.2759,-1.2689,-1.2841,-1.3013,-1.327,-1.3454,-1.4673,-1.6792,-1.6759,-1.72,-1.8001,-1.7404,-1.6767,-1.6079,-1.491,-1.4655,-1.5027,-1.4721,-1.5349,-1.6362,-1.5374,-1.542,-1.5924,-1.525,-1.5008,-1.5134,-1.6075,-1.6256,-1.6109,-1.6393,0.0,0.0,0.0,-1.6133,-1.7186,-1.9682,-2.2753,-2.589,0.0,-2.9689,-3.0189,-3.0843,0.0,0.0,0.0,0.0,0.0,0.0,0.0,0.0,0.0,0.0,0.0,0.0,0.0,0.0,0.0,0.0,0.0,0.0,0.0,0.0,0.0,0.0,0.0,0.0,-3.4397,-3.4515,-3.4789,-3.4789,0.0,-3.5142,-3.5155,-3.5155,-3.5155,-3.5155,-3.5325,-3.5652,-3.5652,-3.6109,-3.6894,-3.6894,-3.6894,-3.6894,-3.6894,-3.6894,-3.6933,-3.726,-3.7403,-3.7442,-3.7782,-3.79,-3.79,0.0,0.0,0.0,0.0,0.0,0.0,0.0,0.0,0.0,0.0,0.0,-1.091,-1.091,0.0,0.0,0.0,-1.091,-1.091,-1.091,0.0,0.0,0.0,-1.1982,-1.2145,-1.1938,-1.2191,-1.2385,-1.2519,-1.2839,-1.4256,-1.6654,-1.7413,-1.8627,-2.0084,-1.8988,-1.7802,-1.652,-1.5178,-1.4735,-1.4934,-1.4754,-1.5574,-1.6799,-1.5878,-1.6161,-1.6904,-1.5604,-1.5216,-1.5433,-1.595,-1.5909,-1.5701,0.0,0.0,0.0,0.0,0.0,-1.6049,-1.9669,0.0,-2.3995,-2.717,-2.8399,-2.9144,0.0,0.0,0.0,0.0,0.0,0.0,0.0,0.0,0.0,0.0,0.0,0.0,0.0,0.0,0.0,0.0,0.0,0.0,0.0,0.0,0.0,0.0,0.0,0.0,-3.4188,-3.4188,-3.4254,-3.4397,-3.4397,-3.4397,-3.4397,-3.4397,-3.4397,-3.4397,-3.4397,-3.4633,-3.5064,-3.5064,-3.5286,-3.5691,-3.5979,-3.6109,-3.6109,-3.6109,-3.6109,-3.6149,-3.6606,-3.6776,-3.6841,-3.7456,-3.7678,-3.7691,0.0,0.0,0.0,0.0,0.0,0.0,0.0,0.0,0.0,0.0,0.0,-1.091,-1.091,-1.091,-1.091,-1.091,-1.091,-1.091,-1.091,0.0,0.0,0.0,0.0,0.0,-1.1254,-1.1459,-1.1809,-1.2322,-1.2955,-1.4743,-1.7556,-1.8435,-1.9693,-2.1261,-2.011,-1.8495,-1.6589,-1.6374,-1.6243,-1.6184,-1.6051,-1.6037,-1.6217,-1.7509,-1.8412,-1.8756,-1.7162,-1.6915,-1.7153,0.0,-1.5331,-1.5373,-1.5701,-1.5448,-1.4993,0.0,0.0,0.0,0.0,-1.9549,0.0,-2.3799,-2.5989,0.0,0.0,0.0,0.0,0.0,0.0,0.0,0.0,0.0,0.0,0.0,0.0,0.0,0.0,0.0,0.0,0.0,0.0,0.0,0.0,0.0,0.0,0.0,0.0,0.0,-3.36,-3.3639,-3.3862,-3.4384,-3.4397,-3.4397,-3.4397,-3.4397,-3.4397,-3.4397,-3.4397,-3.441,-3.445,-3.445,-3.4463,-3.4554,-3.5639,-3.6109,-3.6109,-3.6109,-3.6109,-3.6109,-3.6136,-3.6149,-3.6227,-3.6828,-3.705,-3.7129,0.0,0.0,0.0,0.0,0.0,0.0,0.0,0.0,0.0,0.0,0.0,0.0,0.0,-1.091,-1.091,-1.091,-1.091,0.0,0.0,0.0,0.0,0.0,0.0,0.0,-1.1204,-1.1397,-1.154,-1.1593,-1.2214,-1.351,-1.5432,-1.6311,-1.7217,-1.8165,-1.8863,-1.877,-1.797,-1.6185,-1.5577,-1.5795,-1.6017,-1.6905,-1.8108,-1.8179,-1.9475,-2.0992,-1.9295,0.0,0.0,0.0,0.0,-1.6103,-1.5539,-1.5203,-1.4879,-1.4263,-1.4598,-1.5453,-1.6676,0.0,0.0,-2.1956,-2.3903,-2.561,0.0,0.0,0.0,0.0,0.0,0.0,0.0,0.0,0.0,0.0,0.0,0.0,0.0,0.0,0.0,0.0,0.0,0.0,0.0,0.0,0.0,0.0,0.0,0.0,-3.2999,-3.3012,-3.3104,-3.33,-3.33,-3.33,-3.33,-3.3692,-3.3875,-3.3888,-3.4228,-3.4397,-3.4397,-3.4397,-3.4397,-3.4424,-3.4829,-3.5012,-3.5012,-3.5012,-3.5012,-3.5051,-3.543,-3.5587,-3.5652,-3.6227,-3.6423,-3.6449,0.0,0.0,0.0,-1.0673,0.0,-1.091,-1.091,-1.091,-1.091,-1.091,0.0,0.0,0.0,0.0,-1.091,-1.091,-1.091,-1.091,-1.091,-1.091,0.0,0.0,0.0,0.0,-1.109,-1.1295,-1.1333,-1.1204,-1.1777,-1.2682,-1.3879,-1.4836,-1.5624,-1.6299,-1.7157,-1.7764,-1.8051,-1.6739,-1.6149,-1.6209,-1.6931,-1.7989,-1.9212,-1.9576,-2.1116,-2.2862,0.0,0.0,0.0,0.0,0.0,-1.68,-1.5928,-1.5296,-1.4716,-1.4011,-1.4472,-1.5296,-1.5683,0.0,0.0,0.0,0.0,-2.3195,0.0,0.0,0.0,0.0,0.0,0.0,0.0,0.0,0.0,0.0,0.0,0.0,0.0,0.0,0.0,0.0,0.0,0.0,0.0,0.0,0.0,0.0,0.0,0.0,-3.2398,-3.2411,-3.2489,-3.2685,-3.2685,-3.2685,-3.2685,-3.3091,-3.3287,-3.33,-3.3652,-3.3822,-3.3835,-3.4031,-3.4123,-3.4136,-3.4319,-3.4397,-3.4397,-3.4397,-3.4397,-3.4437,-3.4842,-3.4999,-3.5064,-3.5626,-3.5835,-3.5861,-1.0019,-1.019,-1.018,-1.02,-1.059,-1.089,-1.091,-1.091,-1.091,-1.091,0.0,0.0,0.0,0.0,0.0,-1.0921,-1.0921,-1.0921,-1.091,-1.091,-1.091,0.0,0.0,0.0,-1.091,-1.109,-1.1204,-1.1185,-1.1719,-1.2402,-1.3187,-1.4214,-1.5207,-1.6058,-1.5156,-1.5401,-1.6575,-1.797,-1.8093,-1.7488,-1.8799,-1.9172,-1.9258,-2.1707,-2.3392,0.0,-2.2575,-2.2677,0.0,-2.0082,0.0,0.0,-1.6954,-1.5806,-1.452,-1.3997,-1.4219,-1.4655,0.0,0.0,0.0,0.0,0.0,0.0,0.0,0.0,0.0,0.0,0.0,0.0,0.0,0.0,0.0,0.0,0.0,0.0,0.0,0.0,0.0,0.0,0.0,0.0,0.0,0.0,0.0,0.0,0.0,-3.1222,-3.1745,-3.1784,-3.2032,-3.262,-3.2633,-3.2633,-3.2633,-3.2659,-3.2659,-3.2659,-3.2685,-3.2685,-3.2712,-3.33,-3.3561,-3.3587,-3.4136,-3.4371,-3.4371,-3.4384,-3.4397,-3.4397,-3.4397,-3.4397,-3.4463,-3.5051,-3.5273,-3.5338,-0.9664,-0.973,-0.9808,-1.0138,-1.0303,-1.0518,-1.0859,-1.091,-1.091,0.0,0.0,0.0,-1.0941,-1.1199,-1.1415,-1.1415,-1.1415,-1.1261,-1.0921,-1.091,-1.091,-1.091,-1.0957,-1.0957,-1.091,-1.109,-1.1128,-1.0976,-1.1424,-1.1789,-1.2048,-1.2497,-1.3012,-1.3608,-1.3736,-1.3861,-1.4049,-1.4816,-1.5784,-1.6773,-1.7091,-1.8654,0.0,0.0,0.0,0.0,0.0,-2.3809,-2.3761,0.0,-2.1054,-1.9423,-1.7372,-1.6053,-1.5175,-1.478,-1.5252,-1.58,-1.5369,0.0,0.0,0.0,0.0,0.0,0.0,0.0,0.0,0.0,0.0,0.0,0.0,0.0,0.0,0.0,0.0,0.0,0.0,0.0,0.0,0.0,0.0,0.0,0.0,0.0,0.0,0.0,0.0,-3.1052,-3.1209,-3.1222,-3.13,-3.1457,-3.1457,-3.1457,-3.1457,-3.1875,-3.2032,-3.2032,-3.2489,-3.2685,-3.2698,-3.2868,-3.2947,-3.2973,-3.3561,-3.3809,-3.3849,-3.4241,-3.4397,-3.4397,-3.4397,-3.4397,-3.441,-3.458,-3.4646,-3.4672,-0.9471,-0.9684,-0.9881,-1.0149,-1.0528,-1.095,-1.1406,-1.1488,-1.1488,0.0,0.0,0.0,-1.1509,-1.1871,-1.2079,-1.1923,-1.1705,-1.1477,-1.1209,-1.1014,-1.091,-1.091,-1.091,-1.091,-1.091,-1.1014,-1.1014,-1.091,-1.1126,-1.1263,-1.1302,-1.1518,-1.1695,-1.192,-1.2308,-1.2465,-1.242,-1.2627,-1.3904,-1.59,-1.728,0.0,0.0,-2.1597,-2.3107,0.0,0.0,0.0,-2.4408,-2.3475,-2.1949,0.0,0.0,-1.6999,-1.6688,-1.555,-1.6106,-1.6924,-1.6101,-1.6519,-1.7238,0.0,0.0,0.0,0.0,0.0,0.0,0.0,0.0,0.0,0.0,0.0,0.0,0.0,0.0,0.0,0.0,0.0,0.0,0.0,0.0,0.0,0.0,0.0,0.0,0.0,-3.0986,-3.0986,-3.0986,-3.0986,-3.0986,-3.0986,-3.0986,-3.0986,-3.0986,-3.1313,-3.1483,-3.1445,-3.1823,-3.198,-3.1993,-3.2228,-3.2333,-3.2372,-3.296,-3.3208,-3.326,-3.3822,-3.4188,-3.4397,-3.4397,-3.4397,-3.4397,-3.4397,-3.4397,-3.4397,0.0,-0.9824,-1.0175,-1.0208,-1.0993,-1.1767,-1.2235,-1.2307,-1.2307,0.0,-1.2349,-1.2421,-1.2566,-1.2834,-1.2822,-1.2473,-1.1965,-1.1674,-1.1591,-1.1168,-1.091,-1.091,-1.091,-1.091,-1.091,-1.091,-1.091,-1.091,-1.0859,-1.0859,-1.091,-1.1038,-1.0998,-1.0828,-1.105,-1.126,-1.1445,-1.1362,-1.2631,-1.4978,-1.805,-1.9295,0.0,0.0,-2.3444,-2.3307,-2.394,-2.4506,-2.4751,-2.3287,-2.1722,0.0,0.0,-1.8297,-1.8526,-1.6395,-1.6899,-1.7954,-1.7029,-1.7149,-1.7735,-1.8666,0.0,0.0,-1.9768,-1.9753,0.0,0.0,0.0,0.0,0.0,0.0,0.0,0.0,0.0,0.0,0.0,0.0,0.0,0.0,0.0,0.0,0.0,0.0,0.0,-3.0986,-3.0986,-3.0986,-3.0986,-3.0986,-3.0986,-3.0986,-3.0986,-3.0986,-3.0986,-3.0986,-3.0986,-3.0986,-3.0986,-3.0986,-3.0999,-3.1471,-3.1706,-3.1732,-3.2346,-3.2594,-3.2646,-3.3247,-3.3809,-3.4319,-3.4371,-3.4397,-3.4397,-3.4397,-3.4397,-3.4397,-0.8876,-0.9443,-0.9984,-1.0297,-1.1052,-1.1767,-1.2235,-1.2307,-1.2307,-1.2307,-1.2575,-1.3217,-1.4345,-1.3879,-1.3421,-1.3362,-1.2618,-1.2006,-1.1612,-1.1168,-1.091,-1.091,-1.091,-1.091,-1.091,-1.091,-1.091,-1.091,-1.052,-1.052,-1.09,-1.0547,-1.0371,-1.0345,-1.0772,-1.0783,-1.0539,-1.1632,-1.289,-1.426,-1.5457,0.0,-2.0719,-2.0818,-2.2232,-2.4077,-2.3464,-2.333,-2.3298,-2.2533,-2.1936,-2.1239,0.0,-1.8939,-1.9076,-1.7797,-1.7979,-1.8675,-1.9107,-1.9292,-1.929,-1.8988,0.0,0.0,0.0,-1.8316,0.0,0.0,0.0,0.0,0.0,0.0,0.0,0.0,0.0,0.0,0.0,0.0,0.0,0.0,0.0,0.0,0.0,0.0,-3.0986,-3.0986,-3.0986,-3.0986,-3.0986,-3.0986,-3.0986,-3.0986,-3.0986,-3.0986,-3.0986,-3.0986,-3.0986,-3.0986,-3.0986,-3.0986,-3.0986,-3.1104,-3.1156,-3.1182,-3.1719,-3.1967,-3.2006,-3.2633,-3.3208,-3.3796,-3.4228,-3.4397,-3.4397,-3.4397,-3.4397,-3.4397,-0.9254,-1.0046,-1.0769,-1.0963,-1.1686,-1.241,-1.2887,-1.2937,-1.302,-1.3281,-1.3879,-1.4304,-1.4304,-1.4304,-1.4117,-1.3628,-1.2989,-1.2399,-1.1986,-1.1519,-1.1127,-1.091,-1.091,-1.091,-1.091,-1.091,-1.091,-1.091,-1.0427,-1.0314,-1.0559,-1.0303,-1.0324,-1.0561,-1.1043,-1.125,-1.1292,-1.1996,-1.2746,-1.3655,-1.6005,0.0,-2.0412,-2.1461,-2.2357,-2.3113,-2.3075,-2.2906,-2.2691,-2.2344,-2.198,0.0,0.0,-2.0282,-2.0639,0.0,-1.9336,-2.0108,-1.971,-1.9764,-2.0006,-2.0195,0.0,0.0,0.0,0.0,0.0,0.0,0.0,0.0,0.0,0.0,0.0,0.0,0.0,0.0,0.0,0.0,0.0,0.0,0.0,0.0,0.0,0.0,-3.0255,-3.0542,-3.0555,-3.0686,-3.096,-3.0986,-3.0986,-3.0986,-3.0986,-3.0986,-3.0986,-3.0986,-3.0986,-3.0986,-3.0986,-3.0986,-3.0986,-3.0986,-3.0986,-3.0999,-3.1287,-3.1418,-3.1457,-3.2032,-3.245,-3.2777,-3.3326,-3.3731,-3.3992,-3.3992,-3.4162,-3.4397,-0.9806,-1.0813,-1.1614,-1.1521,-1.2346,-1.3132,-1.3421,-1.3535,-1.3793,-1.4366,-1.5163,-1.5328,-1.4351,-1.4873,-1.5028,-1.4434,-1.3555,-1.2979,-1.2825,-1.2048,-1.1477,-1.1169,-1.0993,-1.0941,-1.1024,-1.0952,-1.091,-1.091,-1.0334,-1.0108,-1.02,-1.0108,-1.0314,-1.0797,-1.1363,-1.1871,-1.2307,-1.2369,0.0,-1.3976,0.0,-1.8766,-1.9169,-2.1859,-2.2293,-2.1647,-2.2513,-2.2706,-2.2464,-2.2304,-2.1872,-2.1364,-2.0725,-2.1304,0.0,0.0,0.0,0.0,0.0,0.0,0.0,0.0,0.0,-1.8909,0.0,0.0,0.0,-1.8821,0.0,0.0,0.0,0.0,0.0,0.0,0.0,0.0,0.0,0.0,0.0,0.0,0.0,0.0,0.0,0.0,-2.8987,-2.9865,-2.9617,-2.9862,-3.0777,-3.083,-3.0869,-3.0986,-3.0986,-3.0986,-3.0986,-3.0986,-3.0986,-3.0986,-3.0986,-3.0986,-3.0986,-3.0986,-3.0986,-3.0986,-3.0986,-3.0986,-3.1013,-3.1483,-3.1641,-3.1706,-3.2424,-3.2986,-3.3417,-3.3417,-3.3692,-3.4084,-0.9914,-1.0949,-1.1645,-1.1234,-1.2459,-1.339,-1.3029,-1.3328,-1.3931,-1.48,-1.537,-1.5929,-1.6552,-1.6394,-1.6508,-1.7172,-1.4961,-1.3859,-1.4635,-1.2753,-1.1757,-1.2141,-1.1334,-1.1086,-1.1509,-1.1116,-1.091,-1.091,-1.0015,-0.9798,-1.019,-0.9777,-0.9839,-1.0314,-1.1199,-1.1871,-1.2328,0.0,-1.4268,0.0,-1.748,-1.7364,0.0,-1.9323,-2.0368,-2.0676,-2.1611,-2.2147,-2.2327,0.0,-2.1673,-2.1546,0.0,-2.0853,-2.1011,-2.0086,0.0,0.0,0.0,0.0,0.0,0.0,-2.0556,0.0,0.0,0.0,-1.8047,-1.7015,0.0,0.0,0.0,0.0,0.0,0.0,0.0,0.0,0.0,0.0,0.0,0.0,0.0,0.0,0.0,0.0,0.0,-2.9222,-2.7941,-2.7994,-3.0074,-3.0192,-3.0464,-3.096,-3.0986,-3.0986,-3.0986,-3.0986,-3.0986,-3.0986,-3.0986,-3.0986,-3.0986,-3.0986,-3.0986,-3.0986,-3.0986,-3.0986,-3.0986,-3.1052,-3.1078,-3.1196,-3.2267,-3.2738,-3.279,-3.279,-3.2829,-3.296,-1.0,-1.0751,-1.1384,-1.1399,-1.2211,-1.2855,-1.2894,-1.4231,-1.5163,-1.5018,-1.6094,-1.6893,-1.6996,-1.6841,-1.6893,-1.7265,0.0,-1.5291,0.0,0.0,-1.2919,-1.2328,-1.1923,-1.1685,-1.1591,-1.1415,-1.1178,-1.091,-0.9963,-0.9596,-0.9788,-0.9602,-1.0035,-1.1043,-1.1954,0.0,-1.4256,0.0,-1.4527,0.0,0.0,0.0,0.0,-1.9671,-2.1058,-2.1277,-2.1676,-2.1921,-2.192,0.0,-2.1081,0.0,0.0,0.0,0.0,0.0,0.0,0.0,0.0,0.0,0.0,0.0,0.0,0.0,-1.8222,0.0,-1.6841,0.0,0.0,0.0,0.0,0.0,0.0,0.0,0.0,0.0,0.0,0.0,0.0,0.0,0.0,0.0,0.0,0.0,0.0,0.0,0.0,-2.6896,-2.8495,-2.9552,-3.0218,-3.049,-3.0817,-3.0986,-3.0986,-3.0986,-3.0986,-3.0986,-3.0986,-3.0986,-3.0986,-3.0986,-3.0986,-3.0986,-3.0986,-3.0986,-3.0986,-3.0986,-3.0986,-3.1039,-3.1522,-3.1901,-3.2163,-3.2163,-3.2411,-3.2725,-0.9932,-1.0622,-1.1308,-1.1551,-1.2079,-1.2637,-1.3194,-1.4728,-1.5711,-1.5411,-1.6614,-1.7533,-1.7564,-1.7575,0.0,0.0,-1.7668,-1.6862,0.0,0.0,-1.4107,-1.3261,-1.2618,-1.2245,-1.2151,-1.1788,-1.1436,-1.1076,-1.0149,-0.9757,-0.9881,-0.9757,-1.0373,-1.1653,-1.2523,-1.3865,-1.5473,0.0,-1.5432,-1.6361,-1.6703,-1.7026,-1.7647,-2.0255,-2.1476,-2.1807,-2.1807,-2.1807,-2.1683,-2.0959,-2.0879,0.0,-2.1101,0.0,0.0,0.0,0.0,0.0,-2.0364,0.0,0.0,0.0,0.0,0.0,0.0,0.0,0.0,0.0,0.0,0.0,0.0,0.0,0.0,0.0,0.0,0.0,0.0,0.0,0.0,0.0,0.0,0.0,0.0,0.0,0.0,0.0,0.0,0.0,-2.7196,-2.849,-2.9435,-3.0074,-3.0529,-3.083,-3.0986,-3.0986,-3.0986,-3.0986,-3.0986,-3.0986,-3.0986,-3.0986,-3.0986,-3.0986,-3.0986,-3.0986,-3.0986,-3.0986,-3.0986,-3.0986,-3.0986,-3.1248,-3.1575,-3.1575,-3.1862,-3.2254,-0.9666,-1.0714,-1.1591,-1.1591,-1.2306,-1.3183,-1.4103,-1.4324,-1.4852,-1.6195,0.0,0.0,0.0,0.0,0.0,0.0,0.0,-1.8538,-1.8922,0.0,-1.5152,-1.5566,-1.3468,-1.269,-1.3527,-1.2254,-1.1581,-1.1571,-1.0632,-1.0407,-1.0848,-1.0386,-1.0683,-1.1653,-1.2523,-1.3679,-1.508,-1.5977,-1.7615,-1.9647,-1.9658,-2.0456,-2.1476,0.0,-2.0648,-2.1807,-2.1807,0.0,0.0,-2.1629,-2.135,0.0,0.0,0.0,0.0,0.0,0.0,0.0,0.0,0.0,0.0,-1.884,0.0,0.0,0.0,0.0,-1.7756,0.0,0.0,0.0,0.0,0.0,-1.7989,-1.8242,-1.8295,0.0,0.0,0.0,0.0,0.0,0.0,0.0,0.0,0.0,0.0,0.0,0.0,0.0,-2.6523,-2.6784,-2.7811,-3.0022,-3.0113,-3.0424,-3.0973,-3.0986,-3.0986,-3.0986,-3.0986,-3.0986,-3.0986,-3.0986,-3.0986,-3.0986,-3.0986,-3.0986,-3.0986,-3.0986,-3.0986,-3.0986,-3.0986,-3.0999,-3.1013,-3.1013,-3.1026,-3.1117,-1.0286,-1.1058,-1.1678,-1.1678,-1.1858,-1.2544,-1.4076,-1.5312,-1.6469,0.0,0.0,0.0,0.0,-2.0876,-2.1062,0.0,0.0,-2.0203,-1.917,-1.7947,0.0,0.0,0.0,-1.4386,0.0,-1.332,-1.2627,-1.2048,-1.1436,-1.1199,-1.1344,-1.0879,-1.1168,-1.21,-1.2658,-1.4035,0.0,0.0,0.0,0.0,0.0,-2.0586,-2.1756,0.0,0.0,-2.1807,-2.1807,-2.1807,0.0,-2.1734,-2.1447,-2.1172,-2.1586,-2.1204,-2.069,-2.099,-2.1119,0.0,0.0,0.0,-2.1366,-1.9636,0.0,0.0,0.0,0.0,0.0,0.0,0.0,0.0,0.0,-1.7911,-1.748,-1.7214,-1.6919,-1.6502,0.0,0.0,0.0,0.0,0.0,0.0,0.0,0.0,0.0,0.0,0.0,0.0,0.0,-2.619,-2.7568,-2.8351,-2.95,-3.0192,-3.0388,-3.079,-3.0986,-3.0986,-3.0986,-3.0986,-3.0986,-3.0986,-3.0986,-3.0986,-3.0986,-3.0986,-3.0986,-3.0986,-3.0986,-3.0986,-3.0986,-3.0986,-3.0986,-3.0986,-3.0986,-3.1013,-1.0542,-1.1099,-1.1583,-1.1717,-1.2213,-1.3099,-1.4568,0.0,0.0,0.0,-1.971,0.0,-2.1921,0.0,-2.2118,0.0,-2.2294,-2.159,-1.9903,-1.9365,0.0,-1.7802,-1.6901,0.0,0.0,-1.4759,-1.391,-1.3012,-1.2379,-1.2047,-1.2058,-1.1437,-1.1633,-1.2535,-1.2969,-1.4273,-1.6216,-1.7024,-1.8051,0.0,0.0,-2.1021,0.0,0.0,-2.1807,-2.1807,0.0,-2.1807,-2.1807,-2.1807,-2.1611,-2.1414,-2.1714,-2.1393,-2.0979,-2.1269,-2.1303,-2.1271,-2.1246,-2.1415,0.0,-2.0161,-1.9461,0.0,-1.725,0.0,0.0,0.0,0.0,0.0,0.0,0.0,-1.7324,-1.7174,-1.6538,-1.594,0.0,0.0,0.0,0.0,0.0,0.0,0.0,0.0,-1.8571,-1.9954,0.0,0.0,0.0,0.0,-2.6654,-2.7464,-2.8817,-2.9683,-3.01,-3.0503,-3.079,-3.0986,-3.0986,-3.0986,-3.0986,-3.0986,-3.0986,-3.0986,-3.0986,-3.0986,-3.0986,-3.0986,-3.0986,-3.0986,-3.0986,-3.0986,-3.0986,-3.0986,-3.0986,-3.0986,-1.0399,-1.0883,0.0,0.0,-1.3285,0.0,0.0,0.0,-1.8735,0.0,-2.0617,-2.1538,-2.247,-2.2584,-2.277,-2.3184,-2.3215,-2.2656,-2.13,-2.0726,0.0,0.0,-1.833,-1.7781,-1.774,0.0,0.0,-1.4335,-1.339,-1.2925,-1.2884,-1.2047,-1.2099,-1.2925,-1.3359,0.0,-1.5835,-1.8071,-1.9551,-2.0498,-2.1445,-2.1807,-2.1807,-2.1807,0.0,-2.1807,-2.1807,-2.1807,-2.1807,-2.1807,-2.1807,-2.1807,-2.1807,-2.1807,-2.1807,-2.1807,-2.1807,-2.179,-2.1639,-2.1597,-2.1341,-2.0343,0.0,0.0,0.0,0.0,-1.9571,0.0,0.0,0.0,0.0,0.0,0.0,-1.7966,-1.7073,-1.6298,0.0,0.0,0.0,0.0,0.0,0.0,0.0,-1.6499,-1.7073,-1.8702,-1.8401,0.0,0.0,0.0,0.0,-2.7307,-2.8033,-2.8922,-3.0009,-3.0074,-3.0375,-3.0947,-3.0973,-3.0986,-3.0986,-3.0986,-3.0986,-3.0986,-3.0986,-3.0986,-3.0986,-3.0986,-3.0986,-3.0986,-3.0986,-3.0986,-3.0986,-3.0986,-3.0986,-3.0986,-1.0428,-1.1342,-1.2387,0.0,-1.3952,-1.4958,0.0,0.0,0.0,0.0,-2.1569,-2.2501,-2.3422,-2.3815,-2.3929,-2.3722,-2.3701,0.0,0.0,0.0,0.0,-2.1114,-1.9903,-1.893,-1.8225,-1.6901,0.0,-1.4821,0.0,-1.3235,-1.2894,-1.2667,-1.2677,-1.2915,-1.3029,-1.4066,-1.5773,-1.7026,-1.8835,-2.0953,-2.1569,-2.1807,0.0,0.0,-2.1807,-2.1807,-2.1807,-2.1807,-2.1807,-2.1807,-2.1807,-2.1807,-2.1807,-2.1807,-2.1807,-2.1807,-2.1807,-2.1776,-2.1776,-2.1745,-2.1653,-2.1267,-2.0637,-1.9936,0.0,0.0,0.0,0.0,0.0,0.0,0.0,0.0,0.0,-1.718,-1.611,-1.5417,0.0,0.0,0.0,0.0,0.0,0.0,0.0,-1.6395,-1.6909,-1.7583,-1.8296,0.0,0.0,0.0,0.0,-2.562,-2.7452,-2.8529,-2.883,-2.9657,-3.0179,-3.0322,-3.079,-3.0986,-3.0986,-3.0986,-3.0986,-3.0986,-3.0986,-3.0986,-3.0986,-3.0986,-3.0986,-3.0986,-3.0986,-3.0986,-3.0986,-3.0986,-3.0986,-3.0986,-1.1078,0.0,0.0,-1.4549,0.0,0.0,-1.7679,0.0,0.0,-2.1197,-2.2221,0.0,-2.3525,-2.4157,-2.4394,-2.4188,-2.4167,0.0,-2.3225,0.0,0.0,-2.1828,-2.1259,-2.0431,-1.929,-1.8154,0.0,-1.5597,0.0,-1.3555,-1.2894,-1.273,-1.2637,-1.2648,-1.3051,-1.4035,-1.5515,-1.7419,-1.9344,-2.1155,-2.1621,0.0,0.0,-2.1807,-2.1807,-2.1807,-2.1807,-2.1807,-2.1807,-2.1807,-2.1807,-2.1807,-2.1807,-2.1807,-2.1807,-2.1807,-2.1807,-2.1807,-2.1807,-2.1807,-2.1783,-2.1711,-2.1251,-2.0757,-2.0463,-2.0584,-2.0627,0.0,0.0,0.0,0.0,0.0,0.0,-1.656,-1.5701,-1.521,0.0,0.0,0.0,0.0,0.0,0.0,0.0,-1.6093,-1.6752,-1.7186,-1.7787,0.0,0.0,0.0,0.0,-2.457,-2.6601,-2.791,-2.8407,-2.9039,-2.9497,-2.9771,-3.0333,-3.062,-3.062,-3.0869,-3.0986,-3.0986,-3.0986,-3.0986,-3.0986,-3.0986,-3.0986,-3.0986,-3.0986,-3.0986,-3.0986,-3.0986,-3.0986,-3.0986,-1.1971,0.0,0.0,0.0,0.0,0.0,0.0,-1.9596,0.0,-2.1869,0.0,-2.337,-2.337,-2.4064,-2.4497,-2.4497,0.0,-2.4166,-2.3412,-2.3691,-2.3339,-2.2128,-2.2346,-2.1901,-2.0591,-1.9592,-1.8248,0.0,-1.5018,-1.3783,-1.2801,-1.2462,-1.2307,-1.2339,0.0,0.0,0.0,-1.8424,-2.0193,-2.1036,-2.159,-2.1807,-2.1807,-2.1807,-2.1807,-2.1807,-2.1807,-2.1807,-2.1807,-2.1807,-2.1807,-2.1807,-2.1807,-2.1807,-2.1807,-2.1807,-2.1807,-2.1807,-2.1807,-2.1807,-2.1807,-2.1807,-2.1807,-2.1676,-2.1155,-2.1012,-2.1012,-2.1012,-2.0599,-2.0527,0.0,0.0,0.0,-1.6323,0.0,0.0,0.0,0.0,0.0,0.0,0.0,0.0,0.0,-1.5744,-1.6508,-1.6972,-1.7139,0.0,0.0,0.0,0.0,0.0,-2.5667,0.0,-2.8185,0.0,-2.8669,-2.9205,-2.9745,-3.0022,-3.0113,-3.0647,-3.0921,-3.0986,-3.0986,-3.0986,-3.0986,-3.0986,-3.0986,-3.0986,-3.0986,-3.0986,-3.0986,-3.0986,-3.0986,-3.0986,0.0,0.0,0.0,0.0,0.0,-1.7944,-1.9326,-2.0186,-2.1188,-2.2742,-2.3743,-2.4259,-2.4259,-2.4404,-2.4497,-2.4497,-2.4497,0.0,0.0,0.0,0.0,-2.3525,-2.2863,-2.2201,-2.158,-1.9924,-1.8371,0.0,-1.5136,-1.3641,-1.24,-1.2339,-1.2307,-1.2328,0.0,0.0,-1.6299,-1.8351,0.0,-2.0581,-2.1466,-2.1807,-2.1807,-2.1807,-2.1807,-2.1807,-2.1807,-2.1807,-2.1807,-2.1807,-2.1807,-2.1807,-2.1807,-2.1807,-2.1807,-2.1807,-2.1807,-2.1807,-2.1807,-2.1807,-2.1807,-2.1807,-2.1807,-2.1766,-2.1676,-2.1634,-2.1634,-2.1634,-2.1547,-2.1408,-2.1113,0.0,0.0,0.0,0.0,0.0,0.0,0.0,0.0,0.0,0.0,0.0,0.0,0.0,-1.5954,0.0,0.0,0.0,0.0,0.0,0.0,0.0,0.0,0.0,0.0,0.0,0.0,-2.8577,-2.9144,-2.968,-3.01,-3.0205,-3.0542,-3.0986,-3.0986,-3.0986,-3.0986,-3.0986,-3.0986,-3.0986,-3.0986,-3.0986,-3.0986,-3.0986,-3.0986,-3.0986,0.0,0.0,0.0,0.0,0.0,0.0,0.0,-2.0056,0.0,-2.2318,-2.3268,-2.3669,-2.3283,-2.3995,-2.4497,-2.4497,-2.4497,-2.4497,-2.4497,-2.4301,-2.4115,-2.3888,-2.3453,0.0,-2.1828,-2.0472,-1.8845,-1.7017,-1.5415,-1.3962,-1.2606,-1.2606,-1.2504,-1.2359,0.0,-1.4883,0.0,0.0,0.0,-2.0467,-2.1435,-2.1807,-2.1807,-2.1807,-2.1807,-2.1807,-2.1807,-2.1807,-2.1807,-2.1807,-2.1807,-2.1807,-2.1807,-2.1807,-2.1807,-2.1807,-2.1807,-2.1807,-2.1807,-2.1807,-2.1807,-2.1807,-2.1807,-2.1807,-2.1807,-2.1807,-2.1807,-2.1807,-2.1807,-2.152,-2.0674,-1.939,0.0,0.0,0.0,0.0,0.0,0.0,0.0,0.0,0.0,0.0,0.0,0.0,0.0,0.0,0.0,0.0,0.0,0.0,0.0,0.0,0.0,0.0,0.0,0.0,0.0,-2.7941,-2.8529,-2.9118,-2.9693,-2.9957,-3.0451,-3.0986,-3.0986,-3.0986,-3.0986,-3.0986,-3.0986,-3.0986,-3.0986,-3.0986,-3.0986,-3.0986,-3.0986,-3.0986,0.0,-1.5904,0.0,0.0,-1.7277,0.0,-1.8622,-1.9787,-2.0864,-2.1659,-2.2639,-2.3052,-2.2462,-2.364,-2.4497,-2.4497,-2.4497,-2.4497,-2.4497,-2.4497,-2.4342,-2.4033,-2.3971,-2.336,-2.2273,-2.1238,-1.9662,0.0,0.0,-1.4651,-1.3194,-1.2998,-1.2844,-1.2794,0.0,0.0,0.0,0.0,-2.0162,-2.0602,-2.1476,-2.1807,-2.1807,-2.1807,-2.1807,-2.1807,-2.1807,-2.1807,-2.1807,-2.1807,-2.1807,-2.1807,-2.1807,-2.1807,-2.1807,-2.1807,-2.1807,-2.1807,-2.1807,-2.1807,-2.1807,-2.1807,-2.1807,-2.1807,-2.1807,-2.1807,-2.1776,-2.1683,-2.158,-2.1198,-2.0152,-1.9262,0.0,0.0,0.0,0.0,0.0,0.0,0.0,0.0,0.0,0.0,0.0,0.0,0.0,0.0,0.0,0.0,0.0,0.0,0.0,0.0,0.0,0.0,-2.594,0.0,-2.7335,0.0,-2.796,-2.8569,-2.9252,-2.9709,-3.0333,-3.0986,-3.0986,-3.0986,-3.0986,-3.0986,-3.0986,-3.0986,-3.0986,-3.0986,-3.0986,-3.0986,-3.0986,-3.0986,0.0,0.0,0.0,0.0,0.0,0.0,0.0,-1.9654,-2.0872,-2.1594,-2.2746,-2.3471,-2.3374,-2.4059,-2.4497,-2.4497,-2.4497,-2.4497,-2.4497,-2.4497,-2.4476,-2.4435,-2.4095,-2.3857,-2.3691,-2.2366,-2.0969,0.0,0.0,-1.5911,-1.4159,-1.3297,-1.3328,-1.42,0.0,0.0,0.0,-1.9748,-2.0627,-2.1093,-2.16,-2.1807,-2.1807,-2.1807,-2.1807,-2.1807,-2.1807,-2.1807,-2.1807,-2.1807,-2.1807,-2.1807,-2.1807,-2.1807,-2.1807,-2.1807,-2.1807,-2.1807,-2.1807,-2.1807,-2.1807,-2.1807,-2.1807,-2.1807,-2.1807,-2.1807,-2.1683,-2.1269,-2.0845,-2.0265,-1.937,-1.9474,-1.9098,0.0,0.0,0.0,0.0,0.0,0.0,0.0,0.0,0.0,0.0,0.0,0.0,0.0,0.0,0.0,0.0,0.0,0.0,-1.982,0.0,-2.316,-2.3525,-2.6032,0.0,-2.7302,-2.7488,-2.8087,-2.9035,-2.9256,-2.9954,-3.0986,-3.0986,-3.0986,-3.0986,-3.0986,-3.0986,-3.0986,-3.0986,-3.0986,-3.0986,-3.0986,-3.0986,-3.0986,0.0,0.0,0.0,0.0,0.0,0.0,0.0,-1.8492,-1.9217,-1.9484,-2.1204,-2.2378,-2.2246,-2.2589,-2.3115,-2.3851,-2.3894,-2.4067,-2.4454,-2.4497,-2.4497,-2.4497,-2.4332,-2.4146,-2.3929,-2.2791,-2.1549,0.0,0.0,0.0,0.0,-1.5297,-1.5339,0.0,0.0,-1.8454,-1.8922,-2.0255,-2.0948,-2.1155,-2.1621,-2.1807,-2.1807,-2.1807,-2.1807,-2.1807,-2.1807,-2.1807,-2.1807,-2.1807,-2.1807,-2.1807,-2.1807,-2.1807,-2.1807,-2.1807,-2.1807,-2.1807,-2.1807,-2.1807,-2.1807,-2.1807,-2.1807,-2.1807,-2.1807,-2.1807,-2.1673,-2.1207,-2.0534,-1.9913,-1.9585,-1.9212,-1.8818,0.0,0.0,0.0,0.0,0.0,0.0,0.0,0.0,-1.4125,0.0,0.0,0.0,0.0,0.0,0.0,-1.6534,0.0,0.0,-1.9019,0.0,-2.2767,-2.3027,-2.576,-2.7113,-2.7113,-2.7302,-2.7751,-2.8459,-2.8529,-2.9272,-3.049,-3.083,-3.0986,-3.0986,-3.0986,-3.0986,-3.0986,-3.0986,-3.0986,-3.0986,-3.0986,-3.0986,-3.0986,-1.6899,0.0,-1.6785,0.0,-1.7259,-1.7131,-1.726,-1.7753,-1.8087,-1.8087,-1.9575,-2.0709,-2.0943,-2.1248,-2.1819,-2.2677,-2.2862,-2.3178,-2.3657,-2.3927,-2.411,-2.4196,-2.4325,0.0,-2.4084,-2.3308,-2.2356,-2.1238,-1.9862,0.0,0.0,-1.7243,0.0,0.0,-1.892,-1.9541,-1.9748,-2.0855,-2.1321,-2.1342,-2.1673,-2.1807,-2.1818,-2.1952,-2.2004,-2.2025,-2.2159,-2.2128,-2.2004,-2.2004,-2.1921,-2.1807,-2.1807,-2.1807,-2.1807,-2.1807,-2.1807,-2.1807,-2.1807,-2.1807,-2.1807,-2.1807,-2.1807,-2.1807,-2.1807,-2.1694,-2.1435,-2.0834,-2.0135,-1.9596,-1.9596,-1.9056,-1.8631,-1.8671,0.0,0.0,0.0,0.0,0.0,0.0,-1.4345,-1.3876,-1.3889,0.0,0.0,0.0,0.0,0.0,-1.6051,0.0,0.0,0.0,0.0,0.0,0.0,-2.5223,-2.6577,-2.6577,-2.6552,-2.6911,-2.7621,-2.827,-2.9139,-3.0127,-3.0738,-3.0911,-3.071,-3.071,-3.0596,-3.0432,-3.0432,-3.0545,-3.071,-3.071,-3.0823,-3.0986,-1.6829,-1.6895,-1.6991,-1.7267,-1.7318,-1.7318,-1.7279,-1.7753,-1.8087,-1.8087,-1.8133,-1.8581,-1.9803,-2.0503,-2.0935,-2.0935,-2.1409,-2.1739,-2.1739,-2.2599,-2.3232,0.0,0.0,-2.4282,-2.4487,-2.4095,-2.367,-2.3153,0.0,0.0,-1.9741,-1.8818,-1.8631,-1.9119,-1.9996,-2.0622,-2.1124,-2.16,-2.1797,-2.1797,-2.1807,-2.1807,-2.1859,-2.2315,-2.249,-2.2542,-2.3008,-2.2884,-2.249,-2.249,-2.218,-2.1807,-2.1807,-2.1807,-2.1807,-2.1807,-2.1807,-2.1807,-2.1807,-2.1807,-2.1807,-2.1807,-2.1807,-2.1807,-2.1807,-2.1455,-2.0866,-2.0,-1.944,-1.9108,-1.9108,-1.9108,-1.8808,-1.7864,0.0,0.0,0.0,0.0,0.0,0.0,-1.3776,-1.3101,-1.3545,0.0,0.0,0.0,0.0,0.0,0.0,0.0,0.0,-1.7213,-2.0392,0.0,-2.1729,-2.4319,-2.5627,-2.5592,-2.504,-2.5302,-2.6504,-2.874,-2.9915,-3.0127,-3.0738,-3.0621,-2.9999,-2.9999,-2.9678,-2.9121,-2.9121,-2.9484,-2.9999,-2.9999,-3.0432,-3.0986,-1.7157,-1.7179,-1.7208,-1.7311,-1.7279,-1.7279,-1.7279,-1.7426,-1.7559,-1.7559,-1.7559,-1.7699,-1.811,-1.8657,-1.9338,0.0,-2.0385,-2.0656,0.0,-2.1436,-2.181,-2.2236,-2.2076,-2.2296,-2.3062,-2.2824,-2.2529,-2.2172,0.0,0.0,0.0,-2.0855,-2.0959,-2.1414,-2.1704,-2.2097,-2.2542,-2.2687,-2.2749,-2.2749,-2.2749,-2.2749,-2.277,-2.2915,-2.2967,-2.2987,-2.3143,-2.3091,-2.2967,-2.2967,-2.2873,-2.2749,-2.2749,-2.2315,-2.1807,-2.1807,-2.1807,-2.1807,-2.1807,-2.1807,-2.1807,-2.1807,-2.1807,-2.1807,-2.1807,-2.1207,-2.0529,-2.0276,-1.9637,-1.9108,-1.9108,-1.9108,-1.9005,-1.8692,0.0,0.0,0.0,0.0,0.0,0.0,-1.48,-1.4397,0.0,-1.4138,0.0,0.0,0.0,0.0,0.0,0.0,0.0,0.0,-1.9666,0.0,-2.0687,-2.3934,-2.5264,-2.4588,-2.5087,-2.5206,-2.5086,-2.698,-2.7854,-2.799,-2.9188,-2.9832,-2.9999,-2.9999,-3.0152,-3.0394,-3.0394,-3.0508,-3.0672,-3.0672,-3.0823,-3.0986,-1.7279,-1.7279,-1.7279,-1.7279,-1.7279,-1.7279,-1.7279,-1.7279,-1.7279,-1.7279,-1.7279,-1.7279,-1.7279,-1.7613,0.0,-1.8842,-1.9117,-1.9384,-1.9824,-2.0187,-2.0548,-2.1015,-2.0863,-2.1123,-2.18,0.0,0.0,-2.1422,-2.1752,-2.1779,-2.153,-2.153,-2.167,-2.199,-2.2231,-2.2503,-2.2808,-2.3103,-2.3184,-2.3184,-2.3184,-2.3184,-2.3205,-2.3381,-2.3443,-2.3463,-2.3639,-2.3588,-2.3443,-2.3443,-2.3329,-2.3184,-2.3184,-2.2677,-2.2066,-2.2066,-2.1942,-2.1807,-2.1807,-2.1807,-2.1807,-2.1807,-2.1807,-2.1756,-2.159,-2.0969,-2.0379,-2.0213,-1.9582,-1.9108,-1.9108,-1.9108,-1.9108,-1.9108,-1.8714,-1.8226,-1.7761,0.0,0.0,0.0,0.0,0.0,0.0,-1.5178,0.0,0.0,0.0,0.0,0.0,0.0,0.0,-1.7148,-1.977,0.0,-2.0972,-2.3408,-2.4312,-2.3694,-2.4312,-2.4373,-2.3998,-2.5753,-2.6564,-2.6699,-2.8203,-2.8912,-2.9081,-2.925,-2.9419,-2.9574,-2.9574,-2.9883,-3.0305,-3.0305,-3.0583,-3.0986,-1.7279,-1.7279,0.0,0.0,-1.7279,0.0,-1.7279,-1.7279,-1.7279,-1.7279,-1.7279,-1.7279,-1.7279,-1.7279,-1.7279,-1.7279,0.0,0.0,0.0,-1.885,-1.9484,-1.9758,-2.015,-2.0494,-2.0755,-2.0755,-2.08,-2.089,-2.095,-2.1038,-2.1151,-2.1123,-2.1174,-2.1244,-2.1821,-2.2121,-2.2233,-2.2859,-2.3155,-2.3206,-2.3155,-2.3155,-2.3196,-2.368,-2.3877,-2.3939,-2.4352,-2.4281,-2.3929,-2.3929,-2.3639,-2.3277,-2.3277,-2.2967,-2.2573,-2.2511,-2.217,-2.1807,-2.1807,-2.1807,-2.1807,-2.1807,-2.1807,-2.1694,-2.1259,-2.0803,-2.0348,-1.9969,-1.9492,-1.915,-1.915,-1.9119,-1.9088,-1.9056,-1.8673,-1.8185,-1.7719,0.0,0.0,0.0,0.0,0.0,0.0,-1.6314,-1.6872,0.0,0.0,0.0,0.0,0.0,-1.7138,-1.8414,-2.0434,-2.1743,-2.2197,-2.2761,-2.3001,-2.3001,-2.2927,-2.2979,-2.3143,-2.4941,-2.5869,-2.613,-2.7605,-2.7947,-2.7476,-2.7955,-2.7817,-2.7301,-2.7301,-2.8047,-2.9081,-2.9081,-2.9832,-3.0861,0.0,0.0,-1.7279,-1.7279,-1.7279,-1.7279,-1.7279,-1.7279,-1.7279,-1.7279,-1.7279,-1.7279,-1.7279,-1.7279,-1.7279,-1.7279,-1.7426,-1.7473,-1.7473,-1.7699,-1.8017,-1.8496,-1.8249,-1.8473,-1.9263,-1.9467,-1.9988,-2.089,-2.0739,-2.098,-2.1542,-2.1564,-2.1755,-2.2091,-2.1897,-2.2287,-2.3143,-2.2769,-2.2908,-2.3368,-2.2822,-2.2587,-2.264,-2.3338,-2.3614,-2.3667,-2.4284,-2.4435,-2.4342,-2.4342,-2.427,-2.4177,-2.4177,-2.3908,-2.3412,-2.2708,-2.217,-2.1807,-2.1807,-2.1807,-2.1807,-2.1807,-2.1807,-2.1776,-2.1662,-2.128,-2.0917,-2.0814,-2.0151,-1.9627,-1.9627,-1.9347,-1.8984,-1.8631,-1.8175,-1.7688,-1.7234,-1.6996,0.0,0.0,-1.7006,-1.7172,-1.7068,-1.7347,-1.7347,0.0,0.0,0.0,0.0,0.0,-1.8248,-1.8922,-2.0066,-2.0925,-2.1397,-2.2466,-2.3001,-2.3001,-2.2365,-2.2101,-2.2197,-2.3651,-2.4309,-2.4443,-2.5887,-2.6682,-2.7017,-2.7476,-2.7839,-2.8159,-2.849,-2.8846,-2.9081,-2.9081,-2.9277,-2.9549,-1.7279,-1.7279,-1.7279,-1.7279,-1.7279,-1.7279,-1.7279,-1.7279,-1.7279,-1.7279,-1.7279,-1.7279,-1.7279,-1.7279,-1.7279,-1.7279,-1.7279,-1.7279,-1.7279,-1.7279,-1.7419,-1.7707,-1.7473,-1.7567,-1.8079,-1.8241,-1.8734,-1.9604,-1.9484,-1.9766,-2.0393,-2.0357,-2.0633,-2.1141,-2.1148,-2.1713,-2.2511,-2.2448,-2.2624,-2.295,-2.258,-2.2394,-2.2438,-2.2853,-2.3222,-2.3547,-2.3894,-2.4239,-2.4497,-2.4497,-2.4497,-2.4497,-2.4497,-2.4229,-2.3815,-2.3277,-2.2646,-2.2076,-2.1859,-2.1807,-2.1807,-2.1807,-2.1807,-2.1807,-2.1807,-2.1445,-2.1114,-2.1114,-2.04,-1.9793,-1.9793,-1.9419,-1.8953,-1.8486,-1.8019,-1.7544,-1.7079,-1.7017,0.0,-1.7017,-1.7595,-1.7957,-1.7719,-1.8102,-1.8154,-1.7688,0.0,0.0,-1.7968,-1.8662,-1.916,-1.9409,-2.0265,-2.0969,-2.1424,-2.2125,-2.244,-2.244,-2.1987,-2.1807,-2.1838,-2.2987,-2.3526,-2.3608,-2.4962,-2.579,-2.6133,-2.6599,-2.6958,-2.7284,-2.7528,-2.7799,-2.8068,-2.8279,-2.8557,-2.8794,-1.7279,-1.7279,-1.7279,-1.7279,-1.7279,-1.7279,-1.7279,-1.7279,-1.7279,-1.7279,-1.7279,-1.7279,-1.7279,-1.7279,-1.7279,-1.7279,-1.7279,-1.7279,-1.7279,-1.7279,-1.7279,-1.7279,-1.7279,-1.7279,-1.7279,-1.7279,-1.752,-1.7994,-1.8087,-1.8319,-1.8689,-1.8781,-1.905,-1.9509,-2.0093,-2.0682,-2.1311,-2.1784,-2.2085,-2.2227,-2.2138,-2.2085,-2.2085,-2.2217,-2.2677,-2.3363,-2.346,-2.3937,-2.4497,-2.4497,-2.4497,-2.4497,-2.4497,-2.4281,-2.396,-2.394,-2.3267,-2.2501,-2.2035,-2.1859,-2.1807,-2.1807,-2.1807,-2.1807,-2.1807,-2.1507,-2.1217,-2.1217,-2.0545,-1.9979,-1.9907,-1.9523,-1.9015,-1.8382,-1.803,-1.7595,-1.6996,0.0,-1.7192,-1.712,-1.7936,-1.834,-1.7936,-1.862,-1.8942,-1.8548,-1.888,0.0,0.0,-1.9647,-1.9927,-2.0,-2.071,-2.1342,-2.1797,-2.1807,-2.1807,-2.1807,-2.1807,-2.1807,-2.1838,-2.2687,-2.3122,-2.3276,-2.4482,-2.5052,-2.5115,-2.5601,-2.5812,-2.5812,-2.5853,-2.6207,-2.67,-2.711,-2.7585,-2.8068,-1.7279,-1.7279,-1.7279,-1.7279,-1.7279,-1.7279,-1.7279,-1.7279,-1.7279,-1.7279,-1.7279,-1.7279,-1.7279,-1.7279,-1.7279,-1.7279,-1.7279,-1.7279,-1.7279,-1.7279,-1.7279,-1.7279,-1.7279,-1.7279,-1.7279,-1.7279,-1.7326,-1.7419,-1.7893,-1.8133,-1.8226,-1.8596,-1.8827,-1.892,-1.905,-1.9683,-2.0673,-2.0221,-2.0628,-2.149,-2.0871,-2.0645,-2.069,-2.1311,-2.1971,-2.2624,-2.3276,-2.3937,-2.4497,-2.4497,-2.4497,-2.4497,-2.4497,-2.4456,-2.4321,-2.3991,-2.3505,-2.2977,-2.2511,-2.2097,-2.1807,-2.1807,-2.1807,-2.1807,-2.1807,-2.1745,-2.1694,-2.1694,-2.128,-2.0783,-2.0389,-1.9955,-1.9285,-1.7998,-1.8081,-1.7854,-1.6653,0.0,-1.804,-1.7637,-1.8413,-1.8973,-1.8901,-1.9015,-1.9077,-1.9005,-1.9067,-1.9274,-1.9668,-2.0079,-2.0503,-2.0897,-2.1041,-2.1342,-2.1797,-2.1807,-2.1807,-2.1807,-2.1807,-2.1807,-2.1828,-2.2356,-2.2811,-2.3215,-2.3836,-2.4272,-2.4668,-2.5126,-2.5327,-2.5338,-2.577,-2.5979,-2.6052,-2.6135,-2.6218,-2.6302,-1.7279,-1.7279,-1.7279,-1.7279,-1.7279,-1.7279,-1.7279,-1.7279,-1.7279,-1.7279,-1.7279,-1.7279,-1.7279,-1.7279,-1.7279,-1.7279,-1.7279,-1.7279,-1.7279,-1.7279,-1.7279,-1.7279,-1.7279,-1.7279,-1.7279,-1.7279,-1.7279,-1.7279,-1.7567,-1.766,-1.766,-1.7893,-1.8125,-1.8411,-1.8411,-1.8866,-1.9646,-1.96,-1.9911,-2.0411,-2.0337,-2.0292,-2.0337,-2.069,-2.1266,-2.1961,-2.2677,-2.3115,-2.342,-2.3841,-2.398,-2.398,-2.398,-2.4196,-2.4456,-2.4291,-2.3567,-2.2718,-2.2252,-2.1963,-2.1807,-2.1807,-2.1807,-2.1807,-2.1807,-2.1807,-2.1807,-2.1807,-2.1435,-2.1015,-2.0798,-2.0234,-1.9596,-1.893,-1.8578,0.0,0.0,-1.802,-1.8309,-1.8102,-1.8661,-1.9108,-1.9108,-1.9108,-1.9108,-1.9108,-1.9108,-1.9305,-1.9772,-2.0182,-2.0602,-2.1104,-2.1362,-2.159,-2.1807,-2.1807,-2.1807,-2.1807,-2.1807,-2.1807,-2.1828,-2.2283,-2.2749,-2.3215,-2.3722,-2.4136,-2.4497,-2.4743,-2.4828,-2.4828,-2.5041,-2.5137,-2.5179,-2.5422,-2.5506,-2.5549,-1.7279,-1.7279,-1.7279,-1.7279,-1.7279,-1.7279,-1.7279,-1.7279,-1.7279,-1.7279,-1.7279,-1.7279,-1.7279,-1.7279,-1.7279,-1.7279,-1.7279,-1.7279,-1.7279,-1.7279,-1.7279,-1.7279,-1.7279,-1.7279,-1.7279,-1.7279,-1.7279,-1.7279,-1.7279,-1.7279,-1.7279,-1.7279,-1.752,-1.7893,-1.7893,-1.8179,-1.8643,-1.9096,-1.9371,-1.9646,-2.0011,-2.0201,-2.0292,-2.0292,-2.0781,-2.149,-2.1961,-2.2271,-2.2492,-2.3038,-2.3222,-2.3222,-2.3222,-2.3614,-2.4003,-2.4003,-2.3338,-2.2489,-2.2079,-2.1963,-2.1942,-2.1828,-2.1807,-2.1807,-2.1807,-2.1807,-2.1807,-2.1807,-2.1518,-2.1238,-2.1135,-2.0545,-2.0,-1.9689,0.0,0.0,0.0,-1.8445,-1.8528,-1.8424,-1.8818,-1.9108,-1.9108,-1.9108,-1.9108,-1.9108,-1.9108,-1.9357,-1.9917,-2.0234,-2.0653,-2.1259,-2.1621,-2.1807,-2.1807,-2.1807,-2.1807,-2.1807,-2.1807,-2.1807,-2.1818,-2.217,-2.2594,-2.3049,-2.3401,-2.3867,-2.4342,-2.4342,-2.4404,-2.4497,-2.4497,-2.4497,-2.454,-2.4914,-2.5031,-2.5084,-1.7279,-1.7279,-1.7279,-1.7279,-1.7279,-1.7279,-1.7279,-1.7279,-1.7279,-1.7279,-1.7279,-1.7279,-1.7279,-1.7279,-1.7279,-1.7279,-1.7279,-1.7279,-1.7279,-1.7279,-1.7279,-1.7279,-1.7279,-1.7279,-1.7279,-1.7279,-1.7279,-1.7279,-1.7279,-1.7279,-1.7279,-1.7279,-1.7326,-1.738,-1.738,-1.766,-1.8133,-1.8179,-1.8727,-1.9592,-1.9637,-1.992,-2.0292,-2.0292,-2.0781,-2.1401,-2.1445,-2.1882,-2.2394,-2.2438,-2.2482,-2.2482,-2.2482,-2.2526,-2.2526,-2.2526,-2.2644,-2.2729,-2.2528,-2.2449,-2.2335,-2.1911,-2.1807,-2.1807,-2.1807,-2.1807,-2.1807,-2.1807,-2.1776,-2.1621,-2.1197,-2.1062,-2.0596,-1.9357,0.0,0.0,-1.7926,-1.8495,-1.8901,-1.8465,-1.8818,-1.9108,-1.9108,-1.9108,-1.9108,-1.9108,-1.9108,-1.9482,-2.0327,-2.0364,-2.0798,-2.1725,-2.1787,-2.1807,-2.1807,-2.1807,-2.1807,-2.1807,-2.1807,-2.1807,-2.1807,-2.1849,-2.2108,-2.2542,-2.2584,-2.3101,-2.3929,-2.3929,-2.4167,-2.4497,-2.4497,-2.4497,-2.4497,-2.454,-2.454,-2.454,-1.7279,-1.7279,-1.7279,-1.7279,-1.7279,-1.7279,-1.7279,-1.7279,-1.7279,-1.7279,-1.7279,-1.7279,-1.7279,-1.7279,-1.7279,-1.7279,-1.7279,-1.7279,-1.7279,-1.7279,-1.7279,-1.7279,-1.7279,-1.7279,-1.7279,-1.7279,-1.7279,-1.7279,-1.7279,-1.7279,-1.7279,-1.7279,-1.7279,-1.7279,-1.7279,-1.7426,-1.7613,-1.7939,-1.8319,-1.8681,-1.9004,-1.9417,-1.9874,-1.9874,-2.0238,-2.0781,-2.1221,-2.1266,-2.1177,-2.1615,-2.1793,-2.1793,-2.1793,-2.205,-2.2394,-2.2394,-2.2465,-2.2486,-2.2097,-2.2251,-2.2387,-2.1921,-2.1807,-2.1807,-2.1807,-2.1807,-2.1807,-2.1807,-2.1807,-2.1756,-2.158,-2.1311,-2.1041,-2.0803,0.0,-2.0089,-1.9827,-1.9872,-1.9841,-1.9665,-1.9596,-1.9533,-1.9533,-1.9274,-1.9108,-1.9108,-1.9108,-1.9468,-2.0333,-2.0932,-2.1445,-2.1797,-2.1807,-2.1807,-2.1807,-2.1807,-2.1807,-2.1807,-2.1807,-2.1807,-2.1807,-2.1807,-2.2056,-2.2501,-2.2501,-2.3018,-2.3919,-2.3919,-2.4136,-2.4497,-2.4497,-2.4497,-2.4497,-2.4497,-2.4497,-2.4497,-1.7279,-1.7279,-1.7279,-1.7279,-1.7279,-1.7279,-1.7279,-1.7279,-1.7279,-1.7279,-1.7279,-1.7279,-1.7279,-1.7279,-1.7279,-1.7279,-1.7279,-1.7279,-1.7279,-1.7279,-1.7279,-1.7279,-1.7279,-1.7279,-1.7279,-1.7279,-1.7279,-1.7279,-1.7279,-1.7279,-1.7279,-1.7279,-1.7279,-1.7279,-1.7279,-1.7279,-1.7326,-1.7707,-1.7947,-1.8133,-1.8458,-1.8874,-1.9371,-1.9371,-1.9646,-2.0147,-2.0637,-2.06,-2.0382,-2.0871,-2.1042,-2.1042,-2.1042,-2.1347,-2.1739,-2.1739,-2.1917,-2.1957,-2.1494,-2.1823,-2.2161,-2.1771,-2.1758,-2.1807,-2.1807,-2.1807,-2.1807,-2.1807,-2.1807,-2.1807,-2.1807,-2.1549,-2.1393,-2.1559,-2.1062,-2.0664,-2.0876,-2.0591,-2.0385,-2.0385,-2.0027,-1.9793,-1.9793,-1.9378,-1.917,-1.9316,-1.9326,-1.9686,-2.056,-2.1383,-2.1807,-2.1807,-2.1807,-2.1807,-2.1807,-2.1807,-2.1807,-2.1807,-2.1807,-2.1807,-2.1807,-2.1807,-2.1983,-2.2273,-2.2273,-2.2718,-2.3443,-2.3443,-2.3795,-2.4333,-2.4333,-2.4373,-2.4497,-2.4497,-2.4497,-2.4497,-1.7279,-1.7279,-1.7279,-1.7279,-1.7279,-1.7279,-1.7279,-1.7279,-1.7279,-1.7279,-1.7279,-1.7279,-1.7279,-1.7279,-1.7279,-1.7279,-1.7279,-1.7279,-1.7279,-1.7279,-1.7279,-1.7279,-1.7279,-1.7279,-1.7279,-1.7279,-1.7279,-1.7279,-1.7279,-1.7279,-1.7279,-1.7279,-1.7279,-1.7279,-1.7279,-1.7279,-1.7279,-1.7279,-1.7613,-1.8087,-1.8087,-1.8365,-1.8781,-1.8781,-1.9142,-1.9592,-1.9592,-1.9874,-2.0292,-2.0292,-2.0292,-2.0292,-2.0292,-2.0292,-2.0292,-2.0292,-2.0826,-2.1275,-2.0825,-2.1176,-2.1655,-2.1447,-2.1595,-2.1807,-2.1807,-2.1807,-2.1807,-2.1807,-2.1807,-2.1807,-2.1807,-2.1807,-2.1652,-2.1197,-2.1124,-2.0959,-2.0467,-2.0395,-2.0395,-2.0395,-2.0038,-1.9803,-1.9803,-1.9378,-1.9295,-1.9761,-1.9803,-2.0207,-2.1062,-2.1559,-2.1807,-2.1807,-2.1807,-2.1807,-2.1807,-2.1807,-2.1807,-2.1807,-2.1807,-2.1807,-2.1807,-2.1807,-2.1807,-2.1807,-2.1807,-2.2066,-2.2501,-2.2501,-2.3049,-2.3919,-2.3888,-2.4157,-2.4497,-2.4497,-2.4497,-2.4497,-1.7279,-1.7279,-1.7279,-1.7279,-1.7279,-1.7279,-1.7279,-1.7279,-1.7279,-1.7279,-1.7279,-1.7279,-1.7279,-1.7279,-1.7279,-1.7279,-1.7279,-1.7279,-1.7279,-1.7279,-1.7279,-1.7279,-1.7279,-1.7279,-1.7279,-1.7279,-1.7279,-1.7279,-1.7279,-1.7279,-1.7279,-1.7279,-1.7279,-1.7279,-1.7279,-1.7279,-1.7279,-1.7279,-1.738,-1.752,-1.752,-1.7846,-1.8319,-1.8319,-1.8589,-1.905,-1.905,-1.9142,-1.9242,-1.9242,-1.9242,-1.9333,-1.9691,-1.9828,-1.9874,-2.0201,-2.0473,-2.0619,-2.0461,-2.1047,-2.1655,-2.1447,-2.1461,-2.1557,-2.1765,-2.1807,-2.1807,-2.1807,-2.1807,-2.1807,-2.1807,-2.1807,-2.1756,-2.1621,-2.16,-2.1549,-2.1414,-2.1393,-2.1393,-2.1393,-2.071,-2.0358,-2.0679,-2.0041,-1.9782,-2.0193,-2.0524,-2.0834,-2.1104,-2.1559,-2.1807,-2.1807,-2.1807,-2.1807,-2.1807,-2.1807,-2.1807,-2.1807,-2.1807,-2.1807,-2.1807,-2.1807,-2.1807,-2.1807,-2.1807,-2.2066,-2.2522,-2.2853,-2.3339,-2.3908,-2.4219,-2.4383,-2.4497,-2.4497,-2.4497,-2.4497,-1.7279,-1.7279,-1.7279,-1.7279,-1.7279,-1.7279,-1.7279,-1.7279,-1.7279,-1.7279,-1.7279,-1.7279,-1.7279,-1.7279,-1.7279,-1.7279,-1.7279,-1.7279,-1.7279,-1.7279,-1.7279,-1.7279,-1.7279,-1.7279,-1.7279,-1.7279,-1.7279,-1.7279,-1.7279,-1.7279,-1.7279,-1.7279,-1.7279,-1.7279,-1.7279,-1.7279,-1.7279,-1.7279,-1.7279,-1.7279,-1.7279,-1.7473,-1.78,-1.78,-1.8079,-1.8504,-1.8504,-1.8643,-1.8781,-1.8781,-1.8781,-1.8874,-1.9188,-1.9279,-1.9371,-1.9874,-2.0011,-2.0056,-2.0246,-2.073,-2.1129,-2.1117,-2.1486,-2.1897,-2.2023,-2.1932,-2.1807,-2.1807,-2.1807,-2.1807,-2.1807,-2.1807,-2.1807,-2.1807,-2.1807,-2.1807,-2.1807,-2.1807,-2.1807,-2.1807,-2.1155,-2.0803,-2.1093,-2.0452,-2.0213,-2.0622,-2.1124,-2.1393,-2.1393,-2.1652,-2.1807,-2.1807,-2.1807,-2.1807,-2.1807,-2.1807,-2.1807,-2.1807,-2.1807,-2.1807,-2.1807,-2.1807,-2.1807,-2.1807,-2.1807,-2.1963,-2.2242,-2.2532,-2.2915,-2.336,-2.3629,-2.3805,-2.4012,-2.4012,-2.4115,-2.4281,-1.7279,-1.7279,-1.7279,-1.7279,-1.7279,-1.7279,-1.7279,-1.7279,-1.7279,-1.7279,-1.7279,-1.7279,-1.7279,-1.7279,-1.7279,-1.7279,-1.7279,-1.7279,-1.7279,-1.7279,-1.7279,-1.7279,-1.7279,-1.7279,-1.7279,-1.7279,-1.7279,-1.7279,-1.7279,-1.7279,-1.7279,-1.7279,-1.7279,-1.7279,-1.7279,-1.7279,-1.7279,-1.7279,-1.7279,-1.7279,-1.7279,-1.7279,-1.7279,-1.7279,-1.7613,-1.804,-1.804,-1.8319,-1.8689,-1.8689,-1.8689,-1.8689,-1.8735,-1.8735,-1.8827,-1.9371,-1.9554,-1.9646,-2.0102,-2.0292,-2.0387,-2.0686,-2.1582,-2.2386,-2.2393,-2.2131,-2.1859,-2.1818,-2.1807,-2.1807,-2.1807,-2.1807,-2.1807,-2.1807,-2.1807,-2.1807,-2.1807,-2.1807,-2.1807,-2.1807,-2.1393,-2.1135,-2.1176,-2.0793,-2.0684,-2.1145,-2.1569,-2.1807,-2.1807,-2.1807,-2.1807,-2.1807,-2.1807,-2.1807,-2.1807,-2.1807,-2.1807,-2.1807,-2.1807,-2.1807,-2.1807,-2.1807,-2.1807,-2.1807,-2.1807,-2.1807,-2.1807,-2.1849,-2.2118,-2.2501,-2.2542,-2.2811,-2.3184,-2.3184,-2.3453,-2.3857,-1.7185,-1.7279,-1.7279,-1.7279,-1.7279,-1.7279,-1.7279,-1.7279,-1.7279,-1.7279,-1.7279,-1.7279,-1.7279,-1.7279,-1.7279,-1.7279,-1.7279,-1.7279,-1.7279,-1.7279,-1.7279,-1.7279,-1.7279,-1.7279,-1.7279,-1.7279,-1.7279,-1.7279,-1.7279,-1.7279,-1.7279,-1.7279,-1.7279,-1.7279,-1.7279,-1.7279,-1.7279,-1.7279,-1.7279,-1.7279,-1.7279,-1.7279,-1.7279,-1.7279,-1.7372,-1.7466,-1.7466,-1.752,-1.7613,-1.7613,-1.7613,-1.7707,-1.8125,-1.8272,-1.8365,-1.8827,-1.8958,-1.9104,-1.96,-2.0138,-2.0664,-2.1114,-2.1286,-2.1375,-2.1589,-2.2015,-2.2242,-2.188,-2.1807,-2.1807,-2.1807,-2.1807,-2.1807,-2.1807,-2.1807,-2.1807,-2.1807,-2.1807,-2.1807,-2.1807,-2.1393,-2.1259,-2.1621,-2.1569,-2.1549,-2.1652,-2.1745,-2.1807,-2.1807,-2.1807,-2.1807,-2.1807,-2.1807,-2.1807,-2.1807,-2.1807,-2.1807,-2.1807,-2.1807,-2.1807,-2.1807,-2.1807,-2.1807,-2.1807,-2.1807,-2.1807,-2.1828,-2.2201,-2.2408,-2.2532,-2.2894,-2.3101,-2.3184,-2.3184,-2.3246,-2.3339,-1.6615,-1.6763,-1.6904,-1.7232,-1.7279,-1.7279,-1.7279,-1.7279,-1.7279,-1.7279,-1.7279,-1.7279,-1.7279,-1.7279,-1.7279,-1.7279,-1.7279,-1.7279,-1.7279,-1.7279,-1.7279,-1.7279,-1.7279,-1.7279,-1.7279,-1.7279,-1.7279,-1.7279,-1.7279,-1.7279,-1.7279,-1.7279,-1.7279,-1.7279,-1.7279,-1.7279,-1.7279,-1.7279,-1.7279,-1.7279,-1.7279,-1.7279,-1.7279,-1.7279,-1.7279,-1.7279,-1.7279,-1.7279,-1.7279,-1.7279,-1.7279,-1.7326,-1.7613,-1.7707,-1.78,-1.8319,-1.8458,-1.8596,-1.9096,-1.9455,-1.9866,-2.0411,-2.0516,-2.0641,-2.1393,-2.1353,-2.1203,-2.1184,-2.1287,-2.1377,-2.1377,-2.1606,-2.1807,-2.1807,-2.1807,-2.1807,-2.1807,-2.1807,-2.1807,-2.1807,-2.159,-2.1538,-2.1787,-2.1807,-2.1807,-2.1807,-2.1807,-2.1807,-2.1807,-2.1807,-2.1807,-2.1807,-2.1807,-2.1807,-2.1807,-2.1807,-2.1807,-2.1807,-2.1807,-2.1807,-2.1807,-2.1807,-2.1807,-2.1807,-2.1807,-2.1807,-2.1828,-2.2066,-2.217,-2.219,-2.2439,-2.2532,-2.2532,-2.2532,-2.2666,-2.2894,-1.5859,-1.6096,-1.6379,-1.6998,-1.7232,-1.7279,-1.7279,-1.7279,-1.7279,-1.7279,-1.7279,-1.7279,-1.7279,-1.7279,-1.7279,-1.7279,-1.7279,-1.7279,-1.7279,-1.7279,-1.7279,-1.7279,-1.7279,-1.7279,-1.7279,-1.7279,-1.7279,-1.7279,-1.7279,-1.7279,-1.7279,-1.7279,-1.7279,-1.7279,-1.7279,-1.7279,-1.7279,-1.7279,-1.7279,-1.7279,-1.7279,-1.7279,-1.7279,-1.7279,-1.7279,-1.7279,-1.7279,-1.7279,-1.7279,-1.7279,-1.7279,-1.7279,-1.7279,-1.7279,-1.738,-1.7846,-1.7939,-1.8087,-1.855,-1.8689,-1.8827,-1.9325,-1.9538,-1.9901,-2.108,-2.0646,-2.0085,-2.0323,-2.0631,-2.079,-2.076,-2.1136,-2.1492,-2.1492,-2.1492,-2.153,-2.1645,-2.1655,-2.1683,-2.1807,-2.1807,-2.1807,-2.1807,-2.1807,-2.1807,-2.1807,-2.1807,-2.1807,-2.1807,-2.1807,-2.1807,-2.1807,-2.1807,-2.1807,-2.1807,-2.1807,-2.1807,-2.1807,-2.1807,-2.1807,-2.1807,-2.1807,-2.1807,-2.1807,-2.1807,-2.1807,-2.1807,-2.1807,-2.1807,-2.1807,-2.1807,-2.1807,-2.1807,-2.1807,-2.2056,-2.2439,-1.5099,-1.5764,-1.6237,-1.6332,-1.6904,-1.7279,-1.7279,-1.7279,-1.7279,-1.7279,-1.7279,-1.7279,-1.7279,-1.7279,-1.7279,-1.7279,-1.7279,-1.7279,-1.7279,-1.7279,-1.7279,-1.7279,-1.7279,-1.7279,-1.7279,-1.7279,-1.7279,-1.7279,-1.7279,-1.7279,-1.7279,-1.7279,-1.7279,-1.7279,-1.7279,-1.7279,-1.7279,-1.7279,-1.7279,-1.7279,-1.7279,-1.7279,-1.7279,-1.7279,-1.7279,-1.7279,-1.7279,-1.7279,-1.7279,-1.7279,-1.7279,-1.7279,-1.7279,-1.7279,-1.7326,-1.738,-1.7426,-1.752,-1.8032,-1.8179,-1.8319,-1.8781,-1.8635,-1.8619,-1.9662,-2.0377,-2.068,-2.0017,-2.0248,-2.0429,-2.0088,-2.0099,-2.0177,-2.0177,-2.0177,-2.0372,-2.0944,-2.1021,-2.1213,-2.1731,-2.1807,-2.1807,-2.1807,-2.1807,-2.1807,-2.1807,-2.1807,-2.1807,-2.1807,-2.1807,-2.1807,-2.1807,-2.1807,-2.1807,-2.1807,-2.1807,-2.1807,-2.1807,-2.1807,-2.1807,-2.1807,-2.1807,-2.1807,-2.1807,-2.1807,-2.1807,-2.1807,-2.1807,-2.1807,-2.1807,-2.1807,-2.1807,-2.1807,-2.1807,-2.1849,-2.1901,-1.4286,-1.4669,-1.5051,-1.5527,-1.5859,-1.6048,-1.6048,-1.6426,-1.6709,-1.6709,-1.7044,-1.7279,-1.7279,-1.7279,-1.7279,-1.7279,-1.7279,-1.7279,-1.7279,-1.7279,-1.7279,-1.7279,-1.7279,-1.7279,-1.7279,-1.7279,-1.7279,-1.7279,-1.7279,-1.7279,-1.7279,-1.7279,-1.7279,-1.7279,-1.7279,-1.7279,-1.7279,-1.7279,-1.7279,-1.7279,-1.7279,-1.7279,-1.7279,-1.7279,-1.7279,-1.7279,-1.7279,-1.7279,-1.7279,-1.7279,-1.7279,-1.7279,-1.7279,-1.7279,-1.7279,-1.7279,-1.7279,-1.7326,-1.7613,-1.766,-1.7753,-1.8272,-1.8032,-1.7846,-1.8581,-1.9096,-1.9365,-1.9359,-1.9668,-1.9793,-1.9367,-1.9629,-1.9904,-1.9904,-1.9904,-2.0021,-2.0304,-2.0343,-2.0576,-2.1213,-2.1606,-2.1807,-2.1807,-2.1807,-2.1807,-2.1807,-2.1807,-2.1807,-2.1807,-2.1807,-2.1807,-2.1807,-2.1807,-2.1807,-2.1807,-2.1807,-2.1807,-2.1807,-2.1807,-2.1807,-2.1807,-2.1807,-2.1807,-2.1807,-2.1807,-2.1807,-2.1807,-2.1807,-2.1807,-2.1807,-2.1807,-2.1807,-2.1807,-2.1807,-2.1807,-2.1807]}]]